<?xml version='1.0' encoding='UTF-8'?><gpx version="1.1" creator="JPX - https://github.com/jenetics/jpx" xmlns="http://www.topografix.com/GPX/1/1"><trk><trkseg><trkpt lat="53.78198604830315" lon="87.21566600380697"><ele>246.99999999999997</ele><time>2026-04-30T10:04:10Z</time></trkpt><trkpt lat="53.782012880358884" lon="87.21579338204673"><ele>247.0</ele><time>2026-04-30T10:04:12Z</time></trkpt><trkpt lat="53.782064382460966" lon="87.21589465902501"><ele>247.0</ele><time>2026-04-30T10:04:14Z</time></trkpt><trkpt lat="53.78210986632549" lon="87.21600822325918"><ele>247.0</ele><time>2026-04-30T10:04:16Z</time></trkpt><trkpt lat="53.78216177213107" lon="87.21612755807543"><ele>246.99999999999997</ele><time>2026-04-30T10:04:18Z</time></trkpt><trkpt lat="53.78221514304559" lon="87.21624640803655"><ele>247.0</ele><time>2026-04-30T10:04:20Z</time></trkpt><trkpt lat="53.78227076183236" lon="87.21635845314817"><ele>246.99999999999997</ele><time>2026-04-30T10:04:22Z</time></trkpt><trkpt lat="53.782321160970405" lon="87.21648064626567"><ele>247.0</ele><time>2026-04-30T10:04:24Z</time></trkpt><trkpt lat="53.782373429578804" lon="87.21656233617783"><ele>247.0</ele><time>2026-04-30T10:04:29Z</time></trkpt><trkpt lat="53.78243300047282" lon="87.21667022062195"><ele>247.0</ele><time>2026-04-30T10:04:34Z</time></trkpt><trkpt lat="53.782473443358725" lon="87.21678259316077"><ele>246.99999999999997</ele><time>2026-04-30T10:04:36Z</time></trkpt><trkpt lat="53.78250896129655" lon="87.2168867156678"><ele>247.0</ele><time>2026-04-30T10:04:38Z</time></trkpt><trkpt lat="53.78255350696069" lon="87.21699813369386"><ele>246.16666666666666</ele><time>2026-04-30T10:04:41Z</time></trkpt><trkpt lat="53.78260450835464" lon="87.21712276303253"><ele>245.33333333333331</ele><time>2026-04-30T10:04:44Z</time></trkpt><trkpt lat="53.78264501408566" lon="87.21720905083006"><ele>244.5</ele><time>2026-04-30T10:04:47Z</time></trkpt><trkpt lat="53.782695999310626" lon="87.21733421821949"><ele>243.66666666666669</ele><time>2026-04-30T10:04:50Z</time></trkpt><trkpt lat="53.78275771573074" lon="87.21746361820117"><ele>242.83333333333334</ele><time>2026-04-30T10:04:53Z</time></trkpt><trkpt lat="53.78279799953393" lon="87.2175480708368"><ele>242.0</ele><time>2026-04-30T10:04:55Z</time></trkpt><trkpt lat="53.7828373096706" lon="87.21763375078136"><ele>241.83333333333334</ele><time>2026-04-30T10:04:57.999Z</time></trkpt><trkpt lat="53.782881447154644" lon="87.21771186633993"><ele>241.66666666666669</ele><time>2026-04-30T10:05:00.999Z</time></trkpt><trkpt lat="53.782942290170546" lon="87.21785767415062"><ele>241.5</ele><time>2026-04-30T10:05:03.999Z</time></trkpt><trkpt lat="53.78296513329001" lon="87.21796539684709"><ele>241.33333333333331</ele><time>2026-04-30T10:05:07.999Z</time></trkpt><trkpt lat="53.78301136867119" lon="87.21805293312842"><ele>241.16666666666666</ele><time>2026-04-30T10:05:14.999Z</time></trkpt><trkpt lat="53.78307955738248" lon="87.21818556862648"><ele>241.0</ele><time>2026-04-30T10:05:18.999Z</time></trkpt><trkpt lat="53.783123997146575" lon="87.21827280302983"><ele>240.66666666666666</ele><time>2026-04-30T10:05:21.999Z</time></trkpt><trkpt lat="53.783166127188714" lon="87.21836077522273"><ele>240.33333333333331</ele><time>2026-04-30T10:05:24.999Z</time></trkpt><trkpt lat="53.783213035796784" lon="87.2184687998757"><ele>240.0</ele><time>2026-04-30T10:05:26.999Z</time></trkpt><trkpt lat="53.78326006717176" lon="87.21858442244593"><ele>239.66666666666669</ele><time>2026-04-30T10:05:29.999Z</time></trkpt><trkpt lat="53.78329679612842" lon="87.21867878930553"><ele>239.33333333333334</ele><time>2026-04-30T10:05:33Z</time></trkpt><trkpt lat="53.78334444005401" lon="87.21880860971925"><ele>239.0</ele><time>2026-04-30T10:05:36Z</time></trkpt><trkpt lat="53.78340068209663" lon="87.21893801216233"><ele>238.6</ele><time>2026-04-30T10:05:39Z</time></trkpt><trkpt lat="53.78346002071918" lon="87.21907723714043"><ele>238.2</ele><time>2026-04-30T10:05:42Z</time></trkpt><trkpt lat="53.78352829499232" lon="87.2191960747715"><ele>237.79999999999998</ele><time>2026-04-30T10:05:45Z</time></trkpt><trkpt lat="53.783583209985686" lon="87.21932194823471"><ele>237.39999999999998</ele><time>2026-04-30T10:05:47Z</time></trkpt><trkpt lat="53.78363311909516" lon="87.21944072086282"><ele>237.0</ele><time>2026-04-30T10:05:49Z</time></trkpt><trkpt lat="53.78368675057867" lon="87.21952722239205"><ele>237.0</ele><time>2026-04-30T10:05:51Z</time></trkpt><trkpt lat="53.78374610757101" lon="87.21968245205312"><ele>237.0</ele><time>2026-04-30T10:05:54Z</time></trkpt><trkpt lat="53.78379418928166" lon="87.21981373767463"><ele>237.0</ele><time>2026-04-30T10:05:56Z</time></trkpt><trkpt lat="53.783843303278985" lon="87.21992619971053"><ele>237.0</ele><time>2026-04-30T10:05:58Z</time></trkpt><trkpt lat="53.783893293261826" lon="87.22006058516337"><ele>237.0</ele><time>2026-04-30T10:06:01Z</time></trkpt><trkpt lat="53.7839412112803" lon="87.22018071465622"><ele>237.0</ele><time>2026-04-30T10:06:03Z</time></trkpt><trkpt lat="53.78399253507048" lon="87.22029118037257"><ele>237.0</ele><time>2026-04-30T10:06:06Z</time></trkpt><trkpt lat="53.78404621560012" lon="87.22039813507813"><ele>237.0</ele><time>2026-04-30T10:06:09Z</time></trkpt><trkpt lat="53.784096317859216" lon="87.22051039142984"><ele>237.0</ele><time>2026-04-30T10:06:12Z</time></trkpt><trkpt lat="53.78428179730449" lon="87.2207984244126"><ele>236.99999999999997</ele><time>2026-04-30T10:06:14Z</time></trkpt><trkpt lat="53.78432028752117" lon="87.22089674741997"><ele>237.0</ele><time>2026-04-30T10:14:10Z</time></trkpt><trkpt lat="53.784362814846" lon="87.22099091500223"><ele>236.99999999999997</ele><time>2026-04-30T10:14:12Z</time></trkpt><trkpt lat="53.78440440836179" lon="87.22108572466662"><ele>236.99999999999997</ele><time>2026-04-30T10:14:14Z</time></trkpt><trkpt lat="53.7844512590803" lon="87.22118072884834"><ele>237.0</ele><time>2026-04-30T10:14:16Z</time></trkpt><trkpt lat="53.78448985931672" lon="87.22126596033576"><ele>236.99999999999997</ele><time>2026-04-30T10:14:18Z</time></trkpt><trkpt lat="53.78453968698391" lon="87.22137366553756"><ele>236.99999999999997</ele><time>2026-04-30T10:14:20Z</time></trkpt><trkpt lat="53.7845838349605" lon="87.22147904477936"><ele>239.25</ele><time>2026-04-30T10:14:22Z</time></trkpt><trkpt lat="53.78463355135842" lon="87.22158013029892"><ele>241.5</ele><time>2026-04-30T10:14:24Z</time></trkpt><trkpt lat="53.784681287238044" lon="87.22169653546409"><ele>243.75</ele><time>2026-04-30T10:14:27Z</time></trkpt><trkpt lat="53.784718801706546" lon="87.2218145305115"><ele>246.0</ele><time>2026-04-30T10:14:30Z</time></trkpt><trkpt lat="53.78487688843359" lon="87.22209896366904"><ele>246.00000000000003</ele><time>2026-04-30T10:14:33Z</time></trkpt><trkpt lat="53.78492312197995" lon="87.22220041439647"><ele>246.0</ele><time>2026-04-30T10:14:35Z</time></trkpt><trkpt lat="53.78496659066274" lon="87.22230571460969"><ele>246.00000000000003</ele><time>2026-04-30T10:14:37Z</time></trkpt><trkpt lat="53.78500676838112" lon="87.22239843056347"><ele>246.00000000000003</ele><time>2026-04-30T10:14:39Z</time></trkpt><trkpt lat="53.78504291334414" lon="87.222488195183"><ele>246.0</ele><time>2026-04-30T10:14:41Z</time></trkpt><trkpt lat="53.78508095619002" lon="87.2225789102185"><ele>246.00000000000003</ele><time>2026-04-30T10:14:43Z</time></trkpt><trkpt lat="53.785122270077345" lon="87.22267339409551"><ele>246.00000000000003</ele><time>2026-04-30T10:14:45Z</time></trkpt><trkpt lat="53.78516468878186" lon="87.22277286245817"><ele>245.5</ele><time>2026-04-30T10:14:47Z</time></trkpt><trkpt lat="53.78520885162621" lon="87.22288860916142"><ele>245.0</ele><time>2026-04-30T10:14:49Z</time></trkpt><trkpt lat="53.78525968045401" lon="87.22295751255396"><ele>244.5</ele><time>2026-04-30T10:14:51Z</time></trkpt><trkpt lat="53.78530145100761" lon="87.22304954725462"><ele>244.0</ele><time>2026-04-30T10:14:54Z</time></trkpt><trkpt lat="53.78532910821471" lon="87.22315474982358"><ele>243.5</ele><time>2026-04-30T10:14:59Z</time></trkpt><trkpt lat="53.78536053542597" lon="87.22325460834658"><ele>243.0</ele><time>2026-04-30T10:15:02Z</time></trkpt><trkpt lat="53.785429751531886" lon="87.22340219248447"><ele>243.0</ele><time>2026-04-30T10:15:04Z</time></trkpt><trkpt lat="53.78545695122428" lon="87.22350180485003"><ele>243.0</ele><time>2026-04-30T10:15:06Z</time></trkpt><trkpt lat="53.785493044644326" lon="87.22359360052909"><ele>243.0</ele><time>2026-04-30T10:15:08Z</time></trkpt><trkpt lat="53.785532759047044" lon="87.2236940628818"><ele>243.0</ele><time>2026-04-30T10:15:10Z</time></trkpt><trkpt lat="53.785661816995926" lon="87.22389632216459"><ele>243.0</ele><time>2026-04-30T10:15:12Z</time></trkpt><trkpt lat="53.78571259922632" lon="87.2240068157786"><ele>243.0</ele><time>2026-04-30T10:15:14Z</time></trkpt><trkpt lat="53.785762857830385" lon="87.22412066019108"><ele>243.0</ele><time>2026-04-30T10:15:16Z</time></trkpt><trkpt lat="53.785805743446254" lon="87.2242280091754"><ele>243.0</ele><time>2026-04-30T10:15:18Z</time></trkpt><trkpt lat="53.78584874233043" lon="87.22432478933928"><ele>243.0</ele><time>2026-04-30T10:15:20Z</time></trkpt><trkpt lat="53.78588732953251" lon="87.22441964184864"><ele>243.0</ele><time>2026-04-30T10:15:22Z</time></trkpt><trkpt lat="53.78592849603756" lon="87.22450564241137"><ele>243.0</ele><time>2026-04-30T10:15:24Z</time></trkpt><trkpt lat="53.785968453424985" lon="87.22459385313763"><ele>243.0</ele><time>2026-04-30T10:15:26Z</time></trkpt><trkpt lat="53.78601353670881" lon="87.22468491408354"><ele>243.0</ele><time>2026-04-30T10:15:28Z</time></trkpt><trkpt lat="53.7860564154934" lon="87.2247925456194"><ele>243.0</ele><time>2026-04-30T10:15:30Z</time></trkpt><trkpt lat="53.78610626075032" lon="87.22493136515716"><ele>243.0</ele><time>2026-04-30T10:15:33Z</time></trkpt><trkpt lat="53.786150322421456" lon="87.22502605243773"><ele>243.0</ele><time>2026-04-30T10:15:35Z</time></trkpt><trkpt lat="53.786194142246565" lon="87.22512422127757"><ele>243.0</ele><time>2026-04-30T10:15:37Z</time></trkpt><trkpt lat="53.78623889046952" lon="87.22521144671897"><ele>243.0</ele><time>2026-04-30T10:15:39Z</time></trkpt><trkpt lat="53.78628844068182" lon="87.22531092986225"><ele>243.0</ele><time>2026-04-30T10:15:42Z</time></trkpt><trkpt lat="53.78634532509271" lon="87.22547434141445"><ele>243.0</ele><time>2026-04-30T10:15:45Z</time></trkpt><trkpt lat="53.786385717874815" lon="87.22557706470485"><ele>243.0</ele><time>2026-04-30T10:15:47Z</time></trkpt><trkpt lat="53.786452169534975" lon="87.22572873225856"><ele>243.0</ele><time>2026-04-30T10:15:49Z</time></trkpt><trkpt lat="53.786516498149254" lon="87.22587009892872"><ele>243.0</ele><time>2026-04-30T10:15:51Z</time></trkpt><trkpt lat="53.78657871691497" lon="87.22600177841257"><ele>242.83333333333334</ele><time>2026-04-30T10:15:53Z</time></trkpt><trkpt lat="53.78662915019458" lon="87.22609669831897"><ele>242.66666666666669</ele><time>2026-04-30T10:15:55Z</time></trkpt><trkpt lat="53.78668200553507" lon="87.2262067729158"><ele>242.5</ele><time>2026-04-30T10:15:57Z</time></trkpt><trkpt lat="53.78671916758565" lon="87.22629895375539"><ele>242.33333333333334</ele><time>2026-04-30T10:15:59Z</time></trkpt><trkpt lat="53.78676507467376" lon="87.22639264625937"><ele>242.16666666666669</ele><time>2026-04-30T10:16:01Z</time></trkpt><trkpt lat="53.78681257725683" lon="87.22649074107817"><ele>242.0</ele><time>2026-04-30T10:16:03Z</time></trkpt><trkpt lat="53.78686936845624" lon="87.22660338385778"><ele>242.00000000000003</ele><time>2026-04-30T10:16:05Z</time></trkpt><trkpt lat="53.78690506779196" lon="87.22671241796787"><ele>242.0</ele><time>2026-04-30T10:16:07Z</time></trkpt><trkpt lat="53.786951787126064" lon="87.2268230419667"><ele>242.0</ele><time>2026-04-30T10:16:11Z</time></trkpt><trkpt lat="53.787022388502635" lon="87.22697043837765"><ele>242.0</ele><time>2026-04-30T10:16:12Z</time></trkpt><trkpt lat="53.78705644639055" lon="87.22707088138468"><ele>242.00000000000003</ele><time>2026-04-30T10:16:15Z</time></trkpt><trkpt lat="53.787101940571944" lon="87.2271763314268"><ele>242.0</ele><time>2026-04-30T10:16:18Z</time></trkpt><trkpt lat="53.78714869364813" lon="87.2273025169373"><ele>242.00000000000003</ele><time>2026-04-30T10:16:21Z</time></trkpt><trkpt lat="53.78718197424347" lon="87.22740178091811"><ele>242.0</ele><time>2026-04-30T10:16:26Z</time></trkpt><trkpt lat="53.787224563765854" lon="87.22748566339459"><ele>242.0</ele><time>2026-04-30T10:16:37Z</time></trkpt><trkpt lat="53.78727230477904" lon="87.22759703850397"><ele>242.0</ele><time>2026-04-30T10:16:40Z</time></trkpt><trkpt lat="53.78732509070468" lon="87.22773150237579"><ele>242.00000000000003</ele><time>2026-04-30T10:16:43Z</time></trkpt><trkpt lat="53.78736508064063" lon="87.22783029363613"><ele>242.0</ele><time>2026-04-30T10:16:45Z</time></trkpt><trkpt lat="53.78739520715255" lon="87.22793955171512"><ele>242.00000000000003</ele><time>2026-04-30T10:16:47Z</time></trkpt><trkpt lat="53.7874508156074" lon="87.22806488465062"><ele>242.0</ele><time>2026-04-30T10:16:49Z</time></trkpt><trkpt lat="53.78750088248107" lon="87.22816258180899"><ele>242.0</ele><time>2026-04-30T10:16:51Z</time></trkpt><trkpt lat="53.787544047065765" lon="87.22825966088746"><ele>242.0</ele><time>2026-04-30T10:16:53Z</time></trkpt><trkpt lat="53.78758679075514" lon="87.22836511784166"><ele>242.00000000000003</ele><time>2026-04-30T10:16:56Z</time></trkpt><trkpt lat="53.787620999540216" lon="87.22847579766061"><ele>242.0</ele><time>2026-04-30T10:16:59Z</time></trkpt><trkpt lat="53.78767344238956" lon="87.22858506464466"><ele>242.16666666666669</ele><time>2026-04-30T10:17:02Z</time></trkpt><trkpt lat="53.787738333144276" lon="87.22868426485684"><ele>242.33333333333334</ele><time>2026-04-30T10:17:05Z</time></trkpt><trkpt lat="53.78777800547187" lon="87.22878761265106"><ele>242.5</ele><time>2026-04-30T10:17:07Z</time></trkpt><trkpt lat="53.787832168163106" lon="87.22890902589818"><ele>242.66666666666669</ele><time>2026-04-30T10:17:09Z</time></trkpt><trkpt lat="53.78788998594345" lon="87.22901488183723"><ele>242.83333333333334</ele><time>2026-04-30T10:17:11Z</time></trkpt><trkpt lat="53.78793065470526" lon="87.22912154264634"><ele>243.0</ele><time>2026-04-30T10:17:13Z</time></trkpt><trkpt lat="53.78797684244668" lon="87.22921943229694"><ele>243.0</ele><time>2026-04-30T10:17:15Z</time></trkpt><trkpt lat="53.78802653163811" lon="87.22932726137216"><ele>243.0</ele><time>2026-04-30T10:17:17Z</time></trkpt><trkpt lat="53.78807545077627" lon="87.22944642186442"><ele>243.0</ele><time>2026-04-30T10:17:19Z</time></trkpt><trkpt lat="53.788125668213375" lon="87.22955875392563"><ele>243.0</ele><time>2026-04-30T10:17:21Z</time></trkpt><trkpt lat="53.788175284220415" lon="87.22968174441785"><ele>243.0</ele><time>2026-04-30T10:17:23Z</time></trkpt><trkpt lat="53.788223379622934" lon="87.22979542954747"><ele>243.0</ele><time>2026-04-30T10:17:25Z</time></trkpt><trkpt lat="53.78826295089277" lon="87.22990525666695"><ele>242.83333333333334</ele><time>2026-04-30T10:17:27Z</time></trkpt><trkpt lat="53.78831668248853" lon="87.23001667932043"><ele>242.66666666666669</ele><time>2026-04-30T10:17:29Z</time></trkpt><trkpt lat="53.78836167566865" lon="87.23011306616526"><ele>242.5</ele><time>2026-04-30T10:17:31Z</time></trkpt><trkpt lat="53.78840473343673" lon="87.23020520816429"><ele>242.33333333333334</ele><time>2026-04-30T10:17:33Z</time></trkpt><trkpt lat="53.788451243007444" lon="87.23031671845814"><ele>242.16666666666669</ele><time>2026-04-30T10:17:35Z</time></trkpt><trkpt lat="53.788501626323516" lon="87.23043665252867"><ele>242.0</ele><time>2026-04-30T10:17:37Z</time></trkpt><trkpt lat="53.788556373483814" lon="87.23054756842744"><ele>242.33333333333334</ele><time>2026-04-30T10:17:39Z</time></trkpt><trkpt lat="53.78859723263419" lon="87.23064853561526"><ele>242.66666666666669</ele><time>2026-04-30T10:17:41Z</time></trkpt><trkpt lat="53.788644157212524" lon="87.2307499964776"><ele>243.0</ele><time>2026-04-30T10:17:43Z</time></trkpt><trkpt lat="53.788698611724655" lon="87.23085771506715"><ele>243.33333333333331</ele><time>2026-04-30T10:17:45Z</time></trkpt><trkpt lat="53.78875077768083" lon="87.2309761147611"><ele>243.66666666666666</ele><time>2026-04-30T10:17:47Z</time></trkpt><trkpt lat="53.788796071134755" lon="87.23109874166805"><ele>244.0</ele><time>2026-04-30T10:17:49Z</time></trkpt><trkpt lat="53.78884683959287" lon="87.23120361230943"><ele>243.99999999999997</ele><time>2026-04-30T10:17:51Z</time></trkpt><trkpt lat="53.78889463945721" lon="87.23132067083432"><ele>244.0</ele><time>2026-04-30T10:17:53Z</time></trkpt><trkpt lat="53.78894878571673" lon="87.23141332698562"><ele>244.0</ele><time>2026-04-30T10:17:55Z</time></trkpt><trkpt lat="53.788998022015804" lon="87.23149940752354"><ele>244.0</ele><time>2026-04-30T10:17:58Z</time></trkpt><trkpt lat="53.789085177728985" lon="87.23163605200897"><ele>243.99999999999997</ele><time>2026-04-30T10:17:59Z</time></trkpt><trkpt lat="53.78914016400463" lon="87.23175820403414"><ele>244.0</ele><time>2026-04-30T10:18:01Z</time></trkpt><trkpt lat="53.78918815711647" lon="87.23189435175608"><ele>243.99999999999997</ele><time>2026-04-30T10:18:03Z</time></trkpt><trkpt lat="53.789246062392664" lon="87.2320028193304"><ele>244.0</ele><time>2026-04-30T10:18:05Z</time></trkpt><trkpt lat="53.78929943552818" lon="87.23211624414692"><ele>244.0</ele><time>2026-04-30T10:18:07Z</time></trkpt><trkpt lat="53.78934584469748" lon="87.23223466205852"><ele>244.0</ele><time>2026-04-30T10:18:09Z</time></trkpt><trkpt lat="53.789393862809256" lon="87.23233580960759"><ele>243.99999999999997</ele><time>2026-04-30T10:18:11Z</time></trkpt><trkpt lat="53.78943573124925" lon="87.23244887696083"><ele>244.0</ele><time>2026-04-30T10:18:13Z</time></trkpt><trkpt lat="53.78948615443822" lon="87.23255475658975"><ele>243.99999999999997</ele><time>2026-04-30T10:18:15Z</time></trkpt><trkpt lat="53.78953012957779" lon="87.2326781329429"><ele>244.0</ele><time>2026-04-30T10:18:17Z</time></trkpt><trkpt lat="53.78957435282661" lon="87.23277431638273"><ele>244.0</ele><time>2026-04-30T10:18:19Z</time></trkpt><trkpt lat="53.789620750762545" lon="87.23290080969896"><ele>244.0</ele><time>2026-04-30T10:18:22Z</time></trkpt><trkpt lat="53.78967786331596" lon="87.23303332561484"><ele>243.99999999999997</ele><time>2026-04-30T10:18:25Z</time></trkpt><trkpt lat="53.78972448436239" lon="87.23312835878139"><ele>244.0</ele><time>2026-04-30T10:18:27Z</time></trkpt><trkpt lat="53.78977880802389" lon="87.23325854629395"><ele>243.85714285714283</ele><time>2026-04-30T10:18:30Z</time></trkpt><trkpt lat="53.78982659310855" lon="87.23334135943585"><ele>243.71428571428572</ele><time>2026-04-30T10:18:32Z</time></trkpt><trkpt lat="53.78987363540144" lon="87.23346542856943"><ele>243.57142857142856</ele><time>2026-04-30T10:18:35Z</time></trkpt><trkpt lat="53.789917738266624" lon="87.23356782757293"><ele>243.42857142857142</ele><time>2026-04-30T10:18:38Z</time></trkpt><trkpt lat="53.78995051552096" lon="87.23367023212386"><ele>243.28571428571428</ele><time>2026-04-30T10:18:41Z</time></trkpt><trkpt lat="53.78999581153787" lon="87.2337925531462"><ele>243.14285714285714</ele><time>2026-04-30T10:18:43Z</time></trkpt><trkpt lat="53.79002161438756" lon="87.23389279693738"><ele>243.0</ele><time>2026-04-30T10:18:45Z</time></trkpt><trkpt lat="53.79002939893326" lon="87.23400596085382"><ele>242.5</ele><time>2026-04-30T10:18:52Z</time></trkpt><trkpt lat="53.78997763628782" lon="87.23409814051458"><ele>242.0</ele><time>2026-04-30T10:18:55Z</time></trkpt><trkpt lat="53.789946309017274" lon="87.23419386879583"><ele>241.5</ele><time>2026-04-30T10:19:01Z</time></trkpt><trkpt lat="53.789939779361" lon="87.23431464151825"><ele>241.0</ele><time>2026-04-30T10:19:03Z</time></trkpt><trkpt lat="53.78999569908248" lon="87.23440954136466"><ele>240.5</ele><time>2026-04-30T10:19:05Z</time></trkpt><trkpt lat="53.79005954900148" lon="87.23452160818034"><ele>240.0</ele><time>2026-04-30T10:19:08Z</time></trkpt><trkpt lat="53.790096998485964" lon="87.23461975957034"><ele>240.0</ele><time>2026-04-30T10:19:10Z</time></trkpt><trkpt lat="53.790128781622954" lon="87.23472671067773"><ele>240.0</ele><time>2026-04-30T10:19:13Z</time></trkpt><trkpt lat="53.790196091616316" lon="87.23489025210046"><ele>240.0</ele><time>2026-04-30T10:19:16Z</time></trkpt><trkpt lat="53.79023459592929" lon="87.23497721351909"><ele>240.0</ele><time>2026-04-30T10:19:19Z</time></trkpt><trkpt lat="53.790270504888866" lon="87.23507805655676"><ele>240.0</ele><time>2026-04-30T10:19:23Z</time></trkpt><trkpt lat="53.79034317139811" lon="87.23534647102741"><ele>239.85714285714286</ele><time>2026-04-30T10:24:21Z</time></trkpt><trkpt lat="53.79036804713468" lon="87.2354565731796"><ele>239.71428571428572</ele><time>2026-04-30T10:24:23Z</time></trkpt><trkpt lat="53.79040604309134" lon="87.2355654585174"><ele>239.57142857142858</ele><time>2026-04-30T10:24:27Z</time></trkpt><trkpt lat="53.79044276517584" lon="87.23567292276958"><ele>239.42857142857144</ele><time>2026-04-30T10:24:30Z</time></trkpt><trkpt lat="53.79047117445189" lon="87.23579265470391"><ele>239.28571428571428</ele><time>2026-04-30T10:24:33Z</time></trkpt><trkpt lat="53.790536679245065" lon="87.23586238857044"><ele>239.14285714285717</ele><time>2026-04-30T10:24:37Z</time></trkpt><trkpt lat="53.79059960949298" lon="87.23591967025793"><ele>239.00000000000003</ele><time>2026-04-30T10:24:40Z</time></trkpt><trkpt lat="53.79066427899214" lon="87.2359659445379"><ele>238.8571428571429</ele><time>2026-04-30T10:24:46Z</time></trkpt><trkpt lat="53.790725949816164" lon="87.23593010761287"><ele>238.71428571428572</ele><time>2026-04-30T10:24:54Z</time></trkpt><trkpt lat="53.790797350055136" lon="87.23597735379757"><ele>238.57142857142858</ele><time>2026-04-30T10:25:00Z</time></trkpt><trkpt lat="53.79084342731597" lon="87.23606861461928"><ele>238.42857142857144</ele><time>2026-04-30T10:25:06Z</time></trkpt><trkpt lat="53.79088742509936" lon="87.236168442428"><ele>238.28571428571428</ele><time>2026-04-30T10:25:09Z</time></trkpt><trkpt lat="53.79094492645887" lon="87.2362923568113"><ele>238.14285714285714</ele><time>2026-04-30T10:25:12Z</time></trkpt><trkpt lat="53.7909799399048" lon="87.23638907066407"><ele>238.0</ele><time>2026-04-30T10:25:14Z</time></trkpt><trkpt lat="53.791027913647426" lon="87.23656153732139"><ele>238.4</ele><time>2026-04-30T10:25:17Z</time></trkpt><trkpt lat="53.791073066347245" lon="87.2366846473168"><ele>238.8</ele><time>2026-04-30T10:25:19Z</time></trkpt><trkpt lat="53.791131851837875" lon="87.23681306684797"><ele>239.2</ele><time>2026-04-30T10:25:21Z</time></trkpt><trkpt lat="53.79118016786289" lon="87.23695483804923"><ele>239.6</ele><time>2026-04-30T10:25:23Z</time></trkpt><trkpt lat="53.791228965650674" lon="87.23709344483856"><ele>240.0</ele><time>2026-04-30T10:25:25Z</time></trkpt><trkpt lat="53.79127588489067" lon="87.23721306407712"><ele>239.5</ele><time>2026-04-30T10:25:27Z</time></trkpt><trkpt lat="53.79132519576524" lon="87.23731657517759"><ele>239.0</ele><time>2026-04-30T10:25:29Z</time></trkpt><trkpt lat="53.79137391278053" lon="87.23740911249688"><ele>238.5</ele><time>2026-04-30T10:25:31Z</time></trkpt><trkpt lat="53.79142532552736" lon="87.23752813264579"><ele>238.0</ele><time>2026-04-30T10:25:33Z</time></trkpt><trkpt lat="53.79147397299933" lon="87.23764735193573"><ele>237.5</ele><time>2026-04-30T10:25:35Z</time></trkpt><trkpt lat="53.79151519001906" lon="87.23775019097644"><ele>237.0</ele><time>2026-04-30T10:25:37Z</time></trkpt><trkpt lat="53.79152201611907" lon="87.23786198305908"><ele>237.0</ele><time>2026-04-30T10:25:39Z</time></trkpt><trkpt lat="53.79150141658911" lon="87.23798979323226"><ele>237.0</ele><time>2026-04-30T10:25:41Z</time></trkpt><trkpt lat="53.79145217681243" lon="87.23806649423653"><ele>237.0</ele><time>2026-04-30T10:25:47Z</time></trkpt><trkpt lat="53.79139238089915" lon="87.23814965843911"><ele>237.0</ele><time>2026-04-30T10:25:51Z</time></trkpt><trkpt lat="53.79134009809776" lon="87.23822228601193"><ele>237.0</ele><time>2026-04-30T10:25:52Z</time></trkpt><trkpt lat="53.79126041773019" lon="87.23831953251202"><ele>237.0</ele><time>2026-04-30T10:25:54Z</time></trkpt><trkpt lat="53.79117884535771" lon="87.23843980157906"><ele>237.0</ele><time>2026-04-30T10:25:56Z</time></trkpt><trkpt lat="53.79108721926836" lon="87.23855619524721"><ele>237.0</ele><time>2026-04-30T10:25:58Z</time></trkpt><trkpt lat="53.79099240315907" lon="87.23867604723455"><ele>237.0</ele><time>2026-04-30T10:26:00Z</time></trkpt><trkpt lat="53.79089743386459" lon="87.2387906787985"><ele>237.0</ele><time>2026-04-30T10:26:02Z</time></trkpt><trkpt lat="53.790816125856914" lon="87.23889581215013"><ele>236.6</ele><time>2026-04-30T10:26:04Z</time></trkpt><trkpt lat="53.79073748270574" lon="87.23899675521147"><ele>236.2</ele><time>2026-04-30T10:26:06Z</time></trkpt><trkpt lat="53.790648289337305" lon="87.23911915893878"><ele>235.8</ele><time>2026-04-30T10:26:08Z</time></trkpt><trkpt lat="53.79055480314451" lon="87.239244986842"><ele>235.4</ele><time>2026-04-30T10:26:10Z</time></trkpt><trkpt lat="53.790469672637116" lon="87.23936410867339"><ele>235.0</ele><time>2026-04-30T10:26:12Z</time></trkpt><trkpt lat="53.790389070658456" lon="87.23946613092357"><ele>234.99999999999997</ele><time>2026-04-30T10:26:14Z</time></trkpt><trkpt lat="53.79031634148072" lon="87.239566650543"><ele>235.0</ele><time>2026-04-30T10:26:16Z</time></trkpt><trkpt lat="53.79024959417158" lon="87.23968117665831"><ele>235.0</ele><time>2026-04-30T10:26:18Z</time></trkpt><trkpt lat="53.7901917336142" lon="87.23978523182039"><ele>235.0</ele><time>2026-04-30T10:26:20Z</time></trkpt><trkpt lat="53.7901392391173" lon="87.23989093117032"><ele>234.99999999999997</ele><time>2026-04-30T10:26:22Z</time></trkpt><trkpt lat="53.79008972274931" lon="87.23999657970967"><ele>235.0</ele><time>2026-04-30T10:26:24Z</time></trkpt><trkpt lat="53.79004613143029" lon="87.24009023077645"><ele>234.99999999999997</ele><time>2026-04-30T10:26:26Z</time></trkpt><trkpt lat="53.790002827391774" lon="87.24018827903386"><ele>235.0</ele><time>2026-04-30T10:26:28Z</time></trkpt><trkpt lat="53.78995885510685" lon="87.24029051830306"><ele>235.0</ele><time>2026-04-30T10:26:30Z</time></trkpt><trkpt lat="53.789902854444115" lon="87.24038959366247"><ele>235.0</ele><time>2026-04-30T10:26:32Z</time></trkpt><trkpt lat="53.789856558038586" lon="87.24047690042077"><ele>234.99999999999997</ele><time>2026-04-30T10:26:34Z</time></trkpt><trkpt lat="53.789809290565074" lon="87.24058296146515"><ele>235.0</ele><time>2026-04-30T10:26:36Z</time></trkpt><trkpt lat="53.78976961806192" lon="87.24069140249097"><ele>235.0</ele><time>2026-04-30T10:26:38Z</time></trkpt><trkpt lat="53.78973361001426" lon="87.24078220392002"><ele>234.99999999999997</ele><time>2026-04-30T10:26:40Z</time></trkpt><trkpt lat="53.789766503229856" lon="87.24089262335727"><ele>235.0</ele><time>2026-04-30T10:26:47Z</time></trkpt><trkpt lat="53.78981491010569" lon="87.2409765208283"><ele>235.0</ele><time>2026-04-30T10:26:50Z</time></trkpt><trkpt lat="53.78977882901543" lon="87.2410775703948"><ele>234.99999999999997</ele><time>2026-04-30T10:26:54Z</time></trkpt><trkpt lat="53.78972999892238" lon="87.24114597706195"><ele>235.0</ele><time>2026-04-30T10:26:56Z</time></trkpt><trkpt lat="53.78967565935619" lon="87.24123983238336"><ele>235.0</ele><time>2026-04-30T10:26:58Z</time></trkpt><trkpt lat="53.78962733776517" lon="87.24133703751586"><ele>234.99999999999997</ele><time>2026-04-30T10:27:00Z</time></trkpt><trkpt lat="53.78957280243162" lon="87.24144958145618"><ele>235.0</ele><time>2026-04-30T10:27:02Z</time></trkpt><trkpt lat="53.789511573049545" lon="87.24157481523294"><ele>235.0</ele><time>2026-04-30T10:27:04Z</time></trkpt><trkpt lat="53.78945779887008" lon="87.24168703240997"><ele>235.0</ele><time>2026-04-30T10:27:06Z</time></trkpt><trkpt lat="53.789402560171084" lon="87.24181699778227"><ele>234.99999999999997</ele><time>2026-04-30T10:27:08Z</time></trkpt><trkpt lat="53.789353632938564" lon="87.241935783199"><ele>235.0</ele><time>2026-04-30T10:27:10Z</time></trkpt><trkpt lat="53.78930549619027" lon="87.24205149234479"><ele>235.0</ele><time>2026-04-30T10:27:12Z</time></trkpt><trkpt lat="53.78925600541451" lon="87.24216386706334"><ele>235.0</ele><time>2026-04-30T10:27:14Z</time></trkpt><trkpt lat="53.789192947118195" lon="87.24230812089118"><ele>235.0</ele><time>2026-04-30T10:27:16Z</time></trkpt><trkpt lat="53.78912928249241" lon="87.24245388368013"><ele>235.0</ele><time>2026-04-30T10:27:18Z</time></trkpt><trkpt lat="53.78906851560273" lon="87.24259034047212"><ele>235.0</ele><time>2026-04-30T10:27:20Z</time></trkpt><trkpt lat="53.78900509970722" lon="87.24272259658767"><ele>235.0</ele><time>2026-04-30T10:27:22Z</time></trkpt><trkpt lat="53.78894713777508" lon="87.24286671432147"><ele>235.0</ele><time>2026-04-30T10:27:24Z</time></trkpt><trkpt lat="53.78888583769719" lon="87.24300387407989"><ele>235.0</ele><time>2026-04-30T10:27:26Z</time></trkpt><trkpt lat="53.7888262063774" lon="87.24314495253846"><ele>235.0</ele><time>2026-04-30T10:27:28Z</time></trkpt><trkpt lat="53.788757787397905" lon="87.24328997220493"><ele>235.0</ele><time>2026-04-30T10:27:30Z</time></trkpt><trkpt lat="53.788716720508184" lon="87.24337534211205"><ele>234.66666666666666</ele><time>2026-04-30T10:27:31Z</time></trkpt><trkpt lat="53.78867464116538" lon="87.24347164415532"><ele>234.33333333333331</ele><time>2026-04-30T10:27:32Z</time></trkpt><trkpt lat="53.788631748069534" lon="87.24356163075329"><ele>234.0</ele><time>2026-04-30T10:27:33Z</time></trkpt><trkpt lat="53.78859392673607" lon="87.24364899757049"><ele>233.66666666666669</ele><time>2026-04-30T10:27:34Z</time></trkpt><trkpt lat="53.7885103386213" lon="87.24368006275114"><ele>233.33333333333334</ele><time>2026-04-30T10:27:35Z</time></trkpt><trkpt lat="53.78846667559572" lon="87.2437737879336"><ele>233.0</ele><time>2026-04-30T10:27:36Z</time></trkpt><trkpt lat="53.78846931693214" lon="87.24393067074203"><ele>232.57142857142858</ele><time>2026-04-30T10:27:37Z</time></trkpt><trkpt lat="53.788427801222944" lon="87.24402811087572"><ele>232.1428571428571</ele><time>2026-04-30T10:27:38Z</time></trkpt><trkpt lat="53.78838007305972" lon="87.24413139081123"><ele>231.7142857142857</ele><time>2026-04-30T10:27:39Z</time></trkpt><trkpt lat="53.788333861453765" lon="87.24422138858682"><ele>231.28571428571428</ele><time>2026-04-30T10:27:40Z</time></trkpt><trkpt lat="53.78829458531861" lon="87.24431586481953"><ele>230.85714285714283</ele><time>2026-04-30T10:27:41Z</time></trkpt><trkpt lat="53.788254504434896" lon="87.24440742191453"><ele>230.4285714285714</ele><time>2026-04-30T10:27:42Z</time></trkpt><trkpt lat="53.788211949686406" lon="87.24449984398001"><ele>229.99999999999997</ele><time>2026-04-30T10:27:43Z</time></trkpt><trkpt lat="53.78817145970245" lon="87.24459169577915"><ele>229.99999999999997</ele><time>2026-04-30T10:27:44Z</time></trkpt><trkpt lat="53.7881323806657" lon="87.24468283277227"><ele>230.0</ele><time>2026-04-30T10:27:45Z</time></trkpt><trkpt lat="53.78809457303395" lon="87.24477406733278"><ele>229.99999999999997</ele><time>2026-04-30T10:27:46Z</time></trkpt><trkpt lat="53.788050018029" lon="87.2448753008341"><ele>229.99999999999997</ele><time>2026-04-30T10:27:47Z</time></trkpt><trkpt lat="53.78800403911704" lon="87.24497130446757"><ele>230.0</ele><time>2026-04-30T10:27:48Z</time></trkpt><trkpt lat="53.78796277721549" lon="87.24506349613746"><ele>229.99999999999997</ele><time>2026-04-30T10:27:49Z</time></trkpt><trkpt lat="53.78792237578635" lon="87.24515193863601"><ele>229.99999999999997</ele><time>2026-04-30T10:27:50Z</time></trkpt><trkpt lat="53.7878828286906" lon="87.24523643467843"><ele>230.0</ele><time>2026-04-30T10:27:51Z</time></trkpt><trkpt lat="53.78775418449311" lon="87.2452975492896"><ele>230.0</ele><time>2026-04-30T10:27:53Z</time></trkpt><trkpt lat="53.78768652389798" lon="87.2454447511731"><ele>230.0</ele><time>2026-04-30T10:27:55Z</time></trkpt><trkpt lat="53.78762589936853" lon="87.24558088530299"><ele>230.0</ele><time>2026-04-30T10:27:57Z</time></trkpt><trkpt lat="53.787572618756805" lon="87.24570165137203"><ele>230.0</ele><time>2026-04-30T10:27:59Z</time></trkpt><trkpt lat="53.78751952822453" lon="87.24582153524656"><ele>230.0</ele><time>2026-04-30T10:28:01Z</time></trkpt><trkpt lat="53.7874781517121" lon="87.24591493706163"><ele>230.0</ele><time>2026-04-30T10:28:03Z</time></trkpt><trkpt lat="53.78742659186197" lon="87.24603132637803"><ele>230.0</ele><time>2026-04-30T10:28:05Z</time></trkpt><trkpt lat="53.78736807134735" lon="87.24616224630294"><ele>230.0</ele><time>2026-04-30T10:28:07Z</time></trkpt><trkpt lat="53.78730293688346" lon="87.2463081766914"><ele>230.0</ele><time>2026-04-30T10:28:09Z</time></trkpt><trkpt lat="53.78724255830997" lon="87.24644528249429"><ele>230.4</ele><time>2026-04-30T10:28:11Z</time></trkpt><trkpt lat="53.78717690259009" lon="87.24659283290686"><ele>230.8</ele><time>2026-04-30T10:28:13Z</time></trkpt><trkpt lat="53.78710301303068" lon="87.24676677857778"><ele>231.2</ele><time>2026-04-30T10:28:15Z</time></trkpt><trkpt lat="53.787028449595276" lon="87.24694045679693"><ele>231.6</ele><time>2026-04-30T10:28:17Z</time></trkpt><trkpt lat="53.78699062177097" lon="87.24702839728394"><ele>232.0</ele><time>2026-04-30T10:28:18Z</time></trkpt><trkpt lat="53.786918676231764" lon="87.24719566318878"><ele>231.99999999999997</ele><time>2026-04-30T10:28:20Z</time></trkpt><trkpt lat="53.78687948903382" lon="87.24728689466411"><ele>232.0</ele><time>2026-04-30T10:28:21Z</time></trkpt><trkpt lat="53.786840919358454" lon="87.24737668849018"><ele>232.0</ele><time>2026-04-30T10:28:22Z</time></trkpt><trkpt lat="53.78680317586655" lon="87.24746455887926"><ele>232.0</ele><time>2026-04-30T10:28:23Z</time></trkpt><trkpt lat="53.78673160604336" lon="87.24763118014488"><ele>231.99999999999997</ele><time>2026-04-30T10:28:25Z</time></trkpt><trkpt lat="53.78669440638546" lon="87.24771778443942"><ele>232.0</ele><time>2026-04-30T10:28:26Z</time></trkpt><trkpt lat="53.78662482969955" lon="87.24787976549227"><ele>231.39999999999998</ele><time>2026-04-30T10:28:28Z</time></trkpt><trkpt lat="53.786557575727" lon="87.24803633905216"><ele>230.79999999999998</ele><time>2026-04-30T10:28:30Z</time></trkpt><trkpt lat="53.78649221752288" lon="87.24818838601303"><ele>230.2</ele><time>2026-04-30T10:28:32Z</time></trkpt><trkpt lat="53.78642275645489" lon="87.24834982736628"><ele>229.6</ele><time>2026-04-30T10:28:34Z</time></trkpt><trkpt lat="53.78638533303428" lon="87.24843680684516"><ele>229.0</ele><time>2026-04-30T10:28:35Z</time></trkpt><trkpt lat="53.786311356849886" lon="87.248608742225"><ele>228.99999999999997</ele><time>2026-04-30T10:28:37Z</time></trkpt><trkpt lat="53.78630950592672" lon="87.24873487981274"><ele>229.0</ele><time>2026-04-30T10:28:38Z</time></trkpt><trkpt lat="53.786271485959865" lon="87.24882041114017"><ele>229.0</ele><time>2026-04-30T10:28:39Z</time></trkpt><trkpt lat="53.78623387378775" lon="87.24890638487359"><ele>229.0</ele><time>2026-04-30T10:28:40Z</time></trkpt><trkpt lat="53.78616297831039" lon="87.24907976833396"><ele>228.99999999999997</ele><time>2026-04-30T10:28:42Z</time></trkpt><trkpt lat="53.78612557981014" lon="87.24916624412093"><ele>229.0</ele><time>2026-04-30T10:28:43Z</time></trkpt><trkpt lat="53.78605216324606" lon="87.24933373256745"><ele>228.0</ele><time>2026-04-30T10:28:45Z</time></trkpt><trkpt lat="53.785985018881995" lon="87.24949296850622"><ele>226.99999999999997</ele><time>2026-04-30T10:28:47Z</time></trkpt><trkpt lat="53.785925872687336" lon="87.24964372865692"><ele>225.99999999999997</ele><time>2026-04-30T10:28:49Z</time></trkpt><trkpt lat="53.785862980986224" lon="87.24978115350831"><ele>225.0</ele><time>2026-04-30T10:28:51Z</time></trkpt><trkpt lat="53.7857904021971" lon="87.24994867519376"><ele>224.0</ele><time>2026-04-30T10:28:53Z</time></trkpt><trkpt lat="53.785726611023065" lon="87.25009779044521"><ele>224.0</ele><time>2026-04-30T10:28:55Z</time></trkpt><trkpt lat="53.78566562512449" lon="87.25024092451515"><ele>223.99999999999997</ele><time>2026-04-30T10:28:57Z</time></trkpt><trkpt lat="53.78559735044615" lon="87.25038236991757"><ele>223.99999999999997</ele><time>2026-04-30T10:28:59Z</time></trkpt><trkpt lat="53.78553726013062" lon="87.25053562811074"><ele>224.0</ele><time>2026-04-30T10:29:01Z</time></trkpt><trkpt lat="53.78546819403396" lon="87.25068081179793"><ele>224.0</ele><time>2026-04-30T10:29:03Z</time></trkpt><trkpt lat="53.78540214626374" lon="87.25083720325456"><ele>223.5</ele><time>2026-04-30T10:29:05Z</time></trkpt><trkpt lat="53.78533055774908" lon="87.25099516092246"><ele>223.0</ele><time>2026-04-30T10:29:07Z</time></trkpt><trkpt lat="53.78526412565532" lon="87.2511504035097"><ele>222.5</ele><time>2026-04-30T10:29:09Z</time></trkpt><trkpt lat="53.78520469900936" lon="87.25132114762093"><ele>222.0</ele><time>2026-04-30T10:29:11Z</time></trkpt><trkpt lat="53.785134791297565" lon="87.25146403180791"><ele>221.8</ele><time>2026-04-30T10:29:13Z</time></trkpt><trkpt lat="53.78507130360207" lon="87.25160156008562"><ele>221.6</ele><time>2026-04-30T10:29:15Z</time></trkpt><trkpt lat="53.78501226881098" lon="87.2517328938881"><ele>221.40000000000003</ele><time>2026-04-30T10:29:17Z</time></trkpt><trkpt lat="53.78495140607184" lon="87.25184946447898"><ele>221.20000000000002</ele><time>2026-04-30T10:29:19Z</time></trkpt><trkpt lat="53.78489709116454" lon="87.25195454740647"><ele>221.0</ele><time>2026-04-30T10:29:21Z</time></trkpt><trkpt lat="53.78485316200616" lon="87.25207976570269"><ele>221.00000000000003</ele><time>2026-04-30T10:29:24Z</time></trkpt><trkpt lat="53.78480750911342" lon="87.25218882051159"><ele>221.0</ele><time>2026-04-30T10:29:27Z</time></trkpt><trkpt lat="53.78476909637147" lon="87.25231102187105"><ele>221.0</ele><time>2026-04-30T10:29:33Z</time></trkpt><trkpt lat="53.784719329086684" lon="87.25241057742596"><ele>221.0</ele><time>2026-04-30T10:29:35Z</time></trkpt><trkpt lat="53.78466425905215" lon="87.25253342413124"><ele>221.00000000000003</ele><time>2026-04-30T10:29:37Z</time></trkpt><trkpt lat="53.78460759610223" lon="87.25265646289519"><ele>221.0</ele><time>2026-04-30T10:29:39Z</time></trkpt><trkpt lat="53.78456103982535" lon="87.25276474871468"><ele>221.16666666666669</ele><time>2026-04-30T10:29:41Z</time></trkpt><trkpt lat="53.78452178352974" lon="87.2528742993135"><ele>221.33333333333334</ele><time>2026-04-30T10:30:05Z</time></trkpt><trkpt lat="53.78447403523818" lon="87.2529724220737"><ele>221.5</ele><time>2026-04-30T10:30:07Z</time></trkpt><trkpt lat="53.78442577670046" lon="87.25307843548607"><ele>221.66666666666669</ele><time>2026-04-30T10:30:09Z</time></trkpt><trkpt lat="53.78437617988281" lon="87.25318006342613"><ele>221.83333333333334</ele><time>2026-04-30T10:30:11Z</time></trkpt><trkpt lat="53.7843262797327" lon="87.2533048242945"><ele>222.0</ele><time>2026-04-30T10:30:13Z</time></trkpt><trkpt lat="53.78427398993532" lon="87.25344140964681"><ele>221.75</ele><time>2026-04-30T10:30:15Z</time></trkpt><trkpt lat="53.78421184970368" lon="87.25358561071363"><ele>221.5</ele><time>2026-04-30T10:30:17Z</time></trkpt><trkpt lat="53.784071286756756" lon="87.25365208336993"><ele>221.25</ele><time>2026-04-30T10:30:19Z</time></trkpt><trkpt lat="53.784111530298844" lon="87.25383322050001"><ele>221.0</ele><time>2026-04-30T10:30:20Z</time></trkpt><trkpt lat="53.78404549593103" lon="87.25398785981763"><ele>221.0</ele><time>2026-04-30T10:30:22Z</time></trkpt><trkpt lat="53.78397900243185" lon="87.25414553251557"><ele>221.00000000000003</ele><time>2026-04-30T10:30:24Z</time></trkpt><trkpt lat="53.783910428795366" lon="87.25430437559699"><ele>221.00000000000003</ele><time>2026-04-30T10:30:26Z</time></trkpt><trkpt lat="53.78384641843868" lon="87.2544524235769"><ele>221.0</ele><time>2026-04-30T10:30:28Z</time></trkpt><trkpt lat="53.78378725330432" lon="87.2546074851235"><ele>221.0</ele><time>2026-04-30T10:30:30Z</time></trkpt><trkpt lat="53.78372526041478" lon="87.25475763827437"><ele>221.0</ele><time>2026-04-30T10:30:32Z</time></trkpt><trkpt lat="53.78366190503617" lon="87.25491766270922"><ele>221.0</ele><time>2026-04-30T10:30:34Z</time></trkpt><trkpt lat="53.78354865734675" lon="87.2549077317895"><ele>221.0</ele><time>2026-04-30T10:30:35Z</time></trkpt><trkpt lat="53.78356874191779" lon="87.25514609775468"><ele>221.0</ele><time>2026-04-30T10:30:37Z</time></trkpt><trkpt lat="53.783507235221066" lon="87.25529565846335"><ele>221.0</ele><time>2026-04-30T10:30:39Z</time></trkpt><trkpt lat="53.78344786835951" lon="87.25544848941978"><ele>221.00000000000003</ele><time>2026-04-30T10:30:41Z</time></trkpt><trkpt lat="53.78331904969595" lon="87.25551469730541"><ele>221.00000000000003</ele><time>2026-04-30T10:30:43Z</time></trkpt><trkpt lat="53.783267454313645" lon="87.25565195824556"><ele>221.0</ele><time>2026-04-30T10:30:45Z</time></trkpt><trkpt lat="53.78331135778096" lon="87.2557901134002"><ele>221.0</ele><time>2026-04-30T10:30:46Z</time></trkpt><trkpt lat="53.783259124280065" lon="87.25591029166847"><ele>221.00000000000003</ele><time>2026-04-30T10:30:48Z</time></trkpt><trkpt lat="53.78319844527143" lon="87.25602006998957"><ele>221.0</ele><time>2026-04-30T10:30:50Z</time></trkpt><trkpt lat="53.7831446829447" lon="87.2561222990411"><ele>221.0</ele><time>2026-04-30T10:30:52Z</time></trkpt><trkpt lat="53.78310797986966" lon="87.2562624931791"><ele>221.0</ele><time>2026-04-30T10:30:55Z</time></trkpt><trkpt lat="53.783106669344384" lon="87.25638721826836"><ele>221.00000000000003</ele><time>2026-04-30T10:31:01Z</time></trkpt><trkpt lat="53.7831315456133" lon="87.25649474687414"><ele>221.0</ele><time>2026-04-30T10:31:07Z</time></trkpt><trkpt lat="53.78308743952893" lon="87.25657718757168"><ele>221.00000000000003</ele><time>2026-04-30T10:31:13Z</time></trkpt><trkpt lat="53.78301453819412" lon="87.25669711652151"><ele>221.0</ele><time>2026-04-30T10:32:11Z</time></trkpt><trkpt lat="53.78297336701535" lon="87.25678737470244"><ele>221.0</ele><time>2026-04-30T10:32:15Z</time></trkpt><trkpt lat="53.78290580484904" lon="87.25679039731567"><ele>221.0</ele><time>2026-04-30T10:32:20Z</time></trkpt><trkpt lat="53.78285818605097" lon="87.25686468199034"><ele>221.00000000000003</ele><time>2026-04-30T10:32:23Z</time></trkpt><trkpt lat="53.78281972097541" lon="87.25698104440714"><ele>221.0</ele><time>2026-04-30T10:32:26Z</time></trkpt><trkpt lat="53.78275790428685" lon="87.25710595552044"><ele>221.00000000000003</ele><time>2026-04-30T10:32:29Z</time></trkpt><trkpt lat="53.78271590293837" lon="87.25724157216553"><ele>221.0</ele><time>2026-04-30T10:32:31Z</time></trkpt><trkpt lat="53.78266064615467" lon="87.25731757867516"><ele>221.0</ele><time>2026-04-30T10:32:32Z</time></trkpt><trkpt lat="53.78261583635317" lon="87.25743889089979"><ele>221.0</ele><time>2026-04-30T10:32:34Z</time></trkpt><trkpt lat="53.7825805792708" lon="87.25756951561054"><ele>221.00000000000003</ele><time>2026-04-30T10:32:36Z</time></trkpt><trkpt lat="53.78254190693367" lon="87.25766885854584"><ele>221.0</ele><time>2026-04-30T10:32:38Z</time></trkpt><trkpt lat="53.78250202071977" lon="87.25775133083656"><ele>221.00000000000003</ele><time>2026-04-30T10:32:40Z</time></trkpt><trkpt lat="53.78244999783944" lon="87.25787015404869"><ele>221.0</ele><time>2026-04-30T10:32:43Z</time></trkpt><trkpt lat="53.782390673761526" lon="87.25796297575366"><ele>221.0</ele><time>2026-04-30T10:32:46Z</time></trkpt><trkpt lat="53.78235039006681" lon="87.25807557702889"><ele>221.0</ele><time>2026-04-30T10:32:49Z</time></trkpt><trkpt lat="53.78232779642674" lon="87.25820372263954"><ele>221.00000000000003</ele><time>2026-04-30T10:32:51Z</time></trkpt><trkpt lat="53.78227633354872" lon="87.25831447328073"><ele>221.0</ele><time>2026-04-30T10:32:53Z</time></trkpt><trkpt lat="53.78222287316904" lon="87.2584345992839"><ele>221.33333333333334</ele><time>2026-04-30T10:32:55Z</time></trkpt><trkpt lat="53.782176077505774" lon="87.25854379090461"><ele>221.66666666666669</ele><time>2026-04-30T10:32:57Z</time></trkpt><trkpt lat="53.782121615774344" lon="87.25865913245103"><ele>222.0</ele><time>2026-04-30T10:32:59Z</time></trkpt><trkpt lat="53.782075475259106" lon="87.25873704821139"><ele>222.33333333333331</ele><time>2026-04-30T10:33:01Z</time></trkpt><trkpt lat="53.782024332496945" lon="87.25885475888815"><ele>222.66666666666666</ele><time>2026-04-30T10:33:04Z</time></trkpt><trkpt lat="53.7819740274576" lon="87.25896967817822"><ele>223.0</ele><time>2026-04-30T10:33:06Z</time></trkpt><trkpt lat="53.78191670063388" lon="87.25908840060747"><ele>223.0</ele><time>2026-04-30T10:33:08Z</time></trkpt><trkpt lat="53.7818622291903" lon="87.25920640382722"><ele>223.0</ele><time>2026-04-30T10:33:10Z</time></trkpt><trkpt lat="53.7818131404701" lon="87.25932477422431"><ele>223.0</ele><time>2026-04-30T10:33:12Z</time></trkpt><trkpt lat="53.78175895486506" lon="87.2594634858895"><ele>223.0</ele><time>2026-04-30T10:33:14Z</time></trkpt><trkpt lat="53.78171673861932" lon="87.25959336448913"><ele>223.0</ele><time>2026-04-30T10:33:16Z</time></trkpt><trkpt lat="53.78166614957648" lon="87.25972901954681"><ele>222.49999999999997</ele><time>2026-04-30T10:33:18Z</time></trkpt><trkpt lat="53.78161414117008" lon="87.25983651452843"><ele>222.0</ele><time>2026-04-30T10:33:20Z</time></trkpt><trkpt lat="53.781564979398325" lon="87.25995054404488"><ele>221.5</ele><time>2026-04-30T10:33:22Z</time></trkpt><trkpt lat="53.781511112887486" lon="87.260049898005"><ele>221.0</ele><time>2026-04-30T10:33:24Z</time></trkpt><trkpt lat="53.78145989774772" lon="87.26015603610487"><ele>220.49999999999997</ele><time>2026-04-30T10:33:26Z</time></trkpt><trkpt lat="53.78140109955064" lon="87.26027043621534"><ele>220.0</ele><time>2026-04-30T10:33:28Z</time></trkpt><trkpt lat="53.78134337981619" lon="87.26037118032801"><ele>219.99999999999997</ele><time>2026-04-30T10:33:30Z</time></trkpt><trkpt lat="53.7812961238457" lon="87.26045813154667"><ele>220.0</ele><time>2026-04-30T10:33:32Z</time></trkpt><trkpt lat="53.781238243243266" lon="87.26051324157848"><ele>220.0</ele><time>2026-04-30T10:33:34Z</time></trkpt><trkpt lat="53.78117070799516" lon="87.2605266618854"><ele>220.0</ele><time>2026-04-30T10:33:37Z</time></trkpt><trkpt lat="53.78110025253045" lon="87.26055848884675"><ele>219.99999999999997</ele><time>2026-04-30T10:33:40Z</time></trkpt><trkpt lat="53.781042050106244" lon="87.26069323075059"><ele>220.0</ele><time>2026-04-30T10:33:43Z</time></trkpt><trkpt lat="53.78099716861918" lon="87.26079787785876"><ele>219.49999999999997</ele><time>2026-04-30T10:33:45Z</time></trkpt><trkpt lat="53.780945203839025" lon="87.26090858990003"><ele>219.0</ele><time>2026-04-30T10:33:47Z</time></trkpt><trkpt lat="53.78090288239643" lon="87.26101472548658"><ele>218.5</ele><time>2026-04-30T10:33:49Z</time></trkpt><trkpt lat="53.78086159670725" lon="87.26109879845617"><ele>218.0</ele><time>2026-04-30T10:33:51Z</time></trkpt><trkpt lat="53.78080807887715" lon="87.26121086100099"><ele>217.49999999999997</ele><time>2026-04-30T10:33:54Z</time></trkpt><trkpt lat="53.78075486296455" lon="87.26132545308792"><ele>217.0</ele><time>2026-04-30T10:33:57Z</time></trkpt><trkpt lat="53.7807137490751" lon="87.26141385070791"><ele>217.0</ele><time>2026-04-30T10:33:59Z</time></trkpt><trkpt lat="53.780671690995966" lon="87.2615029047592"><ele>217.0</ele><time>2026-04-30T10:34:01Z</time></trkpt><trkpt lat="53.780629814657566" lon="87.26159279146768"><ele>217.0</ele><time>2026-04-30T10:34:03Z</time></trkpt><trkpt lat="53.78058797506791" lon="87.2616806884877"><ele>217.0</ele><time>2026-04-30T10:34:05Z</time></trkpt><trkpt lat="53.78053140420601" lon="87.26180957189368"><ele>217.0</ele><time>2026-04-30T10:34:08Z</time></trkpt><trkpt lat="53.78049188249678" lon="87.26189789180003"><ele>217.0</ele><time>2026-04-30T10:34:10Z</time></trkpt><trkpt lat="53.7804460409008" lon="87.26199600029697"><ele>217.0</ele><time>2026-04-30T10:34:12Z</time></trkpt><trkpt lat="53.78040207518338" lon="87.26209529952449"><ele>216.99999999999997</ele><time>2026-04-30T10:34:14Z</time></trkpt><trkpt lat="53.78035939341941" lon="87.262199722364"><ele>217.0</ele><time>2026-04-30T10:34:16Z</time></trkpt><trkpt lat="53.780304161939306" lon="87.2622849452967"><ele>217.0</ele><time>2026-04-30T10:34:18Z</time></trkpt><trkpt lat="53.780270985596964" lon="87.26239616256848"><ele>217.0</ele><time>2026-04-30T10:34:20Z</time></trkpt><trkpt lat="53.78022097864058" lon="87.26249014559963"><ele>216.99999999999997</ele><time>2026-04-30T10:34:22Z</time></trkpt><trkpt lat="53.78017240321049" lon="87.26260448425457"><ele>217.0</ele><time>2026-04-30T10:34:24Z</time></trkpt><trkpt lat="53.78011862618789" lon="87.26272126862295"><ele>216.99999999999997</ele><time>2026-04-30T10:34:26Z</time></trkpt><trkpt lat="53.780066458830376" lon="87.26284950925262"><ele>217.0</ele><time>2026-04-30T10:34:28Z</time></trkpt><trkpt lat="53.78001257900896" lon="87.26297144532809"><ele>217.0</ele><time>2026-04-30T10:34:30Z</time></trkpt><trkpt lat="53.77996298330616" lon="87.26307628985339"><ele>217.0</ele><time>2026-04-30T10:34:32Z</time></trkpt><trkpt lat="53.779925690884795" lon="87.26316738723537"><ele>216.99999999999997</ele><time>2026-04-30T10:34:34Z</time></trkpt><trkpt lat="53.779872590571706" lon="87.26328763411756"><ele>217.0</ele><time>2026-04-30T10:34:37Z</time></trkpt><trkpt lat="53.77982697086732" lon="87.26341928113128"><ele>216.99999999999997</ele><time>2026-04-30T10:34:40Z</time></trkpt><trkpt lat="53.77977975326623" lon="87.26354329671882"><ele>217.0</ele><time>2026-04-30T10:34:43Z</time></trkpt><trkpt lat="53.77974354315334" lon="87.26363294849925"><ele>217.0</ele><time>2026-04-30T10:34:46Z</time></trkpt><trkpt lat="53.77970139942068" lon="87.26373588328478"><ele>217.0</ele><time>2026-04-30T10:34:50Z</time></trkpt><trkpt lat="53.779656501696394" lon="87.26384004075261"><ele>216.99999999999997</ele><time>2026-04-30T10:34:53Z</time></trkpt><trkpt lat="53.779596232921435" lon="87.26395487228142"><ele>217.0</ele><time>2026-04-30T10:34:57Z</time></trkpt><trkpt lat="53.77955275810075" lon="87.2640335875919"><ele>217.16666666666666</ele><time>2026-04-30T10:35:05Z</time></trkpt><trkpt lat="53.77949475881116" lon="87.26414982141938"><ele>217.33333333333331</ele><time>2026-04-30T10:35:10Z</time></trkpt><trkpt lat="53.779437321896225" lon="87.26428544331034"><ele>217.5</ele><time>2026-04-30T10:35:13Z</time></trkpt><trkpt lat="53.779381338680444" lon="87.26437988199385"><ele>217.66666666666669</ele><time>2026-04-30T10:35:15Z</time></trkpt><trkpt lat="53.77932960907065" lon="87.26450121562279"><ele>217.83333333333334</ele><time>2026-04-30T10:35:17Z</time></trkpt><trkpt lat="53.77927219042461" lon="87.26462551356111"><ele>218.0</ele><time>2026-04-30T10:35:19Z</time></trkpt><trkpt lat="53.77921822538479" lon="87.26475115416919"><ele>217.66666666666669</ele><time>2026-04-30T10:35:21Z</time></trkpt><trkpt lat="53.779165421080016" lon="87.26486708079726"><ele>217.33333333333334</ele><time>2026-04-30T10:35:23Z</time></trkpt><trkpt lat="53.7791136585493" lon="87.26497736533405"><ele>217.0</ele><time>2026-04-30T10:35:25Z</time></trkpt><trkpt lat="53.77907102970385" lon="87.26507593477349"><ele>216.66666666666669</ele><time>2026-04-30T10:35:27Z</time></trkpt><trkpt lat="53.77901471724089" lon="87.26519394106809"><ele>216.33333333333334</ele><time>2026-04-30T10:35:30Z</time></trkpt><trkpt lat="53.778963774225396" lon="87.26529427840332"><ele>216.0</ele><time>2026-04-30T10:35:33Z</time></trkpt><trkpt lat="53.77889539874557" lon="87.2654398269372"><ele>216.0</ele><time>2026-04-30T10:35:36Z</time></trkpt><trkpt lat="53.77882854568666" lon="87.2655609800451"><ele>216.00000000000003</ele><time>2026-04-30T10:35:38Z</time></trkpt><trkpt lat="53.7787625454708" lon="87.26567416784447"><ele>216.00000000000003</ele><time>2026-04-30T10:35:40Z</time></trkpt><trkpt lat="53.778683786088514" lon="87.26579309321113"><ele>216.0</ele><time>2026-04-30T10:35:42Z</time></trkpt><trkpt lat="53.77860421867994" lon="87.26589336523396"><ele>216.0</ele><time>2026-04-30T10:35:44Z</time></trkpt><trkpt lat="53.778531743497496" lon="87.2659755511472"><ele>215.83333333333334</ele><time>2026-04-30T10:35:46Z</time></trkpt><trkpt lat="53.77846461140528" lon="87.26605587032887"><ele>215.66666666666669</ele><time>2026-04-30T10:35:48Z</time></trkpt><trkpt lat="53.77838650164647" lon="87.26612554413165"><ele>215.5</ele><time>2026-04-30T10:35:50Z</time></trkpt><trkpt lat="53.77830813650921" lon="87.26619339477759"><ele>215.33333333333334</ele><time>2026-04-30T10:35:52Z</time></trkpt><trkpt lat="53.77823433122126" lon="87.26624951622065"><ele>215.16666666666669</ele><time>2026-04-30T10:35:54Z</time></trkpt><trkpt lat="53.77815752854724" lon="87.26631009805598"><ele>215.0</ele><time>2026-04-30T10:35:56Z</time></trkpt><trkpt lat="53.77809934930404" lon="87.26637779547609"><ele>215.0</ele><time>2026-04-30T10:35:58Z</time></trkpt><trkpt lat="53.77802827691167" lon="87.2664146747018"><ele>215.0</ele><time>2026-04-30T10:36:00Z</time></trkpt><trkpt lat="53.77795610938533" lon="87.26645308697744"><ele>215.0</ele><time>2026-04-30T10:36:02Z</time></trkpt><trkpt lat="53.77789479327907" lon="87.26650198049487"><ele>215.0</ele><time>2026-04-30T10:36:04Z</time></trkpt><trkpt lat="53.77783188912995" lon="87.26654590665149"><ele>215.0</ele><time>2026-04-30T10:36:06Z</time></trkpt><trkpt lat="53.77777090224488" lon="87.26664985913081"><ele>215.0</ele><time>2026-04-30T10:36:09Z</time></trkpt><trkpt lat="53.777800295397974" lon="87.26676831702467"><ele>215.0</ele><time>2026-04-30T10:36:11Z</time></trkpt><trkpt lat="53.77783079993699" lon="87.2668913001581"><ele>215.0</ele><time>2026-04-30T10:36:14Z</time></trkpt><trkpt lat="53.7778011481543" lon="87.26699514730936"><ele>215.0</ele><time>2026-04-30T10:36:18Z</time></trkpt><trkpt lat="53.777738019429464" lon="87.26704393570778"><ele>215.0</ele><time>2026-04-30T10:36:23Z</time></trkpt><trkpt lat="53.7776801572992" lon="87.26708808077508"><ele>215.0</ele><time>2026-04-30T10:36:59Z</time></trkpt><trkpt lat="53.77762609447666" lon="87.26714273659897"><ele>215.0</ele><time>2026-04-30T10:37:01Z</time></trkpt><trkpt lat="53.777569165307405" lon="87.26723878109159"><ele>215.0</ele><time>2026-04-30T10:37:04Z</time></trkpt><trkpt lat="53.777625799158066" lon="87.26733791674094"><ele>215.0</ele><time>2026-04-30T10:37:09Z</time></trkpt><trkpt lat="53.7776519800378" lon="87.26744983634588"><ele>215.16666666666669</ele><time>2026-04-30T10:37:11Z</time></trkpt><trkpt lat="53.77770592979675" lon="87.26753337819447"><ele>215.33333333333334</ele><time>2026-04-30T10:37:13Z</time></trkpt><trkpt lat="53.77776612030295" lon="87.26762211960951"><ele>215.5</ele><time>2026-04-30T10:37:15Z</time></trkpt><trkpt lat="53.77781630272808" lon="87.26772985721793"><ele>215.66666666666669</ele><time>2026-04-30T10:37:17Z</time></trkpt><trkpt lat="53.77788919963925" lon="87.26781709886961"><ele>215.83333333333334</ele><time>2026-04-30T10:37:19Z</time></trkpt><trkpt lat="53.77795440685115" lon="87.26793460710356"><ele>216.0</ele><time>2026-04-30T10:37:21Z</time></trkpt><trkpt lat="53.77801129575128" lon="87.26805737688714"><ele>216.20000000000002</ele><time>2026-04-30T10:37:23Z</time></trkpt><trkpt lat="53.77807677286761" lon="87.2681743915095"><ele>216.40000000000003</ele><time>2026-04-30T10:37:25Z</time></trkpt><trkpt lat="53.778142333182885" lon="87.268300280412"><ele>216.6</ele><time>2026-04-30T10:37:27Z</time></trkpt><trkpt lat="53.778206379903814" lon="87.26842503144145"><ele>216.8</ele><time>2026-04-30T10:37:29Z</time></trkpt><trkpt lat="53.778275166582006" lon="87.26853634354643"><ele>217.0</ele><time>2026-04-30T10:37:31Z</time></trkpt><trkpt lat="53.77834097416985" lon="87.26864170823472"><ele>216.99999999999997</ele><time>2026-04-30T10:37:33Z</time></trkpt><trkpt lat="53.778396640894215" lon="87.2687471299451"><ele>217.0</ele><time>2026-04-30T10:37:35Z</time></trkpt><trkpt lat="53.77844819768943" lon="87.26885710280894"><ele>217.0</ele><time>2026-04-30T10:37:37Z</time></trkpt><trkpt lat="53.778498726946644" lon="87.26895875035218"><ele>217.0</ele><time>2026-04-30T10:37:39Z</time></trkpt><trkpt lat="53.77854259897816" lon="87.26906076668283"><ele>216.99999999999997</ele><time>2026-04-30T10:37:41Z</time></trkpt><trkpt lat="53.77858193203589" lon="87.26916739054462"><ele>217.0</ele><time>2026-04-30T10:37:44Z</time></trkpt><trkpt lat="53.77855178642684" lon="87.26927065865388"><ele>217.0</ele><time>2026-04-30T10:37:53Z</time></trkpt><trkpt lat="53.77848876217075" lon="87.26928123537012"><ele>217.0</ele><time>2026-04-30T10:37:58Z</time></trkpt><trkpt lat="53.77853809601701" lon="87.26920422825879"><ele>217.0</ele><time>2026-04-30T10:38:34Z</time></trkpt><trkpt lat="53.77860322943824" lon="87.26918804346187"><ele>217.0</ele><time>2026-04-30T10:38:50Z</time></trkpt><trkpt lat="53.77867696101306" lon="87.26923475993515"><ele>217.0</ele><time>2026-04-30T10:39:29Z</time></trkpt><trkpt lat="53.77872966938053" lon="87.26929409089296"><ele>217.0</ele><time>2026-04-30T10:39:31Z</time></trkpt><trkpt lat="53.7788027672296" lon="87.26937521325962"><ele>217.0</ele><time>2026-04-30T10:39:34Z</time></trkpt><trkpt lat="53.77885855558409" lon="87.26946076826465"><ele>217.16666666666666</ele><time>2026-04-30T10:39:37Z</time></trkpt><trkpt lat="53.778911595141565" lon="87.26952231540261"><ele>217.33333333333331</ele><time>2026-04-30T10:39:39Z</time></trkpt><trkpt lat="53.778966985005056" lon="87.26958413075612"><ele>217.5</ele><time>2026-04-30T10:39:41Z</time></trkpt><trkpt lat="53.779045377121406" lon="87.26968000507927"><ele>217.66666666666669</ele><time>2026-04-30T10:39:43Z</time></trkpt><trkpt lat="53.77913980963183" lon="87.26980283125442"><ele>217.83333333333334</ele><time>2026-04-30T10:39:45Z</time></trkpt><trkpt lat="53.77919081846119" lon="87.26986870096422"><ele>218.0</ele><time>2026-04-30T10:39:46Z</time></trkpt><trkpt lat="53.77924801081722" lon="87.26994313431344"><ele>218.0</ele><time>2026-04-30T10:39:47Z</time></trkpt><trkpt lat="53.779298359960876" lon="87.27001576620742"><ele>218.0</ele><time>2026-04-30T10:39:48Z</time></trkpt><trkpt lat="53.77939375401732" lon="87.27014352081841"><ele>218.0</ele><time>2026-04-30T10:39:50Z</time></trkpt><trkpt lat="53.77949075518193" lon="87.27027474037752"><ele>218.0</ele><time>2026-04-30T10:39:52Z</time></trkpt><trkpt lat="53.779577474234614" lon="87.2704000734072"><ele>218.0</ele><time>2026-04-30T10:39:54Z</time></trkpt><trkpt lat="53.7796628489225" lon="87.27052313082875"><ele>217.60000000000002</ele><time>2026-04-30T10:39:56Z</time></trkpt><trkpt lat="53.779765526392374" lon="87.27062851722027"><ele>217.20000000000002</ele><time>2026-04-30T10:39:58Z</time></trkpt><trkpt lat="53.77985279111377" lon="87.27078196208151"><ele>216.8</ele><time>2026-04-30T10:40:00Z</time></trkpt><trkpt lat="53.779900263752054" lon="87.27085358491163"><ele>216.4</ele><time>2026-04-30T10:40:01Z</time></trkpt><trkpt lat="53.77995806365508" lon="87.27090074437224"><ele>216.0</ele><time>2026-04-30T10:40:02Z</time></trkpt><trkpt lat="53.78005430548128" lon="87.27103917657077"><ele>216.0</ele><time>2026-04-30T10:40:04Z</time></trkpt><trkpt lat="53.780106581464885" lon="87.27111436922546"><ele>216.0</ele><time>2026-04-30T10:40:05Z</time></trkpt><trkpt lat="53.78016112719799" lon="87.27119331444447"><ele>216.0</ele><time>2026-04-30T10:40:06Z</time></trkpt><trkpt lat="53.78021777381876" lon="87.27127537595302"><ele>216.0</ele><time>2026-04-30T10:40:07Z</time></trkpt><trkpt lat="53.78027449359203" lon="87.27136561434446"><ele>216.0</ele><time>2026-04-30T10:40:08Z</time></trkpt><trkpt lat="53.78032906086276" lon="87.27146062709829"><ele>216.0</ele><time>2026-04-30T10:40:09Z</time></trkpt><trkpt lat="53.78038507949621" lon="87.27156016753885"><ele>215.16666666666666</ele><time>2026-04-30T10:40:10Z</time></trkpt><trkpt lat="53.780442324650956" lon="87.271663632528"><ele>214.33333333333331</ele><time>2026-04-30T10:40:11Z</time></trkpt><trkpt lat="53.78049636508244" lon="87.27177205874213"><ele>213.5</ele><time>2026-04-30T10:40:12Z</time></trkpt><trkpt lat="53.780546817322076" lon="87.2718780561673"><ele>212.66666666666666</ele><time>2026-04-30T10:40:13Z</time></trkpt><trkpt lat="53.7805923504723" lon="87.27198120324093"><ele>211.83333333333331</ele><time>2026-04-30T10:40:14Z</time></trkpt><trkpt lat="53.78063906409494" lon="87.27208815797802"><ele>211.0</ele><time>2026-04-30T10:40:15Z</time></trkpt><trkpt lat="53.78067902310507" lon="87.27219507718648"><ele>210.49999999999997</ele><time>2026-04-30T10:40:16Z</time></trkpt><trkpt lat="53.780718083048775" lon="87.27229959080098"><ele>210.0</ele><time>2026-04-30T10:40:17Z</time></trkpt><trkpt lat="53.780754024302226" lon="87.27241676935624"><ele>209.5</ele><time>2026-04-30T10:40:18Z</time></trkpt><trkpt lat="53.78078715301983" lon="87.27253740808455"><ele>209.0</ele><time>2026-04-30T10:40:19Z</time></trkpt><trkpt lat="53.780816664993516" lon="87.27265157825757"><ele>208.49999999999997</ele><time>2026-04-30T10:40:20Z</time></trkpt><trkpt lat="53.780846544498516" lon="87.27276841166392"><ele>208.0</ele><time>2026-04-30T10:40:21Z</time></trkpt><trkpt lat="53.78087369434545" lon="87.27287998973782"><ele>208.0</ele><time>2026-04-30T10:40:22Z</time></trkpt><trkpt lat="53.78090028915638" lon="87.27298928667705"><ele>208.0</ele><time>2026-04-30T10:40:23Z</time></trkpt><trkpt lat="53.78092421614256" lon="87.27309505571237"><ele>208.0</ele><time>2026-04-30T10:40:24Z</time></trkpt><trkpt lat="53.78095391757573" lon="87.27327790740867"><ele>208.0</ele><time>2026-04-30T10:40:26Z</time></trkpt><trkpt lat="53.78098423711758" lon="87.27350639744154"><ele>208.0</ele><time>2026-04-30T10:40:28Z</time></trkpt><trkpt lat="53.78099426087683" lon="87.27362389218453"><ele>207.85714285714286</ele><time>2026-04-30T10:40:29Z</time></trkpt><trkpt lat="53.781004671916364" lon="87.27374597171166"><ele>207.71428571428572</ele><time>2026-04-30T10:40:30Z</time></trkpt><trkpt lat="53.781010413826706" lon="87.27387233588567"><ele>207.57142857142858</ele><time>2026-04-30T10:40:31Z</time></trkpt><trkpt lat="53.78101579183739" lon="87.27399118085408"><ele>207.42857142857144</ele><time>2026-04-30T10:40:32Z</time></trkpt><trkpt lat="53.78102069964482" lon="87.27410484628321"><ele>207.28571428571428</ele><time>2026-04-30T10:40:33Z</time></trkpt><trkpt lat="53.781025053596814" lon="87.27422021822497"><ele>207.14285714285717</ele><time>2026-04-30T10:40:34Z</time></trkpt><trkpt lat="53.78102902367683" lon="87.27433752363848"><ele>207.0</ele><time>2026-04-30T10:40:35Z</time></trkpt><trkpt lat="53.78103272055981" lon="87.2744518189123"><ele>207.00000000000003</ele><time>2026-04-30T10:40:36Z</time></trkpt><trkpt lat="53.78103479499669" lon="87.27457417546076"><ele>207.0</ele><time>2026-04-30T10:40:37Z</time></trkpt><trkpt lat="53.78103577206628" lon="87.27469049068925"><ele>207.0</ele><time>2026-04-30T10:40:38Z</time></trkpt><trkpt lat="53.78103719221589" lon="87.27480543113036"><ele>207.0</ele><time>2026-04-30T10:40:39Z</time></trkpt><trkpt lat="53.78103759149218" lon="87.27492400582558"><ele>207.0</ele><time>2026-04-30T10:40:40Z</time></trkpt><trkpt lat="53.78103559315983" lon="87.27503573527747"><ele>207.00000000000003</ele><time>2026-04-30T10:40:41Z</time></trkpt><trkpt lat="53.78103362770634" lon="87.27514312044478"><ele>207.0</ele><time>2026-04-30T10:40:42Z</time></trkpt><trkpt lat="53.78103005224911" lon="87.27535403512387"><ele>206.83333333333334</ele><time>2026-04-30T10:40:44Z</time></trkpt><trkpt lat="53.781026217867186" lon="87.27557317877492"><ele>206.66666666666669</ele><time>2026-04-30T10:40:46Z</time></trkpt><trkpt lat="53.781024538206125" lon="87.27568980619158"><ele>206.5</ele><time>2026-04-30T10:40:47Z</time></trkpt><trkpt lat="53.78102237582394" lon="87.2758060648445"><ele>206.33333333333334</ele><time>2026-04-30T10:40:48Z</time></trkpt><trkpt lat="53.7810201659479" lon="87.27592288780093"><ele>206.16666666666669</ele><time>2026-04-30T10:40:49Z</time></trkpt><trkpt lat="53.78101844424892" lon="87.27603259198243"><ele>206.0</ele><time>2026-04-30T10:40:50Z</time></trkpt><trkpt lat="53.78101658536596" lon="87.27614744912927"><ele>205.60000000000002</ele><time>2026-04-30T10:40:51Z</time></trkpt><trkpt lat="53.78101476078951" lon="87.27625715936493"><ele>205.2</ele><time>2026-04-30T10:40:52Z</time></trkpt><trkpt lat="53.78101108845951" lon="87.2764582270926"><ele>204.8</ele><time>2026-04-30T10:40:54Z</time></trkpt><trkpt lat="53.78100811746172" lon="87.2766514904151"><ele>204.39999999999998</ele><time>2026-04-30T10:40:56Z</time></trkpt><trkpt lat="53.78100470180164" lon="87.27685579224314"><ele>204.0</ele><time>2026-04-30T10:40:58Z</time></trkpt><trkpt lat="53.78100160414906" lon="87.27705979483616"><ele>204.0</ele><time>2026-04-30T10:41:00Z</time></trkpt><trkpt lat="53.78099847432761" lon="87.27726236589854"><ele>204.0</ele><time>2026-04-30T10:41:02Z</time></trkpt><trkpt lat="53.78099528923197" lon="87.27745970727167"><ele>204.0</ele><time>2026-04-30T10:41:04Z</time></trkpt><trkpt lat="53.78094731976111" lon="87.27754883549146"><ele>204.0</ele><time>2026-04-30T10:41:05Z</time></trkpt><trkpt lat="53.780946146075514" lon="87.27772290525468"><ele>204.0</ele><time>2026-04-30T10:41:07Z</time></trkpt><trkpt lat="53.78094891202687" lon="87.27790434942"><ele>204.39999999999998</ele><time>2026-04-30T10:41:09Z</time></trkpt><trkpt lat="53.780945712940145" lon="87.27808842231474"><ele>204.8</ele><time>2026-04-30T10:41:11Z</time></trkpt><trkpt lat="53.78094639768937" lon="87.27827167345104"><ele>205.2</ele><time>2026-04-30T10:41:13Z</time></trkpt><trkpt lat="53.780942889282805" lon="87.27845020016873"><ele>205.60000000000002</ele><time>2026-04-30T10:41:15Z</time></trkpt><trkpt lat="53.78093523657766" lon="87.27863039024149"><ele>206.0</ele><time>2026-04-30T10:41:17Z</time></trkpt><trkpt lat="53.78089805503715" lon="87.27879206538637"><ele>205.66666666666669</ele><time>2026-04-30T10:41:19Z</time></trkpt><trkpt lat="53.78085447095413" lon="87.27893913657456"><ele>205.33333333333334</ele><time>2026-04-30T10:41:21Z</time></trkpt><trkpt lat="53.780803166326024" lon="87.27904630805746"><ele>205.0</ele><time>2026-04-30T10:41:23Z</time></trkpt><trkpt lat="53.78075217562664" lon="87.27912962553856"><ele>204.66666666666669</ele><time>2026-04-30T10:41:25Z</time></trkpt><trkpt lat="53.780710231376496" lon="87.2792670663777"><ele>204.33333333333334</ele><time>2026-04-30T10:41:28Z</time></trkpt><trkpt lat="53.7807105287057" lon="87.27939318784043"><ele>204.0</ele><time>2026-04-30T10:41:32Z</time></trkpt><trkpt lat="53.780666990699864" lon="87.27948607742819"><ele>204.0</ele><time>2026-04-30T10:41:36Z</time></trkpt><trkpt lat="53.78063084373387" lon="87.27958070855328"><ele>204.0</ele><time>2026-04-30T10:41:40Z</time></trkpt><trkpt lat="53.78060324229102" lon="87.27968091507685"><ele>204.0</ele><time>2026-04-30T10:41:44Z</time></trkpt><trkpt lat="53.78055035414878" lon="87.27975565195662"><ele>204.0</ele><time>2026-04-30T10:41:50Z</time></trkpt><trkpt lat="53.78051591194738" lon="87.27990433975069"><ele>204.0</ele><time>2026-04-30T10:41:54Z</time></trkpt><trkpt lat="53.78051445704319" lon="87.2800685237956"><ele>204.0</ele><time>2026-04-30T10:41:56Z</time></trkpt><trkpt lat="53.78051136735709" lon="87.28025683355541"><ele>204.2</ele><time>2026-04-30T10:41:58Z</time></trkpt><trkpt lat="53.78050742550073" lon="87.28041673122053"><ele>204.39999999999998</ele><time>2026-04-30T10:42:00Z</time></trkpt><trkpt lat="53.78050386226275" lon="87.28057801733827"><ele>204.6</ele><time>2026-04-30T10:42:02Z</time></trkpt><trkpt lat="53.78048372652358" lon="87.28072324207149"><ele>204.8</ele><time>2026-04-30T10:42:04Z</time></trkpt><trkpt lat="53.78040573964956" lon="87.28080067029562"><ele>205.0</ele><time>2026-04-30T10:42:06Z</time></trkpt><trkpt lat="53.78030861666272" lon="87.28078727436313"><ele>204.99999999999997</ele><time>2026-04-30T10:42:08Z</time></trkpt><trkpt lat="53.78021592460329" lon="87.28077183749274"><ele>205.0</ele><time>2026-04-30T10:42:10Z</time></trkpt><trkpt lat="53.78012335741141" lon="87.28077980610502"><ele>205.0</ele><time>2026-04-30T10:42:12Z</time></trkpt><trkpt lat="53.780033462741045" lon="87.28076741793585"><ele>205.0</ele><time>2026-04-30T10:42:14Z</time></trkpt><trkpt lat="53.77994984862877" lon="87.28079196442408"><ele>204.99999999999997</ele><time>2026-04-30T10:42:16Z</time></trkpt><trkpt lat="53.77987787708227" lon="87.28079670253162"><ele>205.0</ele><time>2026-04-30T10:42:18Z</time></trkpt><trkpt lat="53.77982730611235" lon="87.28088069569776"><ele>204.99999999999997</ele><time>2026-04-30T10:42:20Z</time></trkpt><trkpt lat="53.77979059850401" lon="87.28099351339176"><ele>205.0</ele><time>2026-04-30T10:42:22Z</time></trkpt><trkpt lat="53.77978227073296" lon="87.2811297222066"><ele>205.0</ele><time>2026-04-30T10:42:24Z</time></trkpt><trkpt lat="53.77977228628251" lon="87.28126047826868"><ele>205.0</ele><time>2026-04-30T10:42:26Z</time></trkpt><trkpt lat="53.77975696432287" lon="87.28136991575414"><ele>204.99999999999997</ele><time>2026-04-30T10:42:28Z</time></trkpt><trkpt lat="53.779741464867364" lon="87.28147974157525"><ele>205.0</ele><time>2026-04-30T10:42:30Z</time></trkpt><trkpt lat="53.77974081510298" lon="87.28162419172966"><ele>205.0</ele><time>2026-04-30T10:42:33Z</time></trkpt><trkpt lat="53.77969682558159" lon="87.28171054243467"><ele>205.0</ele><time>2026-04-30T10:42:36Z</time></trkpt><trkpt lat="53.779650744912615" lon="87.28179826000904"><ele>205.0</ele><time>2026-04-30T10:43:05Z</time></trkpt><trkpt lat="53.779639635771915" lon="87.28192112257823"><ele>205.0</ele><time>2026-04-30T10:43:09Z</time></trkpt><trkpt lat="53.779640766135586" lon="87.28204223681716"><ele>205.0</ele><time>2026-04-30T10:43:13Z</time></trkpt><trkpt lat="53.77960107279672" lon="87.28212929059016"><ele>205.0</ele><time>2026-04-30T10:43:17Z</time></trkpt><trkpt lat="53.77958064684939" lon="87.28225441143633"><ele>205.0</ele><time>2026-04-30T10:43:22Z</time></trkpt><trkpt lat="53.77957088733287" lon="87.28237349370605"><ele>204.85714285714286</ele><time>2026-04-30T10:43:28Z</time></trkpt><trkpt lat="53.77955516464391" lon="87.28247958877283"><ele>204.7142857142857</ele><time>2026-04-30T10:43:36Z</time></trkpt><trkpt lat="53.779568574942175" lon="87.28260807717925"><ele>204.57142857142856</ele><time>2026-04-30T10:43:43Z</time></trkpt><trkpt lat="53.779585544775486" lon="87.28271610333626"><ele>204.42857142857144</ele><time>2026-04-30T10:43:49Z</time></trkpt><trkpt lat="53.7796362893126" lon="87.28279874899653"><ele>204.28571428571428</ele><time>2026-04-30T10:43:54Z</time></trkpt><trkpt lat="53.77970958093298" lon="87.28284460248203"><ele>204.14285714285714</ele><time>2026-04-30T10:44:05Z</time></trkpt><trkpt lat="53.77976261258013" lon="87.28292915051223"><ele>204.0</ele><time>2026-04-30T10:45:28Z</time></trkpt><trkpt lat="53.77974700446801" lon="87.2830528805049"><ele>204.14285714285714</ele><time>2026-04-30T10:45:31Z</time></trkpt><trkpt lat="53.779740967535545" lon="87.28316573730898"><ele>204.28571428571428</ele><time>2026-04-30T10:45:33Z</time></trkpt><trkpt lat="53.779709206337365" lon="87.28326744770104"><ele>204.42857142857144</ele><time>2026-04-30T10:45:35Z</time></trkpt><trkpt lat="53.779675477377005" lon="87.28336683761223"><ele>204.57142857142856</ele><time>2026-04-30T10:45:37Z</time></trkpt><trkpt lat="53.77966698982087" lon="87.2834785614139"><ele>204.7142857142857</ele><time>2026-04-30T10:45:39Z</time></trkpt><trkpt lat="53.779667598876635" lon="87.28360853483866"><ele>204.85714285714286</ele><time>2026-04-30T10:45:42Z</time></trkpt><trkpt lat="53.77967909152722" lon="87.2837149541846"><ele>205.0</ele><time>2026-04-30T10:45:44Z</time></trkpt><trkpt lat="53.77971512368023" lon="87.2838067322319"><ele>204.99999999999997</ele><time>2026-04-30T10:45:46Z</time></trkpt><trkpt lat="53.77975625253009" lon="87.28390936469262"><ele>205.0</ele><time>2026-04-30T10:45:48Z</time></trkpt><trkpt lat="53.77981559896729" lon="87.2839922296511"><ele>205.0</ele><time>2026-04-30T10:45:50Z</time></trkpt><trkpt lat="53.77986920511438" lon="87.28407018911321"><ele>205.0</ele><time>2026-04-30T10:45:52Z</time></trkpt><trkpt lat="53.779910575049016" lon="87.28416321255088"><ele>204.99999999999997</ele><time>2026-04-30T10:45:54Z</time></trkpt><trkpt lat="53.779958247553324" lon="87.28423612502247"><ele>205.0</ele><time>2026-04-30T10:45:56Z</time></trkpt><trkpt lat="53.78003781051832" lon="87.28434163651428"><ele>205.14285714285714</ele><time>2026-04-30T10:45:59Z</time></trkpt><trkpt lat="53.780100002074775" lon="87.2844207567121"><ele>205.28571428571428</ele><time>2026-04-30T10:46:01Z</time></trkpt><trkpt lat="53.78015426220191" lon="87.28450816047848"><ele>205.42857142857142</ele><time>2026-04-30T10:46:03Z</time></trkpt><trkpt lat="53.78020902214016" lon="87.28457669726542"><ele>205.57142857142856</ele><time>2026-04-30T10:46:05Z</time></trkpt><trkpt lat="53.780261769924806" lon="87.28463985644997"><ele>205.71428571428572</ele><time>2026-04-30T10:46:07Z</time></trkpt><trkpt lat="53.780305331778045" lon="87.28474437565475"><ele>205.85714285714283</ele><time>2026-04-30T10:46:09Z</time></trkpt><trkpt lat="53.78030509884993" lon="87.28486495237608"><ele>206.0</ele><time>2026-04-30T10:46:11Z</time></trkpt><trkpt lat="53.780325332481894" lon="87.2850059084696"><ele>206.16666666666669</ele><time>2026-04-30T10:46:15Z</time></trkpt><trkpt lat="53.78031910773665" lon="87.28516465985535"><ele>206.33333333333334</ele><time>2026-04-30T10:46:18Z</time></trkpt><trkpt lat="53.780308683616845" lon="87.28527455706144"><ele>206.5</ele><time>2026-04-30T10:46:20Z</time></trkpt><trkpt lat="53.78031410425223" lon="87.28542061442997"><ele>206.66666666666669</ele><time>2026-04-30T10:46:23Z</time></trkpt><trkpt lat="53.78036476503411" lon="87.28548665542019"><ele>206.83333333333334</ele><time>2026-04-30T10:46:27Z</time></trkpt><trkpt lat="53.78043701745133" lon="87.28552922027434"><ele>207.0</ele><time>2026-04-30T10:46:32Z</time></trkpt><trkpt lat="53.78050747483682" lon="87.28555620846804"><ele>206.83333333333334</ele><time>2026-04-30T10:47:00Z</time></trkpt><trkpt lat="53.78057487134816" lon="87.28565208753587"><ele>206.66666666666669</ele><time>2026-04-30T10:47:03Z</time></trkpt><trkpt lat="53.78063380024921" lon="87.28573715196565"><ele>206.5</ele><time>2026-04-30T10:47:05Z</time></trkpt><trkpt lat="53.78071574141174" lon="87.28579484308597"><ele>206.33333333333334</ele><time>2026-04-30T10:47:07Z</time></trkpt><trkpt lat="53.78078800949459" lon="87.28587762347756"><ele>206.16666666666669</ele><time>2026-04-30T10:47:09Z</time></trkpt><trkpt lat="53.78086320934288" lon="87.28594602859422"><ele>206.0</ele><time>2026-04-30T10:47:11Z</time></trkpt><trkpt lat="53.78094072286252" lon="87.28599485609296"><ele>205.99999999999997</ele><time>2026-04-30T10:47:13Z</time></trkpt><trkpt lat="53.78099902662376" lon="87.28605297114619"><ele>206.0</ele><time>2026-04-30T10:47:15Z</time></trkpt><trkpt lat="53.78108215786548" lon="87.28608202099176"><ele>206.0</ele><time>2026-04-30T10:47:18Z</time></trkpt><trkpt lat="53.78115227820528" lon="87.28610295573503"><ele>206.0</ele><time>2026-04-30T10:47:22Z</time></trkpt><trkpt lat="53.78122003114883" lon="87.28612416074894"><ele>206.0</ele><time>2026-04-30T10:47:31Z</time></trkpt><trkpt lat="53.78128955382486" lon="87.28612646308835"><ele>205.99999999999997</ele><time>2026-04-30T10:47:34Z</time></trkpt><trkpt lat="53.78135651046646" lon="87.28615233372334"><ele>206.0</ele><time>2026-04-30T10:47:38Z</time></trkpt><trkpt lat="53.781420551389296" lon="87.28614316245536"><ele>206.33333333333334</ele><time>2026-04-30T10:47:43Z</time></trkpt><trkpt lat="53.78149742391051" lon="87.28617260350772"><ele>206.66666666666669</ele><time>2026-04-30T10:47:46Z</time></trkpt><trkpt lat="53.781559536509036" lon="87.28621581410748"><ele>207.0</ele><time>2026-04-30T10:47:48Z</time></trkpt><trkpt lat="53.78155037034108" lon="87.28635606886289"><ele>207.33333333333331</ele><time>2026-04-30T10:47:50Z</time></trkpt><trkpt lat="53.78154897675618" lon="87.28649762393756"><ele>207.66666666666666</ele><time>2026-04-30T10:47:52Z</time></trkpt><trkpt lat="53.781556626870845" lon="87.2866499160547"><ele>208.0</ele><time>2026-04-30T10:47:54Z</time></trkpt><trkpt lat="53.781545719836046" lon="87.28680051029032"><ele>208.2</ele><time>2026-04-30T10:47:56Z</time></trkpt><trkpt lat="53.781542468843696" lon="87.28694417694369"><ele>208.4</ele><time>2026-04-30T10:47:58Z</time></trkpt><trkpt lat="53.78156728699031" lon="87.28719726538368"><ele>208.6</ele><time>2026-04-30T10:48:02Z</time></trkpt><trkpt lat="53.781564107610414" lon="87.2873297158352"><ele>208.79999999999998</ele><time>2026-04-30T10:48:04Z</time></trkpt><trkpt lat="53.78156133143411" lon="87.28747341781315"><ele>209.0</ele><time>2026-04-30T10:48:06Z</time></trkpt><trkpt lat="53.78155752352597" lon="87.28762663194625"><ele>209.2</ele><time>2026-04-30T10:48:08Z</time></trkpt><trkpt lat="53.781558254663814" lon="87.28777394300123"><ele>209.39999999999998</ele><time>2026-04-30T10:48:10Z</time></trkpt><trkpt lat="53.781558736567455" lon="87.28791447772407"><ele>209.6</ele><time>2026-04-30T10:48:12Z</time></trkpt><trkpt lat="53.78156060918904" lon="87.28806043513536"><ele>209.8</ele><time>2026-04-30T10:48:14Z</time></trkpt><trkpt lat="53.78155345163221" lon="87.28824175446948"><ele>210.0</ele><time>2026-04-30T10:48:16Z</time></trkpt><trkpt lat="53.78154670734504" lon="87.2884155608048"><ele>210.0</ele><time>2026-04-30T10:48:18Z</time></trkpt><trkpt lat="53.781539380049274" lon="87.28858359595642"><ele>210.0</ele><time>2026-04-30T10:48:20Z</time></trkpt><trkpt lat="53.78152692866502" lon="87.2887733731811"><ele>210.0</ele><time>2026-04-30T10:48:22Z</time></trkpt><trkpt lat="53.78150798463803" lon="87.28893560734363"><ele>210.0</ele><time>2026-04-30T10:48:24Z</time></trkpt><trkpt lat="53.781515923003504" lon="87.28910365938124"><ele>210.0</ele><time>2026-04-30T10:48:26Z</time></trkpt><trkpt lat="53.78151821876734" lon="87.28926045509661"><ele>210.0</ele><time>2026-04-30T10:48:28Z</time></trkpt><trkpt lat="53.7815175779242" lon="87.28942073115888"><ele>210.0</ele><time>2026-04-30T10:48:30Z</time></trkpt><trkpt lat="53.78152172898636" lon="87.289575839894"><ele>210.0</ele><time>2026-04-30T10:48:32Z</time></trkpt><trkpt lat="53.78151619324003" lon="87.2897149392525"><ele>210.0</ele><time>2026-04-30T10:48:34Z</time></trkpt><trkpt lat="53.781510071883055" lon="87.28984904884942"><ele>210.0</ele><time>2026-04-30T10:48:36Z</time></trkpt><trkpt lat="53.781491548854135" lon="87.29002622842899"><ele>210.0</ele><time>2026-04-30T10:48:38Z</time></trkpt><trkpt lat="53.78148291441589" lon="87.29020081994217"><ele>210.0</ele><time>2026-04-30T10:48:40Z</time></trkpt><trkpt lat="53.781495551668925" lon="87.29037599943938"><ele>210.0</ele><time>2026-04-30T10:48:42Z</time></trkpt><trkpt lat="53.7814987709927" lon="87.29054421248277"><ele>210.0</ele><time>2026-04-30T10:48:44Z</time></trkpt><trkpt lat="53.78149484513793" lon="87.29069863701142"><ele>210.0</ele><time>2026-04-30T10:48:46Z</time></trkpt><trkpt lat="53.78149405979489" lon="87.29085348483642"><ele>210.0</ele><time>2026-04-30T10:48:48Z</time></trkpt><trkpt lat="53.781487183631725" lon="87.291010623158"><ele>210.0</ele><time>2026-04-30T10:48:50Z</time></trkpt><trkpt lat="53.781481190717734" lon="87.29117250242524"><ele>210.0</ele><time>2026-04-30T10:48:52Z</time></trkpt><trkpt lat="53.7814711291245" lon="87.29134215823868"><ele>210.0</ele><time>2026-04-30T10:48:54Z</time></trkpt><trkpt lat="53.78146395629401" lon="87.29151564164961"><ele>210.0</ele><time>2026-04-30T10:48:56Z</time></trkpt><trkpt lat="53.781465078155065" lon="87.29169475148979"><ele>210.0</ele><time>2026-04-30T10:48:58Z</time></trkpt><trkpt lat="53.78122507695627" lon="87.29176839600848"><ele>210.0</ele><time>2026-04-30T10:48:59Z</time></trkpt><trkpt lat="53.78145897298801" lon="87.29186093666759"><ele>210.0</ele><time>2026-04-30T10:49:00Z</time></trkpt><trkpt lat="53.78145592419189" lon="87.29202188929506"><ele>210.0</ele><time>2026-04-30T10:49:02Z</time></trkpt><trkpt lat="53.78145639175366" lon="87.29217184619537"><ele>210.0</ele><time>2026-04-30T10:49:04Z</time></trkpt><trkpt lat="53.78142382659328" lon="87.29229184858363"><ele>210.0</ele><time>2026-04-30T10:49:06Z</time></trkpt><trkpt lat="53.781366767656074" lon="87.29237223839178"><ele>210.0</ele><time>2026-04-30T10:49:08Z</time></trkpt><trkpt lat="53.78133318914278" lon="87.29248410100864"><ele>210.0</ele><time>2026-04-30T10:49:11Z</time></trkpt><trkpt lat="53.7813143730619" lon="87.29261752499107"><ele>209.66666666666666</ele><time>2026-04-30T10:49:15Z</time></trkpt><trkpt lat="53.78131212533639" lon="87.2927310492207"><ele>209.33333333333331</ele><time>2026-04-30T10:49:17Z</time></trkpt><trkpt lat="53.78132089101234" lon="87.29286012222137"><ele>209.0</ele><time>2026-04-30T10:49:20Z</time></trkpt><trkpt lat="53.78130646521246" lon="87.2929703050362"><ele>208.66666666666666</ele><time>2026-04-30T10:49:22Z</time></trkpt><trkpt lat="53.781298343136065" lon="87.29311985544356"><ele>208.33333333333331</ele><time>2026-04-30T10:49:24Z</time></trkpt><trkpt lat="53.78129269363942" lon="87.29328911883286"><ele>208.0</ele><time>2026-04-30T10:49:26Z</time></trkpt><trkpt lat="53.781280500258895" lon="87.29346740718981"><ele>207.4</ele><time>2026-04-30T10:49:28Z</time></trkpt><trkpt lat="53.78127867394529" lon="87.29363350439338"><ele>206.8</ele><time>2026-04-30T10:49:30Z</time></trkpt><trkpt lat="53.78118418064382" lon="87.29370698508605"><ele>206.2</ele><time>2026-04-30T10:49:31Z</time></trkpt><trkpt lat="53.78118080105686" lon="87.29386020916097"><ele>205.6</ele><time>2026-04-30T10:49:33Z</time></trkpt><trkpt lat="53.781177666767334" lon="87.29400231143175"><ele>205.0</ele><time>2026-04-30T10:49:35Z</time></trkpt><trkpt lat="53.78117453547046" lon="87.29414427829002"><ele>204.99999999999997</ele><time>2026-04-30T10:49:40Z</time></trkpt><trkpt lat="53.7811717559322" lon="87.29426731997422"><ele>205.0</ele><time>2026-04-30T10:49:42Z</time></trkpt><trkpt lat="53.7811689657406" lon="87.29438973961786"><ele>205.0</ele><time>2026-04-30T10:49:44Z</time></trkpt><trkpt lat="53.78116562393488" lon="87.29453636152321"><ele>205.0</ele><time>2026-04-30T10:49:46Z</time></trkpt><trkpt lat="53.781161911181364" lon="87.29469957568031"><ele>204.99999999999997</ele><time>2026-04-30T10:49:48Z</time></trkpt><trkpt lat="53.78115843733443" lon="87.29485247379158"><ele>205.0</ele><time>2026-04-30T10:49:50Z</time></trkpt><trkpt lat="53.781154957557284" lon="87.29500563293047"><ele>205.0</ele><time>2026-04-30T10:49:52Z</time></trkpt><trkpt lat="53.78115164782356" lon="87.29515130785279"><ele>205.0</ele><time>2026-04-30T10:49:54Z</time></trkpt><trkpt lat="53.781148190090555" lon="87.29529971784395"><ele>205.0</ele><time>2026-04-30T10:49:56Z</time></trkpt><trkpt lat="53.78126569800206" lon="87.29546431630312"><ele>205.0</ele><time>2026-04-30T10:49:58Z</time></trkpt><trkpt lat="53.781263839674025" lon="87.2956169663899"><ele>205.0</ele><time>2026-04-30T10:50:00Z</time></trkpt><trkpt lat="53.78126345417977" lon="87.29577113700394"><ele>205.2</ele><time>2026-04-30T10:50:02Z</time></trkpt><trkpt lat="53.7812586810396" lon="87.2959160336014"><ele>205.4</ele><time>2026-04-30T10:50:04Z</time></trkpt><trkpt lat="53.78126069911818" lon="87.29606530075694"><ele>205.60000000000002</ele><time>2026-04-30T10:50:06Z</time></trkpt><trkpt lat="53.78125030309995" lon="87.29628038781193"><ele>205.8</ele><time>2026-04-30T10:50:09Z</time></trkpt><trkpt lat="53.781252632753784" lon="87.29651729549037"><ele>206.0</ele><time>2026-04-30T10:50:12Z</time></trkpt><trkpt lat="53.78124887569415" lon="87.2966729307756"><ele>206.00000000000003</ele><time>2026-04-30T10:50:14Z</time></trkpt><trkpt lat="53.781254722067516" lon="87.29681058022108"><ele>206.0</ele><time>2026-04-30T10:50:16Z</time></trkpt><trkpt lat="53.78125370187435" lon="87.29694754435529"><ele>206.0</ele><time>2026-04-30T10:50:18Z</time></trkpt><trkpt lat="53.78125072413275" lon="87.29707158032399"><ele>206.0</ele><time>2026-04-30T10:50:20Z</time></trkpt><trkpt lat="53.7812468917172" lon="87.29719313932307"><ele>206.00000000000003</ele><time>2026-04-30T10:50:22Z</time></trkpt><trkpt lat="53.78124120685212" lon="87.29736384371785"><ele>206.0</ele><time>2026-04-30T10:50:24Z</time></trkpt><trkpt lat="53.781246571910614" lon="87.29752969571096"><ele>206.0</ele><time>2026-04-30T10:50:26Z</time></trkpt><trkpt lat="53.78124293059279" lon="87.29772212273664"><ele>206.0</ele><time>2026-04-30T10:50:28Z</time></trkpt><trkpt lat="53.78110583690869" lon="87.29780095624614"><ele>206.0</ele><time>2026-04-30T10:50:29Z</time></trkpt><trkpt lat="53.7811024782587" lon="87.29791954377617"><ele>206.0</ele><time>2026-04-30T10:50:30Z</time></trkpt><trkpt lat="53.781220096577826" lon="87.29811000026439"><ele>206.00000000000003</ele><time>2026-04-30T10:50:32Z</time></trkpt><trkpt lat="53.78122012777442" lon="87.29827290642716"><ele>206.0</ele><time>2026-04-30T10:50:34Z</time></trkpt><trkpt lat="53.78121497409407" lon="87.29843013583472"><ele>206.0</ele><time>2026-04-30T10:50:36Z</time></trkpt><trkpt lat="53.78121255898202" lon="87.29858265992021"><ele>206.0</ele><time>2026-04-30T10:50:38Z</time></trkpt><trkpt lat="53.781210630757485" lon="87.29872723164036"><ele>206.00000000000003</ele><time>2026-04-30T10:50:40Z</time></trkpt><trkpt lat="53.7812035533576" lon="87.29886207319838"><ele>206.0</ele><time>2026-04-30T10:50:42Z</time></trkpt><trkpt lat="53.78119983154968" lon="87.29901172939957"><ele>205.66666666666669</ele><time>2026-04-30T10:50:45Z</time></trkpt><trkpt lat="53.781192477581264" lon="87.29915168376687"><ele>205.33333333333334</ele><time>2026-04-30T10:50:47Z</time></trkpt><trkpt lat="53.781188853684824" lon="87.29927950383434"><ele>205.0</ele><time>2026-04-30T10:50:49Z</time></trkpt><trkpt lat="53.78119081063804" lon="87.29942193546145"><ele>204.66666666666669</ele><time>2026-04-30T10:50:51Z</time></trkpt><trkpt lat="53.78119336300773" lon="87.29955452278773"><ele>204.33333333333334</ele><time>2026-04-30T10:50:53Z</time></trkpt><trkpt lat="53.78119991162407" lon="87.29966691412585"><ele>204.0</ele><time>2026-04-30T10:50:55Z</time></trkpt><trkpt lat="53.78119596684729" lon="87.29980466333411"><ele>204.0</ele><time>2026-04-30T10:50:58Z</time></trkpt><trkpt lat="53.78118931912757" lon="87.29991317014088"><ele>204.0</ele><time>2026-04-30T10:51:00Z</time></trkpt><trkpt lat="53.78118769089464" lon="87.30005540530559"><ele>204.0</ele><time>2026-04-30T10:51:02Z</time></trkpt><trkpt lat="53.78118574580426" lon="87.30020851680705"><ele>204.0</ele><time>2026-04-30T10:51:04Z</time></trkpt><trkpt lat="53.781180702728" lon="87.30034821742075"><ele>204.0</ele><time>2026-04-30T10:51:06Z</time></trkpt><trkpt lat="53.78117654428572" lon="87.30048932497132"><ele>204.0</ele><time>2026-04-30T10:51:08Z</time></trkpt><trkpt lat="53.78118046991092" lon="87.3006730536138"><ele>204.39999999999998</ele><time>2026-04-30T10:51:10Z</time></trkpt><trkpt lat="53.781172541584375" lon="87.30084705499425"><ele>204.8</ele><time>2026-04-30T10:51:12Z</time></trkpt><trkpt lat="53.78117495533454" lon="87.30102325778087"><ele>205.2</ele><time>2026-04-30T10:51:14Z</time></trkpt><trkpt lat="53.781165057900076" lon="87.30118841234217"><ele>205.60000000000002</ele><time>2026-04-30T10:51:16Z</time></trkpt><trkpt lat="53.78116452647591" lon="87.30136479193575"><ele>206.0</ele><time>2026-04-30T10:51:18Z</time></trkpt><trkpt lat="53.78116811758025" lon="87.30151111573265"><ele>206.0</ele><time>2026-04-30T10:51:20Z</time></trkpt><trkpt lat="53.78116462132597" lon="87.30166908356274"><ele>206.0</ele><time>2026-04-30T10:51:22Z</time></trkpt><trkpt lat="53.781179967122846" lon="87.30184333664586"><ele>206.0</ele><time>2026-04-30T10:51:24Z</time></trkpt><trkpt lat="53.78119436142975" lon="87.30202433445393"><ele>206.0</ele><time>2026-04-30T10:51:26Z</time></trkpt><trkpt lat="53.78119745149691" lon="87.30219928886463"><ele>206.0</ele><time>2026-04-30T10:51:28Z</time></trkpt><trkpt lat="53.78120504776394" lon="87.30237411473207"><ele>206.0</ele><time>2026-04-30T10:51:30Z</time></trkpt><trkpt lat="53.78121462093233" lon="87.30254322739385"><ele>206.0</ele><time>2026-04-30T10:51:32Z</time></trkpt><trkpt lat="53.781223869184274" lon="87.30267167484548"><ele>206.0</ele><time>2026-04-30T10:51:34Z</time></trkpt><trkpt lat="53.78123984960659" lon="87.30291908552098"><ele>206.0</ele><time>2026-04-30T10:51:37Z</time></trkpt><trkpt lat="53.78125403051353" lon="87.30302495006156"><ele>206.0</ele><time>2026-04-30T10:51:39Z</time></trkpt><trkpt lat="53.78126103761038" lon="87.3031371748778"><ele>206.00000000000003</ele><time>2026-04-30T10:51:41Z</time></trkpt><trkpt lat="53.78126209369702" lon="87.30325221625792"><ele>206.0</ele><time>2026-04-30T10:51:43Z</time></trkpt><trkpt lat="53.78127855676576" lon="87.30339294845227"><ele>206.0</ele><time>2026-04-30T10:51:45Z</time></trkpt><trkpt lat="53.781292769306354" lon="87.30354857095504"><ele>206.0</ele><time>2026-04-30T10:51:47Z</time></trkpt><trkpt lat="53.78130873598239" lon="87.30369953856597"><ele>206.00000000000003</ele><time>2026-04-30T10:51:51Z</time></trkpt><trkpt lat="53.78132540794148" lon="87.30382314643158"><ele>206.0</ele><time>2026-04-30T10:51:55Z</time></trkpt><trkpt lat="53.78134766425349" lon="87.30396102238709"><ele>206.00000000000003</ele><time>2026-04-30T10:51:58Z</time></trkpt><trkpt lat="53.78137452685569" lon="87.30411656975923"><ele>206.0</ele><time>2026-04-30T10:52:00Z</time></trkpt><trkpt lat="53.78140285678199" lon="87.30427077997795"><ele>206.0</ele><time>2026-04-30T10:52:02Z</time></trkpt><trkpt lat="53.78143050963705" lon="87.30437819073232"><ele>206.0</ele><time>2026-04-30T10:52:05Z</time></trkpt><trkpt lat="53.78147056571396" lon="87.30452324980696"><ele>206.00000000000003</ele><time>2026-04-30T10:52:06Z</time></trkpt><trkpt lat="53.781498673412784" lon="87.30466873328164"><ele>206.0</ele><time>2026-04-30T10:52:08Z</time></trkpt><trkpt lat="53.7815407042648" lon="87.30481609669654"><ele>206.4</ele><time>2026-04-30T10:52:10Z</time></trkpt><trkpt lat="53.78158002921509" lon="87.30496149529844"><ele>206.8</ele><time>2026-04-30T10:52:12Z</time></trkpt><trkpt lat="53.78161490083974" lon="87.30511292000698"><ele>207.20000000000002</ele><time>2026-04-30T10:52:14Z</time></trkpt><trkpt lat="53.78164637182399" lon="87.30526408882581"><ele>207.60000000000002</ele><time>2026-04-30T10:52:16Z</time></trkpt><trkpt lat="53.7816879308705" lon="87.30540007689282"><ele>208.0</ele><time>2026-04-30T10:52:18Z</time></trkpt><trkpt lat="53.781723380893254" lon="87.30553165565333"><ele>208.2</ele><time>2026-04-30T10:52:20Z</time></trkpt><trkpt lat="53.78174090769018" lon="87.30566651153421"><ele>208.4</ele><time>2026-04-30T10:52:22Z</time></trkpt><trkpt lat="53.78177221304126" lon="87.30580567756807"><ele>208.6</ele><time>2026-04-30T10:52:24Z</time></trkpt><trkpt lat="53.781827511940264" lon="87.30596694528573"><ele>208.79999999999998</ele><time>2026-04-30T10:52:26Z</time></trkpt><trkpt lat="53.78183377976092" lon="87.30610958481395"><ele>209.0</ele><time>2026-04-30T10:52:28Z</time></trkpt><trkpt lat="53.781861487444495" lon="87.30625094853242"><ele>208.79999999999998</ele><time>2026-04-30T10:52:30Z</time></trkpt><trkpt lat="53.78191120682344" lon="87.30638604712288"><ele>208.6</ele><time>2026-04-30T10:52:32Z</time></trkpt><trkpt lat="53.781936660609446" lon="87.30656123831322"><ele>208.4</ele><time>2026-04-30T10:52:34Z</time></trkpt><trkpt lat="53.78197127303986" lon="87.30671846396311"><ele>208.2</ele><time>2026-04-30T10:52:36Z</time></trkpt><trkpt lat="53.78200597472281" lon="87.30685056645515"><ele>208.0</ele><time>2026-04-30T10:52:38Z</time></trkpt><trkpt lat="53.78203453431066" lon="87.30696365908047"><ele>207.99999999999997</ele><time>2026-04-30T10:52:40Z</time></trkpt><trkpt lat="53.782047929509744" lon="87.30707924183271"><ele>208.0</ele><time>2026-04-30T10:52:42Z</time></trkpt><trkpt lat="53.782084744006156" lon="87.30722476656966"><ele>208.0</ele><time>2026-04-30T10:52:45Z</time></trkpt><trkpt lat="53.782133216100995" lon="87.30734379692962"><ele>208.0</ele><time>2026-04-30T10:52:47Z</time></trkpt><trkpt lat="53.78214807098822" lon="87.30747059186766"><ele>207.99999999999997</ele><time>2026-04-30T10:52:49Z</time></trkpt><trkpt lat="53.782175500550885" lon="87.30758477860425"><ele>208.0</ele><time>2026-04-30T10:52:51Z</time></trkpt><trkpt lat="53.782214763273515" lon="87.30767231002474"><ele>208.14285714285714</ele><time>2026-04-30T10:52:55Z</time></trkpt><trkpt lat="53.782230558596005" lon="87.30777986667437"><ele>208.2857142857143</ele><time>2026-04-30T10:53:55Z</time></trkpt><trkpt lat="53.782253914834584" lon="87.30788314606357"><ele>208.42857142857144</ele><time>2026-04-30T10:53:58Z</time></trkpt><trkpt lat="53.782281879787064" lon="87.307995386131"><ele>208.57142857142856</ele><time>2026-04-30T10:54:02Z</time></trkpt><trkpt lat="53.78232195257898" lon="87.30809046972838"><ele>208.71428571428572</ele><time>2026-04-30T10:54:05Z</time></trkpt><trkpt lat="53.78234471757767" lon="87.3082325042157"><ele>208.85714285714286</ele><time>2026-04-30T10:54:08Z</time></trkpt><trkpt lat="53.78235449693992" lon="87.3083526515029"><ele>209.0</ele><time>2026-04-30T10:54:10Z</time></trkpt><trkpt lat="53.78239587018712" lon="87.30849566000161"><ele>209.0</ele><time>2026-04-30T10:54:12Z</time></trkpt><trkpt lat="53.78243437987999" lon="87.30864658208378"><ele>209.0</ele><time>2026-04-30T10:54:14Z</time></trkpt><trkpt lat="53.78246664020844" lon="87.30877614240754"><ele>209.0</ele><time>2026-04-30T10:54:16Z</time></trkpt><trkpt lat="53.78249457674418" lon="87.30888189077783"><ele>209.0</ele><time>2026-04-30T10:54:18Z</time></trkpt><trkpt lat="53.78256704650318" lon="87.30907605934067"><ele>209.0</ele><time>2026-04-30T10:54:20Z</time></trkpt><trkpt lat="53.78259057016668" lon="87.30918575820787"><ele>209.00000000000003</ele><time>2026-04-30T10:54:22Z</time></trkpt><trkpt lat="53.78261813442582" lon="87.30928365600325"><ele>209.0</ele><time>2026-04-30T10:54:24Z</time></trkpt><trkpt lat="53.78265289632141" lon="87.30943456991507"><ele>209.0</ele><time>2026-04-30T10:54:27Z</time></trkpt><trkpt lat="53.782679674876825" lon="87.30954901289104"><ele>209.0</ele><time>2026-04-30T10:54:29Z</time></trkpt><trkpt lat="53.78271384413224" lon="87.30967578218527"><ele>209.00000000000003</ele><time>2026-04-30T10:54:31Z</time></trkpt><trkpt lat="53.7827515722575" lon="87.30981417950046"><ele>209.0</ele><time>2026-04-30T10:54:33Z</time></trkpt><trkpt lat="53.78277285321078" lon="87.30995929091624"><ele>209.00000000000003</ele><time>2026-04-30T10:54:35Z</time></trkpt><trkpt lat="53.78279653317156" lon="87.31007887289022"><ele>209.0</ele><time>2026-04-30T10:54:37Z</time></trkpt><trkpt lat="53.7827986229805" lon="87.31023582517946"><ele>209.0</ele><time>2026-04-30T10:54:39Z</time></trkpt><trkpt lat="53.78282382571918" lon="87.3103789218356"><ele>209.0</ele><time>2026-04-30T10:54:41Z</time></trkpt><trkpt lat="53.782858154203076" lon="87.31049280988292"><ele>209.00000000000003</ele><time>2026-04-30T10:54:43Z</time></trkpt><trkpt lat="53.78287812037425" lon="87.3106117483872"><ele>209.0</ele><time>2026-04-30T10:54:45Z</time></trkpt><trkpt lat="53.78290246509399" lon="87.31074312901784"><ele>209.2</ele><time>2026-04-30T10:54:47Z</time></trkpt><trkpt lat="53.782958828438815" lon="87.3108789952978"><ele>209.39999999999998</ele><time>2026-04-30T10:54:49Z</time></trkpt><trkpt lat="53.78298994875887" lon="87.31102300360529"><ele>209.6</ele><time>2026-04-30T10:54:51Z</time></trkpt><trkpt lat="53.783019221804054" lon="87.31115882623183"><ele>209.8</ele><time>2026-04-30T10:54:53Z</time></trkpt><trkpt lat="53.78305823517811" lon="87.31132106137801"><ele>210.0</ele><time>2026-04-30T10:54:55Z</time></trkpt><trkpt lat="53.78309076003463" lon="87.31146223983339"><ele>210.0</ele><time>2026-04-30T10:54:57Z</time></trkpt><trkpt lat="53.783125174639245" lon="87.31159372111523"><ele>210.0</ele><time>2026-04-30T10:54:59Z</time></trkpt><trkpt lat="53.7831504449586" lon="87.31174972412734"><ele>210.0</ele><time>2026-04-30T10:55:01Z</time></trkpt><trkpt lat="53.78319622590202" lon="87.31188520380697"><ele>210.0</ele><time>2026-04-30T10:55:03Z</time></trkpt><trkpt lat="53.78323267071371" lon="87.31201424280906"><ele>210.0</ele><time>2026-04-30T10:55:05Z</time></trkpt><trkpt lat="53.783266877177" lon="87.31214846535232"><ele>210.0</ele><time>2026-04-30T10:55:07Z</time></trkpt><trkpt lat="53.783304092213996" lon="87.31228281682455"><ele>210.33333333333334</ele><time>2026-04-30T10:55:09Z</time></trkpt><trkpt lat="53.783323146309876" lon="87.31240901205756"><ele>210.66666666666669</ele><time>2026-04-30T10:55:11Z</time></trkpt><trkpt lat="53.783359566076115" lon="87.31251046068485"><ele>211.0</ele><time>2026-04-30T10:55:13Z</time></trkpt><trkpt lat="53.783385991732" lon="87.31264151574955"><ele>211.33333333333334</ele><time>2026-04-30T10:55:15Z</time></trkpt><trkpt lat="53.78341423647596" lon="87.31277543747636"><ele>211.66666666666669</ele><time>2026-04-30T10:55:17Z</time></trkpt><trkpt lat="53.78344175950833" lon="87.31290479451958"><ele>212.0</ele><time>2026-04-30T10:55:19Z</time></trkpt><trkpt lat="53.78345950149459" lon="87.3130429160121"><ele>211.66666666666669</ele><time>2026-04-30T10:55:21Z</time></trkpt><trkpt lat="53.78348816640758" lon="87.31315481867576"><ele>211.33333333333334</ele><time>2026-04-30T10:55:23Z</time></trkpt><trkpt lat="53.78350156860189" lon="87.31327993637446"><ele>211.0</ele><time>2026-04-30T10:55:25Z</time></trkpt><trkpt lat="53.7835403636225" lon="87.31337235126702"><ele>210.66666666666669</ele><time>2026-04-30T10:55:27Z</time></trkpt><trkpt lat="53.78357164483608" lon="87.31350084381792"><ele>210.33333333333334</ele><time>2026-04-30T10:55:29Z</time></trkpt><trkpt lat="53.783572767979365" lon="87.31363289751191"><ele>210.0</ele><time>2026-04-30T10:55:31Z</time></trkpt><trkpt lat="53.78358764011195" lon="87.31378298103633"><ele>210.33333333333334</ele><time>2026-04-30T10:55:33Z</time></trkpt><trkpt lat="53.783599084809886" lon="87.31391432892448"><ele>210.66666666666669</ele><time>2026-04-30T10:55:35Z</time></trkpt><trkpt lat="53.78361498241099" lon="87.31404730700437"><ele>211.0</ele><time>2026-04-30T10:55:37Z</time></trkpt><trkpt lat="53.78361261954298" lon="87.3142005757045"><ele>211.33333333333334</ele><time>2026-04-30T10:55:40Z</time></trkpt><trkpt lat="53.783622856142124" lon="87.31434911075002"><ele>211.66666666666669</ele><time>2026-04-30T10:55:43Z</time></trkpt><trkpt lat="53.78364036849432" lon="87.31445704845947"><ele>212.0</ele><time>2026-04-30T10:55:46Z</time></trkpt><trkpt lat="53.78361294147455" lon="87.31468217678649"><ele>212.00000000000003</ele><time>2026-04-30T10:57:22.421Z</time></trkpt><trkpt lat="53.78366803377171" lon="87.31455075775578"><ele>212.0</ele><time>2026-04-30T11:01:40.038Z</time></trkpt><trkpt lat="53.78358840886611" lon="87.31450921020506"><ele>212.0</ele><time>2026-04-30T11:01:42Z</time></trkpt><trkpt lat="53.78367303156586" lon="87.31458037800965"><ele>212.0</ele><time>2026-04-30T11:09:56.001Z</time></trkpt><trkpt lat="53.78366148512892" lon="87.31469358514668"><ele>212.00000000000003</ele><time>2026-04-30T11:14:17.001Z</time></trkpt><trkpt lat="53.78365499147983" lon="87.31482753221165"><ele>212.0</ele><time>2026-04-30T11:14:20.001Z</time></trkpt><trkpt lat="53.78365828581097" lon="87.31497807287025"><ele>211.5</ele><time>2026-04-30T11:14:23.001Z</time></trkpt><trkpt lat="53.78367124501749" lon="87.3150830239824"><ele>211.0</ele><time>2026-04-30T11:14:29.001Z</time></trkpt><trkpt lat="53.78371250988994" lon="87.31554700107817"><ele>210.5</ele><time>2026-04-30T11:14:46.001Z</time></trkpt><trkpt lat="53.78371349885292" lon="87.31566914875587"><ele>210.0</ele><time>2026-04-30T11:14:48.001Z</time></trkpt><trkpt lat="53.783708200855436" lon="87.31581178807343"><ele>210.0</ele><time>2026-04-30T11:14:51.001Z</time></trkpt><trkpt lat="53.78371363792916" lon="87.31595401950743"><ele>210.0</ele><time>2026-04-30T11:14:54.001Z</time></trkpt><trkpt lat="53.783713068048776" lon="87.31606212892102"><ele>210.0</ele><time>2026-04-30T11:14:56.001Z</time></trkpt><trkpt lat="53.783724804335705" lon="87.31619551159245"><ele>210.0</ele><time>2026-04-30T11:14:58.001Z</time></trkpt><trkpt lat="53.78374606179498" lon="87.31629994501293"><ele>210.0</ele><time>2026-04-30T11:15:01.001Z</time></trkpt><trkpt lat="53.78375044689537" lon="87.31640649768914"><ele>210.0</ele><time>2026-04-30T11:15:03.001Z</time></trkpt><trkpt lat="53.78377080448438" lon="87.31652802818138"><ele>210.0</ele><time>2026-04-30T11:15:05.001Z</time></trkpt><trkpt lat="53.783785237648175" lon="87.31671083174695"><ele>210.16666666666666</ele><time>2026-04-30T11:15:07.001Z</time></trkpt><trkpt lat="53.78378840864791" lon="87.31686843365421"><ele>210.33333333333331</ele><time>2026-04-30T11:15:09.001Z</time></trkpt><trkpt lat="53.783795029380755" lon="87.31701670797975"><ele>210.5</ele><time>2026-04-30T11:15:11.001Z</time></trkpt><trkpt lat="53.78380542993874" lon="87.3171648497249"><ele>210.66666666666666</ele><time>2026-04-30T11:15:13.001Z</time></trkpt><trkpt lat="53.783815274997266" lon="87.31735178124649"><ele>210.83333333333331</ele><time>2026-04-30T11:15:16.001Z</time></trkpt><trkpt lat="53.783822508437865" lon="87.31746020436425"><ele>211.0</ele><time>2026-04-30T11:15:17.001Z</time></trkpt><trkpt lat="53.78382806161593" lon="87.31759353331967"><ele>211.25</ele><time>2026-04-30T11:15:21.001Z</time></trkpt><trkpt lat="53.78383705166871" lon="87.31771545017621"><ele>211.5</ele><time>2026-04-30T11:15:23.001Z</time></trkpt><trkpt lat="53.78390961807283" lon="87.31814388948285"><ele>211.75</ele><time>2026-04-30T11:15:27.001Z</time></trkpt><trkpt lat="53.783916689699794" lon="87.31826075877304"><ele>212.0</ele><time>2026-04-30T11:15:29.001Z</time></trkpt><trkpt lat="53.78392803171423" lon="87.31839065526341"><ele>211.66666666666669</ele><time>2026-04-30T11:15:31.001Z</time></trkpt><trkpt lat="53.78394349174581" lon="87.31853507303455"><ele>211.33333333333334</ele><time>2026-04-30T11:15:33.001Z</time></trkpt><trkpt lat="53.78395247793126" lon="87.31866893791164"><ele>211.0</ele><time>2026-04-30T11:15:35.001Z</time></trkpt><trkpt lat="53.78395137657248" lon="87.3188036193415"><ele>210.66666666666669</ele><time>2026-04-30T11:15:37.001Z</time></trkpt><trkpt lat="53.78395618608734" lon="87.31892910008276"><ele>210.33333333333334</ele><time>2026-04-30T11:15:40.001Z</time></trkpt><trkpt lat="53.78392314946945" lon="87.31905499190826"><ele>210.0</ele><time>2026-04-30T11:15:44.001Z</time></trkpt><trkpt lat="53.78392590324379" lon="87.31917644748805"><ele>209.85714285714286</ele><time>2026-04-30T11:20:41Z</time></trkpt><trkpt lat="53.78392075395256" lon="87.31929930526427"><ele>209.71428571428572</ele><time>2026-04-30T11:20:46Z</time></trkpt><trkpt lat="53.78393151381062" lon="87.3194235126174"><ele>209.57142857142856</ele><time>2026-04-30T11:20:51Z</time></trkpt><trkpt lat="53.7839544247737" lon="87.31954202202752"><ele>209.42857142857144</ele><time>2026-04-30T11:20:55Z</time></trkpt><trkpt lat="53.78397574111906" lon="87.31966513289598"><ele>209.28571428571428</ele><time>2026-04-30T11:20:58Z</time></trkpt><trkpt lat="53.783972524030574" lon="87.31977342733667"><ele>209.14285714285714</ele><time>2026-04-30T11:21:01Z</time></trkpt><trkpt lat="53.78398568052455" lon="87.31987884272884"><ele>209.0</ele><time>2026-04-30T11:21:04Z</time></trkpt><trkpt lat="53.783985804042125" lon="87.32000487890221"><ele>209.00000000000003</ele><time>2026-04-30T11:21:07Z</time></trkpt><trkpt lat="53.78398133387919" lon="87.32015656481254"><ele>209.0</ele><time>2026-04-30T11:21:10Z</time></trkpt><trkpt lat="53.78399817132806" lon="87.32026596109178"><ele>209.0</ele><time>2026-04-30T11:21:14Z</time></trkpt><trkpt lat="53.78400278282049" lon="87.32037854781123"><ele>209.0</ele><time>2026-04-30T11:21:18Z</time></trkpt><trkpt lat="53.784016409468705" lon="87.32051708072073"><ele>209.00000000000003</ele><time>2026-04-30T11:21:22Z</time></trkpt><trkpt lat="53.78401682186478" lon="87.3206343327126"><ele>209.0</ele><time>2026-04-30T11:21:25Z</time></trkpt><trkpt lat="53.78401574001485" lon="87.32076518561716"><ele>209.16666666666669</ele><time>2026-04-30T11:21:28Z</time></trkpt><trkpt lat="53.78404040943063" lon="87.32087184794909"><ele>209.33333333333334</ele><time>2026-04-30T11:21:32Z</time></trkpt><trkpt lat="53.784071321079004" lon="87.3209877545604"><ele>209.5</ele><time>2026-04-30T11:21:39Z</time></trkpt><trkpt lat="53.7840738577361" lon="87.32111398300738"><ele>209.66666666666669</ele><time>2026-04-30T11:21:43Z</time></trkpt><trkpt lat="53.78411349317773" lon="87.3212951019749"><ele>209.83333333333334</ele><time>2026-04-30T11:22:27Z</time></trkpt><trkpt lat="53.7840536268821" lon="87.32137259090439"><ele>210.0</ele><time>2026-04-30T11:22:31Z</time></trkpt><trkpt lat="53.78405189488893" lon="87.32151995638344"><ele>210.0</ele><time>2026-04-30T11:22:34Z</time></trkpt><trkpt lat="53.78406162672106" lon="87.3216491494961"><ele>210.0</ele><time>2026-04-30T11:22:36Z</time></trkpt><trkpt lat="53.78406497334321" lon="87.32179878198801"><ele>210.0</ele><time>2026-04-30T11:22:38Z</time></trkpt><trkpt lat="53.78407440082042" lon="87.32193963372185"><ele>210.0</ele><time>2026-04-30T11:22:40Z</time></trkpt><trkpt lat="53.78408965613873" lon="87.32207263760577"><ele>210.0</ele><time>2026-04-30T11:22:42Z</time></trkpt><trkpt lat="53.78409611487274" lon="87.32221079810093"><ele>210.0</ele><time>2026-04-30T11:22:44Z</time></trkpt><trkpt lat="53.78410595188214" lon="87.32236605227472"><ele>209.83333333333334</ele><time>2026-04-30T11:22:47Z</time></trkpt><trkpt lat="53.78412003702425" lon="87.32248079821572"><ele>209.66666666666669</ele><time>2026-04-30T11:22:49Z</time></trkpt><trkpt lat="53.784133365320756" lon="87.32260708343803"><ele>209.5</ele><time>2026-04-30T11:22:51Z</time></trkpt><trkpt lat="53.78413761316722" lon="87.3227299686367"><ele>209.33333333333334</ele><time>2026-04-30T11:22:53Z</time></trkpt><trkpt lat="53.784146000422275" lon="87.32293807574892"><ele>209.16666666666669</ele><time>2026-04-30T11:22:56Z</time></trkpt><trkpt lat="53.78414142154216" lon="87.32304645897769"><ele>209.0</ele><time>2026-04-30T11:22:59Z</time></trkpt><trkpt lat="53.78415242361664" lon="87.32323986542833"><ele>209.0</ele><time>2026-04-30T11:23:01Z</time></trkpt><trkpt lat="53.78416323732828" lon="87.32335404252863"><ele>209.0</ele><time>2026-04-30T11:23:03Z</time></trkpt><trkpt lat="53.78416545924901" lon="87.32350000252502"><ele>209.0</ele><time>2026-04-30T11:23:06Z</time></trkpt><trkpt lat="53.78420717950062" lon="87.32377197039419"><ele>209.0</ele><time>2026-04-30T11:23:09Z</time></trkpt><trkpt lat="53.78422579349067" lon="87.32388509315469"><ele>209.0</ele><time>2026-04-30T11:23:11Z</time></trkpt><trkpt lat="53.78420412476995" lon="87.32400268135058"><ele>208.83333333333334</ele><time>2026-04-30T11:23:13Z</time></trkpt><trkpt lat="53.78421147864407" lon="87.32413753097538"><ele>208.66666666666669</ele><time>2026-04-30T11:23:15Z</time></trkpt><trkpt lat="53.78422152866382" lon="87.3242781485808"><ele>208.5</ele><time>2026-04-30T11:23:17Z</time></trkpt><trkpt lat="53.78423563418455" lon="87.32440425293271"><ele>208.33333333333331</ele><time>2026-04-30T11:23:19Z</time></trkpt><trkpt lat="53.784247170501416" lon="87.32456006162087"><ele>208.16666666666666</ele><time>2026-04-30T11:23:22Z</time></trkpt><trkpt lat="53.78425408516791" lon="87.32467795672054"><ele>208.0</ele><time>2026-04-30T11:23:24Z</time></trkpt><trkpt lat="53.78420595260007" lon="87.32481120680804"><ele>207.99999999999997</ele><time>2026-04-30T11:23:27Z</time></trkpt><trkpt lat="53.78422859065952" lon="87.3249613266394"><ele>208.0</ele><time>2026-04-30T11:23:30Z</time></trkpt><trkpt lat="53.7842339827102" lon="87.32508579300992"><ele>208.0</ele><time>2026-04-30T11:23:33Z</time></trkpt><trkpt lat="53.78424216336184" lon="87.32521796983632"><ele>208.0</ele><time>2026-04-30T11:23:36Z</time></trkpt><trkpt lat="53.78425354176068" lon="87.32532743865906"><ele>207.99999999999997</ele><time>2026-04-30T11:23:38Z</time></trkpt><trkpt lat="53.784250378607936" lon="87.32543401758988"><ele>208.0</ele><time>2026-04-30T11:23:40Z</time></trkpt><trkpt lat="53.784281531414706" lon="87.32570921746792"><ele>208.0</ele><time>2026-04-30T11:23:43Z</time></trkpt><trkpt lat="53.78431682286004" lon="87.32589407912721"><ele>208.0</ele><time>2026-04-30T11:23:44Z</time></trkpt><trkpt lat="53.78432843620974" lon="87.3260601053184"><ele>208.0</ele><time>2026-04-30T11:23:46Z</time></trkpt><trkpt lat="53.78434548407985" lon="87.32620295641152"><ele>208.0</ele><time>2026-04-30T11:23:48Z</time></trkpt><trkpt lat="53.78436531741667" lon="87.32635394998591"><ele>208.0</ele><time>2026-04-30T11:23:50Z</time></trkpt><trkpt lat="53.784382831417055" lon="87.32649865587362"><ele>207.99999999999997</ele><time>2026-04-30T11:23:52Z</time></trkpt><trkpt lat="53.78438849023815" lon="87.32663552657701"><ele>208.0</ele><time>2026-04-30T11:23:54Z</time></trkpt><trkpt lat="53.7843963676994" lon="87.32677048156688"><ele>208.0</ele><time>2026-04-30T11:23:56Z</time></trkpt><trkpt lat="53.784409760969545" lon="87.32689634524591"><ele>208.0</ele><time>2026-04-30T11:23:58Z</time></trkpt><trkpt lat="53.784422160503134" lon="87.32702482475084"><ele>207.99999999999997</ele><time>2026-04-30T11:24:00Z</time></trkpt><trkpt lat="53.78443748721117" lon="87.3271404415388"><ele>208.0</ele><time>2026-04-30T11:24:02Z</time></trkpt><trkpt lat="53.78442077192799" lon="87.32728215074167"><ele>207.99999999999997</ele><time>2026-04-30T11:24:06Z</time></trkpt><trkpt lat="53.784414233514575" lon="87.32739573036795"><ele>208.0</ele><time>2026-04-30T11:24:08Z</time></trkpt><trkpt lat="53.784439538925945" lon="87.32750842684504"><ele>208.0</ele><time>2026-04-30T11:24:09Z</time></trkpt><trkpt lat="53.784438095480375" lon="87.32765696896087"><ele>208.0</ele><time>2026-04-30T11:24:11Z</time></trkpt><trkpt lat="53.78444847761378" lon="87.32781924930647"><ele>207.99999999999997</ele><time>2026-04-30T11:24:13Z</time></trkpt><trkpt lat="53.784461656716715" lon="87.32794756164003"><ele>208.0</ele><time>2026-04-30T11:24:15Z</time></trkpt><trkpt lat="53.78446141967168" lon="87.32806595256841"><ele>207.83333333333331</ele><time>2026-04-30T11:24:17Z</time></trkpt><trkpt lat="53.78446640801467" lon="87.32818976105912"><ele>207.66666666666666</ele><time>2026-04-30T11:24:20Z</time></trkpt><trkpt lat="53.784465420085475" lon="87.32830588187504"><ele>207.5</ele><time>2026-04-30T11:24:22Z</time></trkpt><trkpt lat="53.78448215789018" lon="87.32843875560735"><ele>207.33333333333331</ele><time>2026-04-30T11:24:24Z</time></trkpt><trkpt lat="53.7844883565377" lon="87.32857659219222"><ele>207.16666666666666</ele><time>2026-04-30T11:24:26Z</time></trkpt><trkpt lat="53.78450042527075" lon="87.32873595327149"><ele>207.0</ele><time>2026-04-30T11:24:28Z</time></trkpt><trkpt lat="53.784511665532655" lon="87.32888199101772"><ele>207.0</ele><time>2026-04-30T11:24:30Z</time></trkpt><trkpt lat="53.78451862600951" lon="87.32901325948318"><ele>207.0</ele><time>2026-04-30T11:24:32Z</time></trkpt><trkpt lat="53.78454133026128" lon="87.32916371523939"><ele>207.0</ele><time>2026-04-30T11:24:34Z</time></trkpt><trkpt lat="53.784552647031084" lon="87.3293174936861"><ele>207.0</ele><time>2026-04-30T11:24:36Z</time></trkpt><trkpt lat="53.78456079537602" lon="87.3294791739185"><ele>207.0</ele><time>2026-04-30T11:24:38Z</time></trkpt><trkpt lat="53.7845760262332" lon="87.32961546364851"><ele>207.0</ele><time>2026-04-30T11:24:40Z</time></trkpt><trkpt lat="53.7845836226315" lon="87.32977339238548"><ele>207.2</ele><time>2026-04-30T11:24:43Z</time></trkpt><trkpt lat="53.78461145661574" lon="87.32997224393964"><ele>207.39999999999998</ele><time>2026-04-30T11:24:45Z</time></trkpt><trkpt lat="53.784622438119406" lon="87.33011507037463"><ele>207.60000000000002</ele><time>2026-04-30T11:24:47Z</time></trkpt><trkpt lat="53.784629410521546" lon="87.33023774084191"><ele>207.8</ele><time>2026-04-30T11:24:49Z</time></trkpt><trkpt lat="53.78463909510506" lon="87.3303853569411"><ele>208.0</ele><time>2026-04-30T11:24:51Z</time></trkpt><trkpt lat="53.78465025723553" lon="87.33054174177302"><ele>207.83333333333331</ele><time>2026-04-30T11:24:53Z</time></trkpt><trkpt lat="53.78465550995058" lon="87.33069427185829"><ele>207.66666666666666</ele><time>2026-04-30T11:24:55Z</time></trkpt><trkpt lat="53.784667047218996" lon="87.33083935881136"><ele>207.5</ele><time>2026-04-30T11:24:57Z</time></trkpt><trkpt lat="53.78467568924358" lon="87.33098596626682"><ele>207.33333333333331</ele><time>2026-04-30T11:24:59Z</time></trkpt><trkpt lat="53.78468309552615" lon="87.33113056351353"><ele>207.16666666666666</ele><time>2026-04-30T11:25:01Z</time></trkpt><trkpt lat="53.78468644150989" lon="87.33123772814788"><ele>207.0</ele><time>2026-04-30T11:25:03Z</time></trkpt><trkpt lat="53.78469134016856" lon="87.33135211394702"><ele>207.0</ele><time>2026-04-30T11:25:07Z</time></trkpt><trkpt lat="53.78479184938614" lon="87.33165960759665"><ele>207.0</ele><time>2026-04-30T11:25:10Z</time></trkpt><trkpt lat="53.78482480082414" lon="87.33182744392332"><ele>207.0</ele><time>2026-04-30T11:25:12Z</time></trkpt><trkpt lat="53.78484315400676" lon="87.33197393511824"><ele>207.0</ele><time>2026-04-30T11:25:14Z</time></trkpt><trkpt lat="53.7848555537385" lon="87.33212926430315"><ele>206.8</ele><time>2026-04-30T11:25:16Z</time></trkpt><trkpt lat="53.7848744118224" lon="87.33230582251579"><ele>206.6</ele><time>2026-04-30T11:25:18Z</time></trkpt><trkpt lat="53.78488428098331" lon="87.33246730713601"><ele>206.4</ele><time>2026-04-30T11:25:20Z</time></trkpt><trkpt lat="53.78490439651017" lon="87.33261893689651"><ele>206.20000000000002</ele><time>2026-04-30T11:25:22Z</time></trkpt><trkpt lat="53.78492007216312" lon="87.33277960587439"><ele>206.0</ele><time>2026-04-30T11:25:24Z</time></trkpt><trkpt lat="53.784935431788156" lon="87.3329353445312"><ele>205.8</ele><time>2026-04-30T11:25:26Z</time></trkpt><trkpt lat="53.784944233866014" lon="87.33308775254369"><ele>205.60000000000002</ele><time>2026-04-30T11:25:28Z</time></trkpt><trkpt lat="53.784931761277946" lon="87.33324389667375"><ele>205.4</ele><time>2026-04-30T11:25:31Z</time></trkpt><trkpt lat="53.78497726452541" lon="87.3334765580826"><ele>205.2</ele><time>2026-04-30T11:25:33Z</time></trkpt><trkpt lat="53.785003781661935" lon="87.33364710358241"><ele>205.0</ele><time>2026-04-30T11:25:35Z</time></trkpt><trkpt lat="53.78502541563483" lon="87.33381420714761"><ele>205.0</ele><time>2026-04-30T11:25:37Z</time></trkpt><trkpt lat="53.78504825038808" lon="87.33398299654418"><ele>205.0</ele><time>2026-04-30T11:25:39Z</time></trkpt><trkpt lat="53.78507797635158" lon="87.33413776285968"><ele>205.0</ele><time>2026-04-30T11:25:41Z</time></trkpt><trkpt lat="53.785109515943155" lon="87.33427638152727"><ele>205.0</ele><time>2026-04-30T11:25:43Z</time></trkpt><trkpt lat="53.785149361336565" lon="87.33440801046116"><ele>205.0</ele><time>2026-04-30T11:25:45Z</time></trkpt><trkpt lat="53.7851863659253" lon="87.33453422411104"><ele>204.99999999999997</ele><time>2026-04-30T11:25:47Z</time></trkpt><trkpt lat="53.785233827051364" lon="87.33465278720267"><ele>205.0</ele><time>2026-04-30T11:25:49Z</time></trkpt><trkpt lat="53.78529221719871" lon="87.334746292995"><ele>205.0</ele><time>2026-04-30T11:25:51Z</time></trkpt><trkpt lat="53.78536904089229" lon="87.33484684914542"><ele>205.0</ele><time>2026-04-30T11:25:54Z</time></trkpt><trkpt lat="53.785451125974625" lon="87.3348989341816"><ele>204.99999999999997</ele><time>2026-04-30T11:25:57Z</time></trkpt><trkpt lat="53.78551040776055" lon="87.33496374492788"><ele>205.0</ele><time>2026-04-30T11:25:59Z</time></trkpt><trkpt lat="53.785583770756226" lon="87.33502600480246"><ele>204.99999999999997</ele><time>2026-04-30T11:26:02Z</time></trkpt><trkpt lat="53.78564022530971" lon="87.33507521209029"><ele>205.0</ele><time>2026-04-30T11:26:09Z</time></trkpt><trkpt lat="53.78572823177475" lon="87.33513166401539"><ele>205.0</ele><time>2026-04-30T11:26:24Z</time></trkpt><trkpt lat="53.78577111177552" lon="87.33524713685196"><ele>205.0</ele><time>2026-04-30T11:26:28Z</time></trkpt><trkpt lat="53.78584239088518" lon="87.335312496467"><ele>204.99999999999997</ele><time>2026-04-30T11:26:31Z</time></trkpt><trkpt lat="53.78591831032517" lon="87.33537400649396"><ele>205.0</ele><time>2026-04-30T11:26:33Z</time></trkpt><trkpt lat="53.7859962280582" lon="87.33541669811042"><ele>205.0</ele><time>2026-04-30T11:26:35Z</time></trkpt><trkpt lat="53.7860742265217" lon="87.33547141319448"><ele>205.0</ele><time>2026-04-30T11:26:37Z</time></trkpt><trkpt lat="53.7861330867657" lon="87.33553690042845"><ele>205.0</ele><time>2026-04-30T11:26:39Z</time></trkpt><trkpt lat="53.78619283201385" lon="87.3355834293082"><ele>205.0</ele><time>2026-04-30T11:26:41Z</time></trkpt><trkpt lat="53.786256149012175" lon="87.33562478922998"><ele>205.0</ele><time>2026-04-30T11:26:43Z</time></trkpt><trkpt lat="53.7863287558145" lon="87.33568558004646"><ele>205.0</ele><time>2026-04-30T11:26:47Z</time></trkpt><trkpt lat="53.78639231105497" lon="87.33574492871698"><ele>205.0</ele><time>2026-04-30T11:26:50Z</time></trkpt><trkpt lat="53.78646622819773" lon="87.33580122477"><ele>205.0</ele><time>2026-04-30T11:26:52Z</time></trkpt><trkpt lat="53.78663298965139" lon="87.3359493010788"><ele>205.0</ele><time>2026-04-30T11:26:54Z</time></trkpt><trkpt lat="53.78670953481611" lon="87.3360015493226"><ele>205.0</ele><time>2026-04-30T11:26:56Z</time></trkpt><trkpt lat="53.78678453719844" lon="87.33604824107768"><ele>205.0</ele><time>2026-04-30T11:26:58Z</time></trkpt><trkpt lat="53.78686270896679" lon="87.33610208696847"><ele>205.0</ele><time>2026-04-30T11:27:00Z</time></trkpt><trkpt lat="53.786935076162315" lon="87.33615977983592"><ele>205.4</ele><time>2026-04-30T11:27:02Z</time></trkpt><trkpt lat="53.78700946183703" lon="87.33620889367505"><ele>205.8</ele><time>2026-04-30T11:27:04Z</time></trkpt><trkpt lat="53.787080887342945" lon="87.33626293801787"><ele>206.2</ele><time>2026-04-30T11:27:06Z</time></trkpt><trkpt lat="53.78717040733946" lon="87.33632987434119"><ele>206.6</ele><time>2026-04-30T11:27:08Z</time></trkpt><trkpt lat="53.787256446836174" lon="87.33639178530647"><ele>207.0</ele><time>2026-04-30T11:27:10Z</time></trkpt><trkpt lat="53.78734993916074" lon="87.33645736840573"><ele>207.0</ele><time>2026-04-30T11:27:12Z</time></trkpt><trkpt lat="53.78744970642334" lon="87.33652849573569"><ele>207.0</ele><time>2026-04-30T11:27:15Z</time></trkpt><trkpt lat="53.78756481940987" lon="87.3366125613612"><ele>207.0</ele><time>2026-04-30T11:27:17Z</time></trkpt><trkpt lat="53.78764501806778" lon="87.33668869987471"><ele>207.0</ele><time>2026-04-30T11:27:19Z</time></trkpt><trkpt lat="53.78772370055531" lon="87.33676517097605"><ele>207.0</ele><time>2026-04-30T11:27:21Z</time></trkpt><trkpt lat="53.78779802289949" lon="87.33683760878179"><ele>207.66666666666666</ele><time>2026-04-30T11:27:23Z</time></trkpt><trkpt lat="53.78786180482287" lon="87.33690613181675"><ele>208.33333333333331</ele><time>2026-04-30T11:27:25Z</time></trkpt><trkpt lat="53.78793170339976" lon="87.33691428075858"><ele>209.0</ele><time>2026-04-30T11:27:27Z</time></trkpt><trkpt lat="53.78800870796808" lon="87.33692832992496"><ele>209.66666666666666</ele><time>2026-04-30T11:27:29Z</time></trkpt><trkpt lat="53.78808252001716" lon="87.33701744194715"><ele>210.33333333333331</ele><time>2026-04-30T11:27:31Z</time></trkpt><trkpt lat="53.78814041699995" lon="87.33712859227413"><ele>211.0</ele><time>2026-04-30T11:27:33Z</time></trkpt><trkpt lat="53.788191811992405" lon="87.33725214235595"><ele>210.99999999999997</ele><time>2026-04-30T11:27:35Z</time></trkpt><trkpt lat="53.78822043626372" lon="87.33739398518914"><ele>211.0</ele><time>2026-04-30T11:27:38Z</time></trkpt><trkpt lat="53.78827223573011" lon="87.33751323724206"><ele>211.0</ele><time>2026-04-30T11:27:40Z</time></trkpt><trkpt lat="53.788315847426176" lon="87.33764423348498"><ele>211.0</ele><time>2026-04-30T11:27:42Z</time></trkpt><trkpt lat="53.78836502886231" lon="87.33775345766718"><ele>210.99999999999997</ele><time>2026-04-30T11:27:44Z</time></trkpt><trkpt lat="53.78840226621373" lon="87.33788982791863"><ele>211.0</ele><time>2026-04-30T11:27:46Z</time></trkpt><trkpt lat="53.788443700981716" lon="87.33798712278569"><ele>211.0</ele><time>2026-04-30T11:27:48Z</time></trkpt><trkpt lat="53.78849265583343" lon="87.3380900739797"><ele>211.0</ele><time>2026-04-30T11:27:50Z</time></trkpt><trkpt lat="53.78853288765357" lon="87.33821203511208"><ele>211.0</ele><time>2026-04-30T11:27:53Z</time></trkpt><trkpt lat="53.78856092139402" lon="87.33831476407077"><ele>211.0</ele><time>2026-04-30T11:27:55Z</time></trkpt><trkpt lat="53.78867786105894" lon="87.33853090621507"><ele>211.0</ele><time>2026-04-30T11:27:57Z</time></trkpt><trkpt lat="53.78872658543498" lon="87.33864869048972"><ele>210.99999999999997</ele><time>2026-04-30T11:27:59Z</time></trkpt><trkpt lat="53.78877547518173" lon="87.33875736691941"><ele>211.0</ele><time>2026-04-30T11:28:01Z</time></trkpt><trkpt lat="53.78881786384864" lon="87.338876696245"><ele>211.0</ele><time>2026-04-30T11:28:03Z</time></trkpt><trkpt lat="53.78886072804147" lon="87.33900624831777"><ele>211.0</ele><time>2026-04-30T11:28:05Z</time></trkpt><trkpt lat="53.788906681610946" lon="87.33912430283853"><ele>210.99999999999997</ele><time>2026-04-30T11:28:07Z</time></trkpt><trkpt lat="53.788941724244545" lon="87.33924741860196"><ele>211.0</ele><time>2026-04-30T11:28:09Z</time></trkpt><trkpt lat="53.788983914524735" lon="87.33935832419346"><ele>210.71428571428572</ele><time>2026-04-30T11:28:11Z</time></trkpt><trkpt lat="53.78902996071686" lon="87.33945749497983"><ele>210.42857142857144</ele><time>2026-04-30T11:28:13Z</time></trkpt><trkpt lat="53.78906482233869" lon="87.3395507080963"><ele>210.14285714285714</ele><time>2026-04-30T11:28:15Z</time></trkpt><trkpt lat="53.78906381083226" lon="87.33968011455671"><ele>209.85714285714286</ele><time>2026-04-30T11:28:18Z</time></trkpt><trkpt lat="53.789109032860516" lon="87.33976657383185"><ele>209.57142857142856</ele><time>2026-04-30T11:28:20Z</time></trkpt><trkpt lat="53.78913866305998" lon="87.33987186312108"><ele>209.28571428571428</ele><time>2026-04-30T11:28:22Z</time></trkpt><trkpt lat="53.789184009291134" lon="87.33997949690335"><ele>209.0</ele><time>2026-04-30T11:28:24Z</time></trkpt><trkpt lat="53.78921981957403" lon="87.34009434754792"><ele>209.16666666666669</ele><time>2026-04-30T11:28:26Z</time></trkpt><trkpt lat="53.789271866653266" lon="87.34020753708413"><ele>209.33333333333334</ele><time>2026-04-30T11:28:28Z</time></trkpt><trkpt lat="53.7893140131789" lon="87.34029972869568"><ele>209.5</ele><time>2026-04-30T11:28:30Z</time></trkpt><trkpt lat="53.78934783753132" lon="87.34039257940132"><ele>209.66666666666669</ele><time>2026-04-30T11:28:32Z</time></trkpt><trkpt lat="53.78942165173085" lon="87.34037185616351"><ele>209.83333333333334</ele><time>2026-04-30T11:28:35Z</time></trkpt><trkpt lat="53.78938523625066" lon="87.34047388474146"><ele>210.0</ele><time>2026-04-30T11:33:16.999Z</time></trkpt><trkpt lat="53.789423754768045" lon="87.34061293625157"><ele>210.0</ele><time>2026-04-30T11:33:19.999Z</time></trkpt><trkpt lat="53.78946555908666" lon="87.34072395806368"><ele>210.0</ele><time>2026-04-30T11:33:22.999Z</time></trkpt><trkpt lat="53.78950638790803" lon="87.34081490912918"><ele>210.0</ele><time>2026-04-30T11:33:26.999Z</time></trkpt><trkpt lat="53.7895454870679" lon="87.34091298778905"><ele>210.0</ele><time>2026-04-30T11:33:32.999Z</time></trkpt><trkpt lat="53.789581944067514" lon="87.34105893679501"><ele>210.0</ele><time>2026-04-30T11:33:35.999Z</time></trkpt><trkpt lat="53.78961686297472" lon="87.34120707678572"><ele>210.0</ele><time>2026-04-30T11:33:38.999Z</time></trkpt><trkpt lat="53.78965527134591" lon="87.34129776176138"><ele>209.83333333333334</ele><time>2026-04-30T11:33:40.999Z</time></trkpt><trkpt lat="53.789692084497396" lon="87.34140182269064"><ele>209.66666666666669</ele><time>2026-04-30T11:33:42.999Z</time></trkpt><trkpt lat="53.789731992941114" lon="87.34150828913397"><ele>209.5</ele><time>2026-04-30T11:33:44.999Z</time></trkpt><trkpt lat="53.78977017533039" lon="87.34161866233586"><ele>209.33333333333334</ele><time>2026-04-30T11:33:47Z</time></trkpt><trkpt lat="53.789812723076885" lon="87.34172907175092"><ele>209.16666666666669</ele><time>2026-04-30T11:33:49Z</time></trkpt><trkpt lat="53.78985117566347" lon="87.34184582540446"><ele>209.0</ele><time>2026-04-30T11:33:51Z</time></trkpt><trkpt lat="53.78989203226138" lon="87.34195804964833"><ele>209.00000000000003</ele><time>2026-04-30T11:33:53Z</time></trkpt><trkpt lat="53.78992538759261" lon="87.34205725809599"><ele>209.0</ele><time>2026-04-30T11:33:55Z</time></trkpt><trkpt lat="53.78997207062613" lon="87.3421796977796"><ele>209.0</ele><time>2026-04-30T11:34:31Z</time></trkpt><trkpt lat="53.7900155841837" lon="87.34228095276585"><ele>209.0</ele><time>2026-04-30T11:34:35Z</time></trkpt><trkpt lat="53.790041268866936" lon="87.3423947680975"><ele>209.00000000000003</ele><time>2026-04-30T11:34:38Z</time></trkpt><trkpt lat="53.79008412814376" lon="87.34251304612332"><ele>209.0</ele><time>2026-04-30T11:34:41Z</time></trkpt><trkpt lat="53.79011941162092" lon="87.34262662657987"><ele>209.00000000000003</ele><time>2026-04-30T11:34:44Z</time></trkpt><trkpt lat="53.790166084017955" lon="87.34273464872976"><ele>209.0</ele><time>2026-04-30T11:34:48Z</time></trkpt><trkpt lat="53.7902081277457" lon="87.34283722011166"><ele>209.0</ele><time>2026-04-30T11:34:51Z</time></trkpt><trkpt lat="53.790263967870104" lon="87.34294067701956"><ele>209.0</ele><time>2026-04-30T11:34:54Z</time></trkpt><trkpt lat="53.79030050868975" lon="87.34303212262306"><ele>209.00000000000003</ele><time>2026-04-30T11:34:56Z</time></trkpt><trkpt lat="53.790354531135435" lon="87.34316436972284"><ele>209.0</ele><time>2026-04-30T11:34:59Z</time></trkpt><trkpt lat="53.79038761176006" lon="87.34326582301138"><ele>208.85714285714286</ele><time>2026-04-30T11:35:01Z</time></trkpt><trkpt lat="53.79042441468828" lon="87.34336007454917"><ele>208.71428571428572</ele><time>2026-04-30T11:35:03Z</time></trkpt><trkpt lat="53.790461878318" lon="87.34344810735111"><ele>208.57142857142856</ele><time>2026-04-30T11:35:05Z</time></trkpt><trkpt lat="53.79050405753909" lon="87.34356099070223"><ele>208.42857142857144</ele><time>2026-04-30T11:35:07Z</time></trkpt><trkpt lat="53.79054657909882" lon="87.34366250403664"><ele>208.2857142857143</ele><time>2026-04-30T11:35:09Z</time></trkpt><trkpt lat="53.790584378743254" lon="87.34376340852455"><ele>208.14285714285714</ele><time>2026-04-30T11:35:11Z</time></trkpt><trkpt lat="53.79061837770598" lon="87.34386588838181"><ele>208.0</ele><time>2026-04-30T11:35:13Z</time></trkpt><trkpt lat="53.79065740405483" lon="87.34396168977383"><ele>208.0</ele><time>2026-04-30T11:35:15Z</time></trkpt><trkpt lat="53.79069099222289" lon="87.3440616434667"><ele>208.0</ele><time>2026-04-30T11:35:17Z</time></trkpt><trkpt lat="53.79072800301689" lon="87.34415323133841"><ele>208.0</ele><time>2026-04-30T11:35:19Z</time></trkpt><trkpt lat="53.79076447692132" lon="87.34424190450801"><ele>208.0</ele><time>2026-04-30T11:35:21Z</time></trkpt><trkpt lat="53.790810118185554" lon="87.34434996994582"><ele>208.0</ele><time>2026-04-30T11:35:23Z</time></trkpt><trkpt lat="53.790850044825355" lon="87.34447766362923"><ele>208.0</ele><time>2026-04-30T11:35:25Z</time></trkpt><trkpt lat="53.79088617537109" lon="87.34460484394398"><ele>208.0</ele><time>2026-04-30T11:35:27Z</time></trkpt><trkpt lat="53.790913360034466" lon="87.34472454238121"><ele>208.16666666666666</ele><time>2026-04-30T11:35:29Z</time></trkpt><trkpt lat="53.79094753324827" lon="87.34482757354267"><ele>208.33333333333331</ele><time>2026-04-30T11:35:31Z</time></trkpt><trkpt lat="53.79099290176103" lon="87.3449177030706"><ele>208.5</ele><time>2026-04-30T11:35:33Z</time></trkpt><trkpt lat="53.79104074308781" lon="87.34504556374246"><ele>208.66666666666669</ele><time>2026-04-30T11:35:35Z</time></trkpt><trkpt lat="53.791090418923474" lon="87.34518879117493"><ele>208.83333333333334</ele><time>2026-04-30T11:35:37Z</time></trkpt><trkpt lat="53.791142191616316" lon="87.34532925648894"><ele>209.0</ele><time>2026-04-30T11:35:39Z</time></trkpt><trkpt lat="53.791197086309346" lon="87.34547345575606"><ele>209.2</ele><time>2026-04-30T11:35:41Z</time></trkpt><trkpt lat="53.79126040296357" lon="87.34561331260849"><ele>209.39999999999998</ele><time>2026-04-30T11:35:43Z</time></trkpt><trkpt lat="53.791295331809735" lon="87.34573354962056"><ele>209.6</ele><time>2026-04-30T11:35:46Z</time></trkpt><trkpt lat="53.791380644850065" lon="87.34589541938064"><ele>209.8</ele><time>2026-04-30T11:35:47Z</time></trkpt><trkpt lat="53.79143166837197" lon="87.34602300622187"><ele>210.0</ele><time>2026-04-30T11:35:49Z</time></trkpt><trkpt lat="53.7914820950515" lon="87.34614135148541"><ele>210.0</ele><time>2026-04-30T11:35:51Z</time></trkpt><trkpt lat="53.791526543289024" lon="87.34624213220161"><ele>210.0</ele><time>2026-04-30T11:35:53Z</time></trkpt><trkpt lat="53.791545503369086" lon="87.3463542145177"><ele>210.0</ele><time>2026-04-30T11:35:55Z</time></trkpt><trkpt lat="53.79158238521564" lon="87.34645752493674"><ele>210.0</ele><time>2026-04-30T11:35:57Z</time></trkpt><trkpt lat="53.791641703414626" lon="87.34657041244303"><ele>210.0</ele><time>2026-04-30T11:35:59Z</time></trkpt><trkpt lat="53.79168309422171" lon="87.34668365332669"><ele>210.0</ele><time>2026-04-30T11:36:01Z</time></trkpt><trkpt lat="53.79170113641154" lon="87.34679319220665"><ele>210.0</ele><time>2026-04-30T11:36:03Z</time></trkpt><trkpt lat="53.791732129016026" lon="87.34690407006869"><ele>210.0</ele><time>2026-04-30T11:36:05Z</time></trkpt><trkpt lat="53.79178536398728" lon="87.34704160393946"><ele>210.0</ele><time>2026-04-30T11:36:07Z</time></trkpt><trkpt lat="53.79184185502146" lon="87.3471562146999"><ele>210.0</ele><time>2026-04-30T11:36:09Z</time></trkpt><trkpt lat="53.79191123248795" lon="87.34727481657218"><ele>210.0</ele><time>2026-04-30T11:36:11Z</time></trkpt><trkpt lat="53.79199514637962" lon="87.34736721904162"><ele>210.16666666666666</ele><time>2026-04-30T11:36:13Z</time></trkpt><trkpt lat="53.79205819490177" lon="87.3474684502037"><ele>210.33333333333331</ele><time>2026-04-30T11:36:15Z</time></trkpt><trkpt lat="53.79209225460589" lon="87.34758759190336"><ele>210.5</ele><time>2026-04-30T11:36:17Z</time></trkpt><trkpt lat="53.79214427245865" lon="87.34772017926498"><ele>210.66666666666666</ele><time>2026-04-30T11:36:19Z</time></trkpt><trkpt lat="53.7922046847573" lon="87.34783857209972"><ele>210.83333333333331</ele><time>2026-04-30T11:36:21Z</time></trkpt><trkpt lat="53.79224422387239" lon="87.34794071543682"><ele>211.0</ele><time>2026-04-30T11:36:23Z</time></trkpt><trkpt lat="53.792297226442685" lon="87.34803237477173"><ele>210.99999999999997</ele><time>2026-04-30T11:36:27Z</time></trkpt><trkpt lat="53.79235762873239" lon="87.34793751281275"><ele>211.0</ele><time>2026-04-30T11:36:31Z</time></trkpt><trkpt lat="53.7924040263514" lon="87.34780959917377"><ele>211.0</ele><time>2026-04-30T11:36:34Z</time></trkpt><trkpt lat="53.792461893231" lon="87.347753510332"><ele>211.0</ele><time>2026-04-30T11:36:42Z</time></trkpt><trkpt lat="53.79244036414473" lon="87.3478757700398"><ele>210.99999999999997</ele><time>2026-04-30T11:37:01Z</time></trkpt><trkpt lat="53.79246702671903" lon="87.34801301754773"><ele>211.0</ele><time>2026-04-30T11:37:03Z</time></trkpt><trkpt lat="53.79248195400623" lon="87.34812244411548"><ele>211.16666666666666</ele><time>2026-04-30T11:37:05Z</time></trkpt><trkpt lat="53.79248058273516" lon="87.34824482226824"><ele>211.33333333333331</ele><time>2026-04-30T11:37:07Z</time></trkpt><trkpt lat="53.79249315033329" lon="87.34840048966089"><ele>211.5</ele><time>2026-04-30T11:37:10Z</time></trkpt><trkpt lat="53.79254176462531" lon="87.34846991672914"><ele>211.66666666666669</ele><time>2026-04-30T11:37:12Z</time></trkpt><trkpt lat="53.79258376115768" lon="87.34855309454436"><ele>211.83333333333334</ele><time>2026-04-30T11:37:14Z</time></trkpt><trkpt lat="53.79264299621652" lon="87.34867588790401"><ele>212.0</ele><time>2026-04-30T11:37:17Z</time></trkpt><trkpt lat="53.79269349761911" lon="87.34874742301538"><ele>212.0</ele><time>2026-04-30T11:37:19Z</time></trkpt><trkpt lat="53.79274182649995" lon="87.34883968627871"><ele>212.0</ele><time>2026-04-30T11:37:22Z</time></trkpt><trkpt lat="53.7927946962038" lon="87.3489610384309"><ele>212.0</ele><time>2026-04-30T11:37:25Z</time></trkpt><trkpt lat="53.792849365911806" lon="87.34903204528936"><ele>212.0</ele><time>2026-04-30T11:37:27Z</time></trkpt><trkpt lat="53.79294248854509" lon="87.34919305634881"><ele>212.0</ele><time>2026-04-30T11:37:30Z</time></trkpt><trkpt lat="53.793012266494735" lon="87.34928977545425"><ele>211.8</ele><time>2026-04-30T11:37:32Z</time></trkpt><trkpt lat="53.79315753456647" lon="87.34946579619627"><ele>211.6</ele><time>2026-04-30T11:37:35Z</time></trkpt><trkpt lat="53.79322422882733" lon="87.3495531119962"><ele>211.4</ele><time>2026-04-30T11:37:37Z</time></trkpt><trkpt lat="53.79328743030022" lon="87.34963875687255"><ele>211.20000000000002</ele><time>2026-04-30T11:37:39Z</time></trkpt><trkpt lat="53.793348692636556" lon="87.34972266792936"><ele>211.0</ele><time>2026-04-30T11:37:41Z</time></trkpt><trkpt lat="53.79341118445674" lon="87.34980877327025"><ele>210.85714285714286</ele><time>2026-04-30T11:37:43Z</time></trkpt><trkpt lat="53.79346709510364" lon="87.34990434425372"><ele>210.71428571428572</ele><time>2026-04-30T11:37:45Z</time></trkpt><trkpt lat="53.79351725569507" lon="87.35000033311063"><ele>210.57142857142856</ele><time>2026-04-30T11:37:47Z</time></trkpt><trkpt lat="53.79357499379324" lon="87.35007657758297"><ele>210.42857142857144</ele><time>2026-04-30T11:37:49Z</time></trkpt><trkpt lat="53.793626835693544" lon="87.35014811542028"><ele>210.28571428571428</ele><time>2026-04-30T11:37:51Z</time></trkpt><trkpt lat="53.793660331945055" lon="87.35023848430063"><ele>210.14285714285714</ele><time>2026-04-30T11:37:53Z</time></trkpt><trkpt lat="53.793702011717365" lon="87.35037161950696"><ele>210.0</ele><time>2026-04-30T11:37:56Z</time></trkpt><trkpt lat="53.79376223218254" lon="87.35045203575362"><ele>210.0</ele><time>2026-04-30T11:37:58Z</time></trkpt><trkpt lat="53.79382850850315" lon="87.35052014811524"><ele>210.0</ele><time>2026-04-30T11:38:00Z</time></trkpt><trkpt lat="53.793886073029384" lon="87.35060133734666"><ele>210.0</ele><time>2026-04-30T11:38:02Z</time></trkpt><trkpt lat="53.79394694595237" lon="87.35069488928688"><ele>210.0</ele><time>2026-04-30T11:38:05Z</time></trkpt><trkpt lat="53.79399348862775" lon="87.35077005154197"><ele>210.0</ele><time>2026-04-30T11:38:06Z</time></trkpt><trkpt lat="53.79406123058097" lon="87.35083755175519"><ele>210.0</ele><time>2026-04-30T11:38:07Z</time></trkpt><trkpt lat="53.7941243940826" lon="87.35093663338361"><ele>210.0</ele><time>2026-04-30T11:38:09Z</time></trkpt><trkpt lat="53.794202045010636" lon="87.35102804635885"><ele>210.0</ele><time>2026-04-30T11:38:11Z</time></trkpt><trkpt lat="53.79427556554189" lon="87.35110741294628"><ele>210.0</ele><time>2026-04-30T11:38:13Z</time></trkpt><trkpt lat="53.79435155934338" lon="87.35120738756396"><ele>210.0</ele><time>2026-04-30T11:38:15Z</time></trkpt><trkpt lat="53.79441334980181" lon="87.35131710245994"><ele>210.0</ele><time>2026-04-30T11:38:17Z</time></trkpt><trkpt lat="53.794471809299715" lon="87.35140183478043"><ele>210.0</ele><time>2026-04-30T11:38:19Z</time></trkpt><trkpt lat="53.79453208255927" lon="87.35147936033923"><ele>210.0</ele><time>2026-04-30T11:38:21Z</time></trkpt><trkpt lat="53.79458376711042" lon="87.35157476384319"><ele>210.0</ele><time>2026-04-30T11:38:23Z</time></trkpt><trkpt lat="53.794639544071565" lon="87.3516534937031"><ele>210.0</ele><time>2026-04-30T11:38:25Z</time></trkpt><trkpt lat="53.79467011311047" lon="87.35175974785568"><ele>210.0</ele><time>2026-04-30T11:38:28Z</time></trkpt><trkpt lat="53.794740017540825" lon="87.35187601370727"><ele>210.0</ele><time>2026-04-30T11:38:31Z</time></trkpt><trkpt lat="53.794792112415216" lon="87.3519646343064"><ele>210.0</ele><time>2026-04-30T11:38:33Z</time></trkpt><trkpt lat="53.79484710747638" lon="87.35204066059005"><ele>210.0</ele><time>2026-04-30T11:38:35Z</time></trkpt><trkpt lat="53.794903093244145" lon="87.35214450829547"><ele>210.0</ele><time>2026-04-30T11:38:37Z</time></trkpt><trkpt lat="53.79496385164472" lon="87.35224327404796"><ele>210.0</ele><time>2026-04-30T11:38:39Z</time></trkpt><trkpt lat="53.7950174823346" lon="87.35232485729149"><ele>210.0</ele><time>2026-04-30T11:38:41Z</time></trkpt><trkpt lat="53.795064876686816" lon="87.35239881418482"><ele>210.0</ele><time>2026-04-30T11:38:44Z</time></trkpt><trkpt lat="53.795104382421286" lon="87.35249524920052"><ele>210.0</ele><time>2026-04-30T11:38:49Z</time></trkpt><trkpt lat="53.79516973992778" lon="87.352606337638"><ele>210.0</ele><time>2026-04-30T11:38:52Z</time></trkpt><trkpt lat="53.79522626750315" lon="87.35272174185546"><ele>210.0</ele><time>2026-04-30T11:38:54Z</time></trkpt><trkpt lat="53.79529346073091" lon="87.35279704585692"><ele>210.0</ele><time>2026-04-30T11:38:56Z</time></trkpt><trkpt lat="53.79536495040457" lon="87.35291766940504"><ele>210.0</ele><time>2026-04-30T11:38:58Z</time></trkpt><trkpt lat="53.79543578741789" lon="87.35302023815936"><ele>210.0</ele><time>2026-04-30T11:39:00Z</time></trkpt><trkpt lat="53.79551460098816" lon="87.35312977644129"><ele>210.0</ele><time>2026-04-30T11:39:02Z</time></trkpt><trkpt lat="53.79557790985488" lon="87.35321886324552"><ele>210.0</ele><time>2026-04-30T11:39:03Z</time></trkpt><trkpt lat="53.79564365508656" lon="87.35333870349999"><ele>210.0</ele><time>2026-04-30T11:39:05Z</time></trkpt><trkpt lat="53.795709474190545" lon="87.35344718894645"><ele>210.0</ele><time>2026-04-30T11:39:07Z</time></trkpt><trkpt lat="53.79577058687659" lon="87.35355940511032"><ele>210.0</ele><time>2026-04-30T11:39:09Z</time></trkpt><trkpt lat="53.79584220600655" lon="87.35368078114371"><ele>210.0</ele><time>2026-04-30T11:39:11Z</time></trkpt><trkpt lat="53.79592395721555" lon="87.35380872863153"><ele>210.0</ele><time>2026-04-30T11:39:13Z</time></trkpt><trkpt lat="53.79599588073178" lon="87.35394104828642"><ele>210.0</ele><time>2026-04-30T11:39:15Z</time></trkpt><trkpt lat="53.796048764910054" lon="87.35402298601201"><ele>210.0</ele><time>2026-04-30T11:39:17Z</time></trkpt><trkpt lat="53.79607769343343" lon="87.35412903457495"><ele>210.0</ele><time>2026-04-30T11:40:36Z</time></trkpt><trkpt lat="53.796108052242545" lon="87.35422732405203"><ele>210.0</ele><time>2026-04-30T11:40:38Z</time></trkpt><trkpt lat="53.7961569835488" lon="87.35433481313868"><ele>210.0</ele><time>2026-04-30T11:40:40Z</time></trkpt><trkpt lat="53.79617878468446" lon="87.35448815817182"><ele>210.0</ele><time>2026-04-30T11:40:42Z</time></trkpt><trkpt lat="53.79620721130163" lon="87.35464737593621"><ele>210.0</ele><time>2026-04-30T11:40:44Z</time></trkpt><trkpt lat="53.79626114214351" lon="87.35479121405939"><ele>210.0</ele><time>2026-04-30T11:40:46Z</time></trkpt><trkpt lat="53.796313804421516" lon="87.35493376418147"><ele>210.0</ele><time>2026-04-30T11:40:48Z</time></trkpt><trkpt lat="53.79636068673294" lon="87.35509076414505"><ele>210.0</ele><time>2026-04-30T11:40:50Z</time></trkpt><trkpt lat="53.79641599660234" lon="87.35524218720128"><ele>210.0</ele><time>2026-04-30T11:40:52Z</time></trkpt><trkpt lat="53.79647180759018" lon="87.35539471604103"><ele>210.0</ele><time>2026-04-30T11:40:54Z</time></trkpt><trkpt lat="53.796524706463074" lon="87.35554890651498"><ele>210.0</ele><time>2026-04-30T11:40:56Z</time></trkpt><trkpt lat="53.796580664492524" lon="87.35570042059142"><ele>210.0</ele><time>2026-04-30T11:40:58Z</time></trkpt><trkpt lat="53.796634565073376" lon="87.35585267171473"><ele>209.8</ele><time>2026-04-30T11:41:00Z</time></trkpt><trkpt lat="53.79669152233985" lon="87.35600619230487"><ele>209.6</ele><time>2026-04-30T11:41:02Z</time></trkpt><trkpt lat="53.796750293113256" lon="87.35616635459043"><ele>209.39999999999998</ele><time>2026-04-30T11:41:04Z</time></trkpt><trkpt lat="53.796800570964216" lon="87.35631381037066"><ele>209.2</ele><time>2026-04-30T11:41:06Z</time></trkpt><trkpt lat="53.79684993862077" lon="87.3564496704612"><ele>209.0</ele><time>2026-04-30T11:41:08Z</time></trkpt><trkpt lat="53.79689850464726" lon="87.35658875425531"><ele>209.0</ele><time>2026-04-30T11:41:10Z</time></trkpt><trkpt lat="53.79695128841446" lon="87.35673047483304"><ele>209.0</ele><time>2026-04-30T11:41:12Z</time></trkpt><trkpt lat="53.79699866352479" lon="87.35687973356093"><ele>209.0</ele><time>2026-04-30T11:41:14Z</time></trkpt><trkpt lat="53.79704091353371" lon="87.3570110241061"><ele>209.0</ele><time>2026-04-30T11:41:16Z</time></trkpt><trkpt lat="53.79709661731773" lon="87.35710901209886"><ele>209.0</ele><time>2026-04-30T11:41:18Z</time></trkpt><trkpt lat="53.7971432973489" lon="87.35724618793863"><ele>208.79999999999998</ele><time>2026-04-30T11:41:20Z</time></trkpt><trkpt lat="53.79719311165052" lon="87.3574020674018"><ele>208.6</ele><time>2026-04-30T11:41:22Z</time></trkpt><trkpt lat="53.797245806656385" lon="87.35755161398802"><ele>208.4</ele><time>2026-04-30T11:41:24Z</time></trkpt><trkpt lat="53.7972986534802" lon="87.35770143582938"><ele>208.2</ele><time>2026-04-30T11:41:26Z</time></trkpt><trkpt lat="53.797348826684896" lon="87.35785588849467"><ele>208.0</ele><time>2026-04-30T11:41:28Z</time></trkpt><trkpt lat="53.797424418197714" lon="87.35807111676003"><ele>208.0</ele><time>2026-04-30T11:41:31Z</time></trkpt><trkpt lat="53.79746856292166" lon="87.35821020046794"><ele>208.0</ele><time>2026-04-30T11:41:33Z</time></trkpt><trkpt lat="53.7975168351881" lon="87.35831630351657"><ele>208.0</ele><time>2026-04-30T11:41:36Z</time></trkpt><trkpt lat="53.797554240214524" lon="87.35842617487228"><ele>208.0</ele><time>2026-04-30T11:41:37Z</time></trkpt><trkpt lat="53.79760720690146" lon="87.35858072127665"><ele>208.0</ele><time>2026-04-30T11:41:39Z</time></trkpt><trkpt lat="53.79765681746784" lon="87.35872245893817"><ele>207.8</ele><time>2026-04-30T11:41:41Z</time></trkpt><trkpt lat="53.797702654693964" lon="87.35885057608269"><ele>207.60000000000002</ele><time>2026-04-30T11:41:43Z</time></trkpt><trkpt lat="53.797753888709785" lon="87.35896014402334"><ele>207.39999999999998</ele><time>2026-04-30T11:41:56Z</time></trkpt><trkpt lat="53.79779386065192" lon="87.35911113964926"><ele>207.2</ele><time>2026-04-30T11:41:59Z</time></trkpt><trkpt lat="53.79783824125133" lon="87.35923795410243"><ele>207.0</ele><time>2026-04-30T11:42:01Z</time></trkpt><trkpt lat="53.797888145723775" lon="87.35937816837003"><ele>207.0</ele><time>2026-04-30T11:42:03Z</time></trkpt><trkpt lat="53.797935070622785" lon="87.35951572486425"><ele>207.0</ele><time>2026-04-30T11:42:05Z</time></trkpt><trkpt lat="53.79798490961885" lon="87.35965893216029"><ele>207.0</ele><time>2026-04-30T11:42:07Z</time></trkpt><trkpt lat="53.798035999315445" lon="87.35981212263953"><ele>207.0</ele><time>2026-04-30T11:42:09Z</time></trkpt><trkpt lat="53.798090035664956" lon="87.35996594838444"><ele>207.0</ele><time>2026-04-30T11:42:11Z</time></trkpt><trkpt lat="53.798143171806686" lon="87.36012322422609"><ele>207.2</ele><time>2026-04-30T11:42:13Z</time></trkpt><trkpt lat="53.79820101865382" lon="87.36028430356178"><ele>207.39999999999998</ele><time>2026-04-30T11:42:15Z</time></trkpt><trkpt lat="53.79825323855695" lon="87.36043609512373"><ele>207.60000000000002</ele><time>2026-04-30T11:42:17Z</time></trkpt><trkpt lat="53.79830256825812" lon="87.36057568946254"><ele>207.8</ele><time>2026-04-30T11:42:19Z</time></trkpt><trkpt lat="53.7983380200129" lon="87.3606717949209"><ele>208.0</ele><time>2026-04-30T11:42:20Z</time></trkpt><trkpt lat="53.79838271840799" lon="87.36083292739526"><ele>208.0</ele><time>2026-04-30T11:42:22Z</time></trkpt><trkpt lat="53.79841976016577" lon="87.36096475808083"><ele>208.0</ele><time>2026-04-30T11:42:24Z</time></trkpt><trkpt lat="53.798458707649424" lon="87.36112635721095"><ele>208.0</ele><time>2026-04-30T11:42:26Z</time></trkpt><trkpt lat="53.79847804305317" lon="87.36127253797768"><ele>208.0</ele><time>2026-04-30T11:42:28Z</time></trkpt><trkpt lat="53.79850323554913" lon="87.36140379809723"><ele>208.0</ele><time>2026-04-30T11:42:31Z</time></trkpt><trkpt lat="53.798562259727376" lon="87.36160041939495"><ele>208.0</ele><time>2026-04-30T11:42:33Z</time></trkpt><trkpt lat="53.79859792189035" lon="87.3617785418524"><ele>208.0</ele><time>2026-04-30T11:42:35Z</time></trkpt><trkpt lat="53.798621031363396" lon="87.36196233560162"><ele>208.0</ele><time>2026-04-30T11:42:37Z</time></trkpt><trkpt lat="53.798654222270365" lon="87.36213764301972"><ele>208.0</ele><time>2026-04-30T11:42:39Z</time></trkpt><trkpt lat="53.798693662846595" lon="87.36232254348748"><ele>208.0</ele><time>2026-04-30T11:42:41Z</time></trkpt><trkpt lat="53.798724258856694" lon="87.36250463774799"><ele>208.2</ele><time>2026-04-30T11:42:43Z</time></trkpt><trkpt lat="53.798763235399605" lon="87.36267697725926"><ele>208.4</ele><time>2026-04-30T11:42:45Z</time></trkpt><trkpt lat="53.79878616655258" lon="87.36283593991223"><ele>208.6</ele><time>2026-04-30T11:42:47Z</time></trkpt><trkpt lat="53.798811903128254" lon="87.3629937868521"><ele>208.79999999999998</ele><time>2026-04-30T11:42:49Z</time></trkpt><trkpt lat="53.79884574747844" lon="87.3631232154525"><ele>209.0</ele><time>2026-04-30T11:42:51Z</time></trkpt><trkpt lat="53.79885190529721" lon="87.36329396989005"><ele>209.0</ele><time>2026-04-30T11:42:53Z</time></trkpt><trkpt lat="53.79887124497371" lon="87.36346144491321"><ele>209.0</ele><time>2026-04-30T11:42:55Z</time></trkpt><trkpt lat="53.79890443542872" lon="87.36361023315834"><ele>209.0</ele><time>2026-04-30T11:42:57Z</time></trkpt><trkpt lat="53.798939597638395" lon="87.36378657108399"><ele>209.0</ele><time>2026-04-30T11:43:00Z</time></trkpt><trkpt lat="53.79899347467455" lon="87.36391761899843"><ele>209.0</ele><time>2026-04-30T11:43:01Z</time></trkpt><trkpt lat="53.799021067987745" lon="87.36408067223941"><ele>208.83333333333334</ele><time>2026-04-30T11:43:03Z</time></trkpt><trkpt lat="53.79905110982914" lon="87.36424006400328"><ele>208.66666666666669</ele><time>2026-04-30T11:43:05Z</time></trkpt><trkpt lat="53.79907880401512" lon="87.36439291732572"><ele>208.5</ele><time>2026-04-30T11:43:07Z</time></trkpt><trkpt lat="53.79910411130622" lon="87.36454440511636"><ele>208.33333333333331</ele><time>2026-04-30T11:43:09Z</time></trkpt><trkpt lat="53.79913297126604" lon="87.36467914433102"><ele>208.16666666666666</ele><time>2026-04-30T11:43:11Z</time></trkpt><trkpt lat="53.79915841063591" lon="87.36480333585371"><ele>208.0</ele><time>2026-04-30T11:43:13Z</time></trkpt><trkpt lat="53.79919064940097" lon="87.36491916681497"><ele>207.83333333333331</ele><time>2026-04-30T11:43:15Z</time></trkpt><trkpt lat="53.79922484170377" lon="87.36507199798429"><ele>207.66666666666666</ele><time>2026-04-30T11:43:17Z</time></trkpt><trkpt lat="53.79925487484424" lon="87.36527701739564"><ele>207.5</ele><time>2026-04-30T11:43:19Z</time></trkpt><trkpt lat="53.79927402522217" lon="87.36538768089967"><ele>207.33333333333331</ele><time>2026-04-30T11:43:20Z</time></trkpt><trkpt lat="53.7992664951941" lon="87.36552147538471"><ele>207.16666666666666</ele><time>2026-04-30T11:43:21Z</time></trkpt><trkpt lat="53.79929162787803" lon="87.36563097251818"><ele>207.0</ele><time>2026-04-30T11:43:22Z</time></trkpt><trkpt lat="53.799316609682684" lon="87.36573221297864"><ele>207.0</ele><time>2026-04-30T11:43:23Z</time></trkpt><trkpt lat="53.79935561542882" lon="87.36590377886866"><ele>207.0</ele><time>2026-04-30T11:43:25Z</time></trkpt><trkpt lat="53.7994010473066" lon="87.36606824477647"><ele>207.0</ele><time>2026-04-30T11:43:27Z</time></trkpt><trkpt lat="53.799429393605116" lon="87.36624817374393"><ele>207.0</ele><time>2026-04-30T11:43:29Z</time></trkpt><trkpt lat="53.79946472743316" lon="87.36639836635531"><ele>207.0</ele><time>2026-04-30T11:43:31Z</time></trkpt><trkpt lat="53.79949656378655" lon="87.36654489468165"><ele>207.00000000000003</ele><time>2026-04-30T11:43:33Z</time></trkpt><trkpt lat="53.79952164086868" lon="87.36668165954522"><ele>207.0</ele><time>2026-04-30T11:43:35Z</time></trkpt><trkpt lat="53.79954816960061" lon="87.36680741792435"><ele>207.0</ele><time>2026-04-30T11:43:37Z</time></trkpt><trkpt lat="53.79956470892815" lon="87.36692313063642"><ele>207.0</ele><time>2026-04-30T11:43:39Z</time></trkpt><trkpt lat="53.79958672059204" lon="87.36702505668651"><ele>207.0</ele><time>2026-04-30T11:43:41Z</time></trkpt><trkpt lat="53.79961134359247" lon="87.36713109129013"><ele>207.00000000000003</ele><time>2026-04-30T11:43:43Z</time></trkpt><trkpt lat="53.79963880099942" lon="87.36722797115496"><ele>207.0</ele><time>2026-04-30T11:43:45Z</time></trkpt><trkpt lat="53.79965353867651" lon="87.36736338953648"><ele>207.0</ele><time>2026-04-30T11:43:48Z</time></trkpt><trkpt lat="53.799677344779646" lon="87.36747525431181"><ele>207.0</ele><time>2026-04-30T11:43:51Z</time></trkpt><trkpt lat="53.79969934125271" lon="87.36759285341837"><ele>207.0</ele><time>2026-04-30T11:43:55Z</time></trkpt><trkpt lat="53.79972365982921" lon="87.36769355515499"><ele>207.0</ele><time>2026-04-30T11:43:59Z</time></trkpt><trkpt lat="53.79974785470882" lon="87.36789368294747"><ele>207.0</ele><time>2026-04-30T11:46:49Z</time></trkpt><trkpt lat="53.799779321928824" lon="87.36802438580845"><ele>207.0</ele><time>2026-04-30T11:46:51Z</time></trkpt><trkpt lat="53.79980823411593" lon="87.36816909826605"><ele>207.16666666666666</ele><time>2026-04-30T11:46:54Z</time></trkpt><trkpt lat="53.799831282098715" lon="87.36831474249735"><ele>207.33333333333331</ele><time>2026-04-30T11:46:57Z</time></trkpt><trkpt lat="53.79986455422148" lon="87.36846255167104"><ele>207.5</ele><time>2026-04-30T11:47:00Z</time></trkpt><trkpt lat="53.79989496766994" lon="87.36857889560926"><ele>207.66666666666666</ele><time>2026-04-30T11:47:02Z</time></trkpt><trkpt lat="53.79993610175226" lon="87.36869256967567"><ele>207.83333333333331</ele><time>2026-04-30T11:47:04Z</time></trkpt><trkpt lat="53.79996469394334" lon="87.36880354582559"><ele>208.0</ele><time>2026-04-30T11:47:06Z</time></trkpt><trkpt lat="53.80002594652943" lon="87.36896858132395"><ele>207.99999999999997</ele><time>2026-04-30T11:47:09Z</time></trkpt><trkpt lat="53.80005863509384" lon="87.36910488238706"><ele>208.0</ele><time>2026-04-30T11:47:11Z</time></trkpt><trkpt lat="53.80008796981629" lon="87.3692267002433"><ele>208.0</ele><time>2026-04-30T11:47:13Z</time></trkpt><trkpt lat="53.800119819500225" lon="87.3693403282552"><ele>208.0</ele><time>2026-04-30T11:47:15Z</time></trkpt><trkpt lat="53.800153809296305" lon="87.36943578292559"><ele>207.99999999999997</ele><time>2026-04-30T11:47:18Z</time></trkpt><trkpt lat="53.800200025551945" lon="87.36953470420235"><ele>208.0</ele><time>2026-04-30T11:47:21Z</time></trkpt><trkpt lat="53.80023493219137" lon="87.36964830252765"><ele>209.0</ele><time>2026-04-30T11:47:23Z</time></trkpt><trkpt lat="53.800270118780894" lon="87.36979260230717"><ele>210.0</ele><time>2026-04-30T11:47:25Z</time></trkpt><trkpt lat="53.800301836064925" lon="87.36995635887803"><ele>211.0</ele><time>2026-04-30T11:47:27Z</time></trkpt><trkpt lat="53.80033906538529" lon="87.37011776258757"><ele>212.0</ele><time>2026-04-30T11:47:29Z</time></trkpt><trkpt lat="53.8002417764512" lon="87.37036733737686"><ele>212.0</ele><time>2026-04-30T11:47:31Z</time></trkpt><trkpt lat="53.800276967316464" lon="87.37052850252216"><ele>212.0</ele><time>2026-04-30T11:47:33Z</time></trkpt><trkpt lat="53.8003114966697" lon="87.37068937895201"><ele>212.0</ele><time>2026-04-30T11:47:35Z</time></trkpt><trkpt lat="53.80034519085878" lon="87.37084636399528"><ele>212.0</ele><time>2026-04-30T11:47:37Z</time></trkpt><trkpt lat="53.80049311495158" lon="87.37082457478024"><ele>212.0</ele><time>2026-04-30T11:47:38Z</time></trkpt><trkpt lat="53.80052541998345" lon="87.3710008052017"><ele>212.0</ele><time>2026-04-30T11:47:40Z</time></trkpt><trkpt lat="53.80055850780118" lon="87.3711473302722"><ele>212.0</ele><time>2026-04-30T11:47:43Z</time></trkpt><trkpt lat="53.80059261799684" lon="87.37127008262908"><ele>212.0</ele><time>2026-04-30T11:47:46Z</time></trkpt><trkpt lat="53.800674097148004" lon="87.37153514860044"><ele>212.0</ele><time>2026-04-30T11:47:49Z</time></trkpt><trkpt lat="53.800710352459326" lon="87.37169156811198"><ele>212.0</ele><time>2026-04-30T11:47:51Z</time></trkpt><trkpt lat="53.80074614029145" lon="87.3718494638659"><ele>212.0</ele><time>2026-04-30T11:47:53Z</time></trkpt><trkpt lat="53.800775897777804" lon="87.37200382288347"><ele>212.0</ele><time>2026-04-30T11:47:55Z</time></trkpt><trkpt lat="53.800806895503364" lon="87.37215930114584"><ele>212.0</ele><time>2026-04-30T11:47:57Z</time></trkpt><trkpt lat="53.800832974925704" lon="87.37231917883102"><ele>212.00000000000003</ele><time>2026-04-30T11:47:59Z</time></trkpt><trkpt lat="53.800851192073374" lon="87.37247269167973"><ele>212.0</ele><time>2026-04-30T11:48:01Z</time></trkpt><trkpt lat="53.80084183774788" lon="87.37260224648467"><ele>212.0</ele><time>2026-04-30T11:48:03Z</time></trkpt><trkpt lat="53.80087314756674" lon="87.37271608474403"><ele>212.0</ele><time>2026-04-30T11:48:05Z</time></trkpt><trkpt lat="53.8008665536942" lon="87.3728335587035"><ele>212.00000000000003</ele><time>2026-04-30T11:48:07Z</time></trkpt><trkpt lat="53.80085028887923" lon="87.37294869629935"><ele>212.0</ele><time>2026-04-30T11:48:09Z</time></trkpt><trkpt lat="53.80085231430384" lon="87.3730946175912"><ele>212.00000000000003</ele><time>2026-04-30T11:48:13Z</time></trkpt><trkpt lat="53.80084032473524" lon="87.37322986561898"><ele>212.0</ele><time>2026-04-30T11:48:15Z</time></trkpt><trkpt lat="53.80082114101112" lon="87.37333661111813"><ele>212.0</ele><time>2026-04-30T11:48:17Z</time></trkpt><trkpt lat="53.800807748908014" lon="87.37355653075534"><ele>212.0</ele><time>2026-04-30T11:48:19Z</time></trkpt><trkpt lat="53.80080046799709" lon="87.37370574760237"><ele>212.00000000000003</ele><time>2026-04-30T11:48:21Z</time></trkpt><trkpt lat="53.800784749064235" lon="87.37383485733837"><ele>212.0</ele><time>2026-04-30T11:48:23Z</time></trkpt><trkpt lat="53.80077181615028" lon="87.37394885788908"><ele>212.00000000000003</ele><time>2026-04-30T11:48:25Z</time></trkpt><trkpt lat="53.800761048039234" lon="87.3740827391087"><ele>212.0</ele><time>2026-04-30T11:48:27Z</time></trkpt><trkpt lat="53.80075491975657" lon="87.37422567914241"><ele>212.0</ele><time>2026-04-30T11:48:29Z</time></trkpt><trkpt lat="53.80074147821348" lon="87.3743720899232"><ele>212.0</ele><time>2026-04-30T11:48:31Z</time></trkpt><trkpt lat="53.80072795841311" lon="87.37452201508275"><ele>212.00000000000003</ele><time>2026-04-30T11:48:33Z</time></trkpt><trkpt lat="53.800711686918106" lon="87.37467874725323"><ele>212.0</ele><time>2026-04-30T11:48:35Z</time></trkpt><trkpt lat="53.80071142047075" lon="87.37480674693948"><ele>212.16666666666669</ele><time>2026-04-30T11:48:37Z</time></trkpt><trkpt lat="53.80069549442091" lon="87.37492204522023"><ele>212.33333333333334</ele><time>2026-04-30T11:48:39Z</time></trkpt><trkpt lat="53.80067899995365" lon="87.37505560843414"><ele>212.5</ele><time>2026-04-30T11:48:44Z</time></trkpt><trkpt lat="53.80067088603661" lon="87.37521820480983"><ele>212.66666666666669</ele><time>2026-04-30T11:48:47Z</time></trkpt><trkpt lat="53.800655066432" lon="87.37533385051316"><ele>212.83333333333334</ele><time>2026-04-30T11:48:49Z</time></trkpt><trkpt lat="53.80064042910074" lon="87.37548490372804"><ele>213.0</ele><time>2026-04-30T11:48:52Z</time></trkpt><trkpt lat="53.80065463407366" lon="87.3756393848873"><ele>213.0</ele><time>2026-04-30T11:48:54Z</time></trkpt><trkpt lat="53.80062717802852" lon="87.37579448229852"><ele>213.0</ele><time>2026-04-30T11:48:56Z</time></trkpt><trkpt lat="53.80060959807278" lon="87.37592201544624"><ele>213.0</ele><time>2026-04-30T11:48:58Z</time></trkpt><trkpt lat="53.80059884942909" lon="87.37606218356227"><ele>213.0</ele><time>2026-04-30T11:49:00Z</time></trkpt><trkpt lat="53.800588478065" lon="87.37620644599873"><ele>213.0</ele><time>2026-04-30T11:49:02Z</time></trkpt><trkpt lat="53.80057851240437" lon="87.37633300405867"><ele>213.0</ele><time>2026-04-30T11:49:04Z</time></trkpt><trkpt lat="53.80057459412292" lon="87.37645482496968"><ele>212.99999999999997</ele><time>2026-04-30T11:49:06Z</time></trkpt><trkpt lat="53.80057180970126" lon="87.3765685290562"><ele>213.0</ele><time>2026-04-30T11:49:08Z</time></trkpt><trkpt lat="53.80056172001489" lon="87.37670042949152"><ele>213.0</ele><time>2026-04-30T11:49:10Z</time></trkpt><trkpt lat="53.800539109246635" lon="87.37682281333917"><ele>213.0</ele><time>2026-04-30T11:49:12Z</time></trkpt><trkpt lat="53.80052675576338" lon="87.37695320648238"><ele>213.0</ele><time>2026-04-30T11:49:15Z</time></trkpt><trkpt lat="53.800506597867574" lon="87.37705455170308"><ele>212.99999999999997</ele><time>2026-04-30T11:49:17Z</time></trkpt><trkpt lat="53.80048933140963" lon="87.37717255849614"><ele>213.0</ele><time>2026-04-30T11:49:19Z</time></trkpt><trkpt lat="53.80046390900761" lon="87.37727912306315"><ele>212.66666666666666</ele><time>2026-04-30T11:49:21Z</time></trkpt><trkpt lat="53.80040090902626" lon="87.37738670067499"><ele>212.33333333333331</ele><time>2026-04-30T11:49:24Z</time></trkpt><trkpt lat="53.80032492747452" lon="87.37743451795195"><ele>212.0</ele><time>2026-04-30T11:49:26Z</time></trkpt><trkpt lat="53.80026735635163" lon="87.37750132143417"><ele>211.66666666666666</ele><time>2026-04-30T11:49:28Z</time></trkpt><trkpt lat="53.8002221255173" lon="87.37766085493384"><ele>211.33333333333331</ele><time>2026-04-30T11:49:30Z</time></trkpt><trkpt lat="53.800198551641145" lon="87.37779278386655"><ele>211.0</ele><time>2026-04-30T11:49:32Z</time></trkpt><trkpt lat="53.800177880703735" lon="87.37797423947846"><ele>211.25</ele><time>2026-04-30T11:49:35Z</time></trkpt><trkpt lat="53.80018212212665" lon="87.37826617821997"><ele>211.5</ele><time>2026-04-30T11:49:38Z</time></trkpt><trkpt lat="53.80014871136547" lon="87.37842090051744"><ele>211.75</ele><time>2026-04-30T11:49:40Z</time></trkpt><trkpt lat="53.80013802447205" lon="87.37857334276507"><ele>212.0</ele><time>2026-04-30T11:49:42Z</time></trkpt><trkpt lat="53.800118497427434" lon="87.3787453175647"><ele>212.0</ele><time>2026-04-30T11:49:44Z</time></trkpt><trkpt lat="53.80009973316116" lon="87.37893596634152"><ele>212.0</ele><time>2026-04-30T11:49:46Z</time></trkpt><trkpt lat="53.80009314728383" lon="87.37911866747436"><ele>212.0</ele><time>2026-04-30T11:49:48Z</time></trkpt><trkpt lat="53.800083113715225" lon="87.37928023762016"><ele>212.0</ele><time>2026-04-30T11:49:50Z</time></trkpt><trkpt lat="53.80007087063013" lon="87.37943842790887"><ele>212.0</ele><time>2026-04-30T11:49:52Z</time></trkpt><trkpt lat="53.800055789317035" lon="87.3795985697442"><ele>212.00000000000003</ele><time>2026-04-30T11:49:54Z</time></trkpt><trkpt lat="53.800039609237146" lon="87.37977317569434"><ele>212.0</ele><time>2026-04-30T11:49:56Z</time></trkpt><trkpt lat="53.79999761154452" lon="87.37990188562804"><ele>212.0</ele><time>2026-04-30T11:49:59Z</time></trkpt><trkpt lat="53.799899655812894" lon="87.37986488135242"><ele>212.0</ele><time>2026-04-30T11:50:01Z</time></trkpt><trkpt lat="53.79984002491387" lon="87.3797921681986"><ele>212.00000000000003</ele><time>2026-04-30T11:50:03Z</time></trkpt><trkpt lat="53.79977180556356" lon="87.3797320705255"><ele>212.0</ele><time>2026-04-30T11:50:05Z</time></trkpt><trkpt lat="53.79969998657878" lon="87.3796405085439"><ele>212.0</ele><time>2026-04-30T11:50:08Z</time></trkpt><trkpt lat="53.79960860306342" lon="87.37965915897435"><ele>212.0</ele><time>2026-04-30T11:50:11Z</time></trkpt><trkpt lat="53.799573172710076" lon="87.37975116071867"><ele>212.0</ele><time>2026-04-30T11:50:14Z</time></trkpt><trkpt lat="53.79953882807519" lon="87.37985330405147"><ele>212.0</ele><time>2026-04-30T11:50:21Z</time></trkpt><trkpt lat="53.799519154678165" lon="87.37997144374421"><ele>212.0</ele><time>2026-04-30T11:50:25Z</time></trkpt><trkpt lat="53.79949110493568" lon="87.38006881041812"><ele>212.0</ele><time>2026-04-30T11:50:28Z</time></trkpt><trkpt lat="53.7994680453193" lon="87.38019485218143"><ele>212.0</ele><time>2026-04-30T11:50:31Z</time></trkpt><trkpt lat="53.79946207506121" lon="87.38031304324244"><ele>211.85714285714286</ele><time>2026-04-30T11:50:34Z</time></trkpt><trkpt lat="53.79947715331546" lon="87.38042722575838"><ele>211.7142857142857</ele><time>2026-04-30T11:50:37Z</time></trkpt><trkpt lat="53.79949783897246" lon="87.38055467455352"><ele>211.57142857142856</ele><time>2026-04-30T11:50:39Z</time></trkpt><trkpt lat="53.799563311537185" lon="87.3806511098835"><ele>211.42857142857144</ele><time>2026-04-30T11:50:42Z</time></trkpt><trkpt lat="53.79961972335445" lon="87.38071646876102"><ele>211.28571428571428</ele><time>2026-04-30T11:50:44Z</time></trkpt><trkpt lat="53.79967782888882" lon="87.38077400835932"><ele>211.14285714285714</ele><time>2026-04-30T11:50:46Z</time></trkpt><trkpt lat="53.79972977587207" lon="87.38084831954578"><ele>211.0</ele><time>2026-04-30T11:50:48Z</time></trkpt><trkpt lat="53.79978387959724" lon="87.38094370780786"><ele>210.49999999999997</ele><time>2026-04-30T11:50:50Z</time></trkpt><trkpt lat="53.799833304315705" lon="87.38105364858525"><ele>210.0</ele><time>2026-04-30T11:50:52Z</time></trkpt><trkpt lat="53.799873567150165" lon="87.38116403029994"><ele>209.5</ele><time>2026-04-30T11:50:54Z</time></trkpt><trkpt lat="53.79992544335236" lon="87.3812618627884"><ele>209.0</ele><time>2026-04-30T11:50:56Z</time></trkpt><trkpt lat="53.80000845572459" lon="87.38131861979596"><ele>208.49999999999997</ele><time>2026-04-30T11:50:58Z</time></trkpt><trkpt lat="53.80007910599846" lon="87.38141410870526"><ele>208.0</ele><time>2026-04-30T11:51:00Z</time></trkpt><trkpt lat="53.8001163495358" lon="87.38150332873862"><ele>208.4</ele><time>2026-04-30T11:51:02Z</time></trkpt><trkpt lat="53.80018435995782" lon="87.38161019678392"><ele>208.8</ele><time>2026-04-30T11:51:04Z</time></trkpt><trkpt lat="53.800267856869496" lon="87.38171415337555"><ele>209.2</ele><time>2026-04-30T11:51:06Z</time></trkpt><trkpt lat="53.800343462864234" lon="87.3818276927874"><ele>209.6</ele><time>2026-04-30T11:51:08Z</time></trkpt><trkpt lat="53.80042291676903" lon="87.38191908382595"><ele>210.0</ele><time>2026-04-30T11:51:10Z</time></trkpt><trkpt lat="53.80049340137024" lon="87.382023349361"><ele>210.0</ele><time>2026-04-30T11:51:12Z</time></trkpt><trkpt lat="53.800569780309374" lon="87.3821204587067"><ele>210.0</ele><time>2026-04-30T11:51:14Z</time></trkpt><trkpt lat="53.80063841633317" lon="87.38221234634949"><ele>210.0</ele><time>2026-04-30T11:51:16Z</time></trkpt><trkpt lat="53.80070341820163" lon="87.38228691627789"><ele>210.0</ele><time>2026-04-30T11:51:18Z</time></trkpt><trkpt lat="53.80076749056904" lon="87.3823803968994"><ele>210.0</ele><time>2026-04-30T11:51:20Z</time></trkpt><trkpt lat="53.80082753879102" lon="87.38247698260184"><ele>210.0</ele><time>2026-04-30T11:51:22Z</time></trkpt><trkpt lat="53.80089252321967" lon="87.38255874505477"><ele>209.66666666666666</ele><time>2026-04-30T11:51:24Z</time></trkpt><trkpt lat="53.800957629600425" lon="87.38265073301862"><ele>209.33333333333331</ele><time>2026-04-30T11:51:26Z</time></trkpt><trkpt lat="53.801027438182885" lon="87.38273295000357"><ele>209.0</ele><time>2026-04-30T11:51:28Z</time></trkpt><trkpt lat="53.80110480613169" lon="87.38280529550326"><ele>208.66666666666666</ele><time>2026-04-30T11:51:31Z</time></trkpt><trkpt lat="53.801142100116884" lon="87.38290341083673"><ele>208.33333333333331</ele><time>2026-04-30T11:51:33Z</time></trkpt><trkpt lat="53.80120373232143" lon="87.38298901144593"><ele>208.0</ele><time>2026-04-30T11:51:35Z</time></trkpt><trkpt lat="53.80127345229544" lon="87.38307732419486"><ele>208.0</ele><time>2026-04-30T11:51:38Z</time></trkpt><trkpt lat="53.801436394298854" lon="87.38322157523552"><ele>208.0</ele><time>2026-04-30T11:51:41Z</time></trkpt><trkpt lat="53.801507979888726" lon="87.383295932727"><ele>208.0</ele><time>2026-04-30T11:51:43Z</time></trkpt><trkpt lat="53.80158200036038" lon="87.3833794570827"><ele>208.0</ele><time>2026-04-30T11:51:45Z</time></trkpt><trkpt lat="53.801651222046" lon="87.38345594315568"><ele>208.0</ele><time>2026-04-30T11:51:47Z</time></trkpt><trkpt lat="53.801725092451434" lon="87.38353621190247"><ele>207.99999999999997</ele><time>2026-04-30T11:51:49Z</time></trkpt><trkpt lat="53.80179448582143" lon="87.38363204153946"><ele>208.0</ele><time>2026-04-30T11:51:51Z</time></trkpt><trkpt lat="53.801864181931684" lon="87.38372201499276"><ele>208.0</ele><time>2026-04-30T11:51:53Z</time></trkpt><trkpt lat="53.80192660435572" lon="87.38381776828784"><ele>208.0</ele><time>2026-04-30T11:51:55Z</time></trkpt><trkpt lat="53.8019992777756" lon="87.3839132134265"><ele>207.99999999999997</ele><time>2026-04-30T11:51:57Z</time></trkpt><trkpt lat="53.80206015475127" lon="87.38401700373412"><ele>208.0</ele><time>2026-04-30T11:51:59Z</time></trkpt><trkpt lat="53.80213060325322" lon="87.38410603787304"><ele>208.2</ele><time>2026-04-30T11:52:01Z</time></trkpt><trkpt lat="53.80218460833206" lon="87.3841797300078"><ele>208.4</ele><time>2026-04-30T11:52:04Z</time></trkpt><trkpt lat="53.80229998969458" lon="87.38428287479148"><ele>208.6</ele><time>2026-04-30T11:52:05Z</time></trkpt><trkpt lat="53.80238040995419" lon="87.38438189255025"><ele>208.79999999999998</ele><time>2026-04-30T11:52:07Z</time></trkpt><trkpt lat="53.80246293908746" lon="87.38447715146371"><ele>209.0</ele><time>2026-04-30T11:52:09Z</time></trkpt><trkpt lat="53.80254517159102" lon="87.38456645180639"><ele>209.00000000000003</ele><time>2026-04-30T11:52:11Z</time></trkpt><trkpt lat="53.80262341132807" lon="87.3846567302164"><ele>209.0</ele><time>2026-04-30T11:52:13Z</time></trkpt><trkpt lat="53.80270293048384" lon="87.38474062687267"><ele>209.0</ele><time>2026-04-30T11:52:15Z</time></trkpt><trkpt lat="53.802776621839236" lon="87.38482609326694"><ele>209.0</ele><time>2026-04-30T11:52:17Z</time></trkpt><trkpt lat="53.802834438039866" lon="87.3849140098398"><ele>209.00000000000003</ele><time>2026-04-30T11:52:19Z</time></trkpt><trkpt lat="53.80290312872719" lon="87.3849904338018"><ele>209.0</ele><time>2026-04-30T11:52:21Z</time></trkpt><trkpt lat="53.80296420457155" lon="87.38505462752482"><ele>208.83333333333334</ele><time>2026-04-30T11:52:23Z</time></trkpt><trkpt lat="53.80301193521785" lon="87.38515691717812"><ele>208.66666666666669</ele><time>2026-04-30T11:52:26Z</time></trkpt><trkpt lat="53.80308410679075" lon="87.38524529627489"><ele>208.5</ele><time>2026-04-30T11:52:29Z</time></trkpt><trkpt lat="53.80313619236743" lon="87.38531342984494"><ele>208.33333333333331</ele><time>2026-04-30T11:52:31Z</time></trkpt><trkpt lat="53.80319412789747" lon="87.3853766562916"><ele>208.16666666666666</ele><time>2026-04-30T11:52:33Z</time></trkpt><trkpt lat="53.803256927929205" lon="87.38546437455994"><ele>208.0</ele><time>2026-04-30T11:52:35Z</time></trkpt><trkpt lat="53.803332907445146" lon="87.38555767910427"><ele>207.83333333333331</ele><time>2026-04-30T11:52:37Z</time></trkpt><trkpt lat="53.80340525026034" lon="87.38564755525236"><ele>207.66666666666666</ele><time>2026-04-30T11:52:39Z</time></trkpt><trkpt lat="53.80347331588198" lon="87.38573819407672"><ele>207.5</ele><time>2026-04-30T11:52:41Z</time></trkpt><trkpt lat="53.803543977626425" lon="87.3858256429942"><ele>207.33333333333331</ele><time>2026-04-30T11:52:43Z</time></trkpt><trkpt lat="53.80361120978575" lon="87.38592094377131"><ele>207.16666666666666</ele><time>2026-04-30T11:52:45Z</time></trkpt><trkpt lat="53.80368315572433" lon="87.38601342520607"><ele>207.0</ele><time>2026-04-30T11:52:47Z</time></trkpt><trkpt lat="53.80375623044554" lon="87.38610472817068"><ele>207.0</ele><time>2026-04-30T11:52:49Z</time></trkpt><trkpt lat="53.803830770136564" lon="87.38620354377166"><ele>207.0</ele><time>2026-04-30T11:52:51Z</time></trkpt><trkpt lat="53.80390438373426" lon="87.38630183911073"><ele>207.0</ele><time>2026-04-30T11:52:53Z</time></trkpt><trkpt lat="53.80397337903108" lon="87.38640279337211"><ele>207.0</ele><time>2026-04-30T11:52:55Z</time></trkpt><trkpt lat="53.804045300546775" lon="87.38649317033241"><ele>207.0</ele><time>2026-04-30T11:52:57Z</time></trkpt><trkpt lat="53.80411585467917" lon="87.38658404867967"><ele>206.83333333333334</ele><time>2026-04-30T11:52:59Z</time></trkpt><trkpt lat="53.80417366447745" lon="87.38667421543047"><ele>206.66666666666669</ele><time>2026-04-30T11:53:01Z</time></trkpt><trkpt lat="53.80423432769202" lon="87.38676497503297"><ele>206.5</ele><time>2026-04-30T11:53:03Z</time></trkpt><trkpt lat="53.80430007081657" lon="87.38684991415788"><ele>206.33333333333334</ele><time>2026-04-30T11:53:05Z</time></trkpt><trkpt lat="53.804370901020995" lon="87.38694258173781"><ele>206.16666666666669</ele><time>2026-04-30T11:53:07Z</time></trkpt><trkpt lat="53.804445040641674" lon="87.38702988029709"><ele>206.0</ele><time>2026-04-30T11:53:09Z</time></trkpt><trkpt lat="53.80451331709154" lon="87.38712601294252"><ele>206.5</ele><time>2026-04-30T11:53:11Z</time></trkpt><trkpt lat="53.80459088328194" lon="87.38724881356471"><ele>207.0</ele><time>2026-04-30T11:53:14Z</time></trkpt><trkpt lat="53.804769143866196" lon="87.38742561534552"><ele>207.5</ele><time>2026-04-30T11:53:17Z</time></trkpt><trkpt lat="53.80484329639881" lon="87.38752801894728"><ele>208.0</ele><time>2026-04-30T11:53:19Z</time></trkpt><trkpt lat="53.80489278044285" lon="87.38765483587599"><ele>207.99999999999997</ele><time>2026-04-30T11:53:21Z</time></trkpt><trkpt lat="53.80493580672982" lon="87.38774851928353"><ele>208.0</ele><time>2026-04-30T11:53:23Z</time></trkpt><trkpt lat="53.804991086468675" lon="87.38787489278555"><ele>208.0</ele><time>2026-04-30T11:53:25Z</time></trkpt><trkpt lat="53.80504415140877" lon="87.38801873626055"><ele>208.0</ele><time>2026-04-30T11:53:27Z</time></trkpt><trkpt lat="53.80509492182968" lon="87.38814380807872"><ele>207.99999999999997</ele><time>2026-04-30T11:53:29Z</time></trkpt><trkpt lat="53.80514116866841" lon="87.38827464450017"><ele>208.0</ele><time>2026-04-30T11:53:31Z</time></trkpt><trkpt lat="53.80518144159353" lon="87.38839558717275"><ele>208.0</ele><time>2026-04-30T11:53:33Z</time></trkpt><trkpt lat="53.80521927731738" lon="87.38850190579218"><ele>208.0</ele><time>2026-04-30T11:53:35Z</time></trkpt><trkpt lat="53.805230142486636" lon="87.38862280885071"><ele>208.0</ele><time>2026-04-30T11:53:37Z</time></trkpt><trkpt lat="53.80531946090303" lon="87.38876928539374"><ele>208.0</ele><time>2026-04-30T11:53:39Z</time></trkpt><trkpt lat="53.80537454018026" lon="87.38894490624737"><ele>208.0</ele><time>2026-04-30T11:53:41Z</time></trkpt><trkpt lat="53.80543543006738" lon="87.3891322825275"><ele>207.99999999999997</ele><time>2026-04-30T11:53:43Z</time></trkpt><trkpt lat="53.80547222711088" lon="87.3892284659871"><ele>208.0</ele><time>2026-04-30T11:53:44Z</time></trkpt><trkpt lat="53.80550309537483" lon="87.38932850255179"><ele>208.0</ele><time>2026-04-30T11:53:45Z</time></trkpt><trkpt lat="53.80553323163118" lon="87.38942795515305"><ele>208.0</ele><time>2026-04-30T11:53:46Z</time></trkpt><trkpt lat="53.80558484974577" lon="87.3896016242095"><ele>207.99999999999997</ele><time>2026-04-30T11:53:48Z</time></trkpt><trkpt lat="53.80559415075696" lon="87.38973621290853"><ele>208.0</ele><time>2026-04-30T11:55:06Z</time></trkpt><trkpt lat="53.80556347878392" lon="87.38963812335578"><ele>207.8</ele><time>2026-04-30T11:57:46Z</time></trkpt><trkpt lat="53.80559835393534" lon="87.38976241552687"><ele>207.60000000000002</ele><time>2026-04-30T12:03:08Z</time></trkpt><trkpt lat="53.80562682636978" lon="87.3898763747096"><ele>207.39999999999998</ele><time>2026-04-30T12:03:10Z</time></trkpt><trkpt lat="53.80566014163635" lon="87.39003200102339"><ele>207.2</ele><time>2026-04-30T12:03:12Z</time></trkpt><trkpt lat="53.8056972230786" lon="87.3902578747436"><ele>207.0</ele><time>2026-04-30T12:03:14Z</time></trkpt><trkpt lat="53.80572546054664" lon="87.39038537943297"><ele>206.83333333333334</ele><time>2026-04-30T12:03:15Z</time></trkpt><trkpt lat="53.805715347129" lon="87.39051262996783"><ele>206.66666666666669</ele><time>2026-04-30T12:03:16Z</time></trkpt><trkpt lat="53.80573386101892" lon="87.39063671245553"><ele>206.5</ele><time>2026-04-30T12:03:17Z</time></trkpt><trkpt lat="53.80575436050935" lon="87.39077410278887"><ele>206.33333333333334</ele><time>2026-04-30T12:03:18Z</time></trkpt><trkpt lat="53.80577567234161" lon="87.39091693728696"><ele>206.16666666666669</ele><time>2026-04-30T12:03:19Z</time></trkpt><trkpt lat="53.805797762001106" lon="87.39106480211076"><ele>206.0</ele><time>2026-04-30T12:03:20Z</time></trkpt><trkpt lat="53.80582103816653" lon="87.39122014472898"><ele>205.8</ele><time>2026-04-30T12:03:21Z</time></trkpt><trkpt lat="53.80584511799828" lon="87.3913808509051"><ele>205.60000000000002</ele><time>2026-04-30T12:03:22Z</time></trkpt><trkpt lat="53.80586959066568" lon="87.39154417853109"><ele>205.4</ele><time>2026-04-30T12:03:23Z</time></trkpt><trkpt lat="53.805896319121" lon="87.39172304820359"><ele>205.2</ele><time>2026-04-30T12:03:24Z</time></trkpt><trkpt lat="53.805921898940404" lon="87.39189140809334"><ele>205.0</ele><time>2026-04-30T12:03:25Z</time></trkpt><trkpt lat="53.80594748592431" lon="87.39206298863955"><ele>204.8</ele><time>2026-04-30T12:03:26Z</time></trkpt><trkpt lat="53.805973474134014" lon="87.39224006108851"><ele>204.6</ele><time>2026-04-30T12:03:27Z</time></trkpt><trkpt lat="53.80599944789071" lon="87.39241905283524"><ele>204.39999999999998</ele><time>2026-04-30T12:03:28Z</time></trkpt><trkpt lat="53.80602494359458" lon="87.39259475029843"><ele>204.2</ele><time>2026-04-30T12:03:29Z</time></trkpt><trkpt lat="53.8060510972684" lon="87.39277473989333"><ele>204.0</ele><time>2026-04-30T12:03:30Z</time></trkpt><trkpt lat="53.806077104254605" lon="87.39295346709056"><ele>204.75</ele><time>2026-04-30T12:03:31Z</time></trkpt><trkpt lat="53.806103773829356" lon="87.39313674790115"><ele>205.5</ele><time>2026-04-30T12:03:32Z</time></trkpt><trkpt lat="53.806143515255435" lon="87.39331725242415"><ele>206.25</ele><time>2026-04-30T12:03:33Z</time></trkpt><trkpt lat="53.80616656156071" lon="87.39350559897025"><ele>207.0</ele><time>2026-04-30T12:03:34Z</time></trkpt><trkpt lat="53.80619071613995" lon="87.39370128463786"><ele>207.25</ele><time>2026-04-30T12:03:35Z</time></trkpt><trkpt lat="53.80621664903694" lon="87.39390225648057"><ele>207.5</ele><time>2026-04-30T12:03:36Z</time></trkpt><trkpt lat="53.80624738799157" lon="87.39410784239338"><ele>207.75</ele><time>2026-04-30T12:03:37Z</time></trkpt><trkpt lat="53.806283308703065" lon="87.394314299166"><ele>208.0</ele><time>2026-04-30T12:03:38Z</time></trkpt><trkpt lat="53.80632207318067" lon="87.39451816842951"><ele>208.0</ele><time>2026-04-30T12:03:39Z</time></trkpt><trkpt lat="53.806365691858964" lon="87.39471808242759"><ele>208.0</ele><time>2026-04-30T12:03:40Z</time></trkpt><trkpt lat="53.806414501653364" lon="87.39490483482663"><ele>208.0</ele><time>2026-04-30T12:03:41Z</time></trkpt><trkpt lat="53.80646300634435" lon="87.39507266628432"><ele>208.0</ele><time>2026-04-30T12:03:42Z</time></trkpt><trkpt lat="53.80650582866856" lon="87.39523469192166"><ele>208.0</ele><time>2026-04-30T12:03:43Z</time></trkpt><trkpt lat="53.806548085127346" lon="87.39538607131725"><ele>208.0</ele><time>2026-04-30T12:03:44Z</time></trkpt><trkpt lat="53.806591950950356" lon="87.39554029283605"><ele>208.0</ele><time>2026-04-30T12:03:45Z</time></trkpt><trkpt lat="53.80663669096385" lon="87.39570338804205"><ele>208.0</ele><time>2026-04-30T12:03:46Z</time></trkpt><trkpt lat="53.806684413536466" lon="87.39586950465221"><ele>208.0</ele><time>2026-04-30T12:03:47Z</time></trkpt><trkpt lat="53.806733171303435" lon="87.39604103136982"><ele>207.75</ele><time>2026-04-30T12:03:48Z</time></trkpt><trkpt lat="53.80678537201288" lon="87.39621682034809"><ele>207.5</ele><time>2026-04-30T12:03:49Z</time></trkpt><trkpt lat="53.80683937168839" lon="87.39639581872865"><ele>207.25</ele><time>2026-04-30T12:03:50Z</time></trkpt><trkpt lat="53.80689486599369" lon="87.39657858186766"><ele>207.0</ele><time>2026-04-30T12:03:51Z</time></trkpt><trkpt lat="53.806951997420626" lon="87.39676961521668"><ele>207.25</ele><time>2026-04-30T12:03:52Z</time></trkpt><trkpt lat="53.80700705111508" lon="87.39696206677188"><ele>207.5</ele><time>2026-04-30T12:03:53Z</time></trkpt><trkpt lat="53.807046293502054" lon="87.3971664505914"><ele>207.75</ele><time>2026-04-30T12:03:54Z</time></trkpt><trkpt lat="53.80709772194871" lon="87.39736357258346"><ele>208.0</ele><time>2026-04-30T12:03:55Z</time></trkpt><trkpt lat="53.807146331650046" lon="87.3975520974594"><ele>208.0</ele><time>2026-04-30T12:03:56Z</time></trkpt><trkpt lat="53.80719555636806" lon="87.39773039514121"><ele>208.0</ele><time>2026-04-30T12:03:57Z</time></trkpt><trkpt lat="53.80724704304011" lon="87.3979168861151"><ele>208.0</ele><time>2026-04-30T12:03:58Z</time></trkpt><trkpt lat="53.807298196712175" lon="87.39810217087508"><ele>208.0</ele><time>2026-04-30T12:03:59Z</time></trkpt><trkpt lat="53.807350325872285" lon="87.39829098891775"><ele>207.75</ele><time>2026-04-30T12:04:00Z</time></trkpt><trkpt lat="53.80740378419705" lon="87.39848479358551"><ele>207.5</ele><time>2026-04-30T12:04:01Z</time></trkpt><trkpt lat="53.807457126337866" lon="87.39867822562834"><ele>207.25</ele><time>2026-04-30T12:04:02Z</time></trkpt><trkpt lat="53.80751045570566" lon="87.398871611358"><ele>207.0</ele><time>2026-04-30T12:04:03Z</time></trkpt><trkpt lat="53.807564832982145" lon="87.39906879716065"><ele>207.0</ele><time>2026-04-30T12:04:04Z</time></trkpt><trkpt lat="53.807620733799475" lon="87.39927150773343"><ele>207.0</ele><time>2026-04-30T12:04:05Z</time></trkpt><trkpt lat="53.80767731212679" lon="87.39947667507877"><ele>207.0</ele><time>2026-04-30T12:04:06Z</time></trkpt><trkpt lat="53.807732616221" lon="87.39967706216828"><ele>207.0</ele><time>2026-04-30T12:04:07Z</time></trkpt><trkpt lat="53.807788001016945" lon="87.39987772930438"><ele>208.5</ele><time>2026-04-30T12:04:08Z</time></trkpt><trkpt lat="53.807841931558016" lon="87.40007312731984"><ele>210.0</ele><time>2026-04-30T12:04:09Z</time></trkpt><trkpt lat="53.80790959402028" lon="87.40025811770641"><ele>211.5</ele><time>2026-04-30T12:04:10Z</time></trkpt><trkpt lat="53.807960623752486" lon="87.40046781541159"><ele>213.0</ele><time>2026-04-30T12:04:11Z</time></trkpt><trkpt lat="53.808011061350015" lon="87.40067764930629"><ele>213.0</ele><time>2026-04-30T12:04:12Z</time></trkpt><trkpt lat="53.80806476798082" lon="87.40088638619748"><ele>213.0</ele><time>2026-04-30T12:04:13Z</time></trkpt><trkpt lat="53.80811889878255" lon="87.40109742459813"><ele>213.0</ele><time>2026-04-30T12:04:14Z</time></trkpt><trkpt lat="53.8081726781504" lon="87.40131049973222"><ele>213.0</ele><time>2026-04-30T12:04:15Z</time></trkpt><trkpt lat="53.80822868602707" lon="87.40152520923318"><ele>212.5</ele><time>2026-04-30T12:04:16Z</time></trkpt><trkpt lat="53.808286253245775" lon="87.40174197275098"><ele>212.0</ele><time>2026-04-30T12:04:17Z</time></trkpt><trkpt lat="53.80834711353482" lon="87.40195718968899"><ele>211.5</ele><time>2026-04-30T12:04:18Z</time></trkpt><trkpt lat="53.808410071641944" lon="87.40216983438192"><ele>211.0</ele><time>2026-04-30T12:04:19Z</time></trkpt><trkpt lat="53.80847530780923" lon="87.40238142931405"><ele>215.5</ele><time>2026-04-30T12:04:20Z</time></trkpt><trkpt lat="53.80853972385142" lon="87.40258325807748"><ele>220.0</ele><time>2026-04-30T12:04:21Z</time></trkpt><trkpt lat="53.808610700789956" lon="87.4027799216571"><ele>224.5</ele><time>2026-04-30T12:04:22Z</time></trkpt><trkpt lat="53.80868468985529" lon="87.40298011055427"><ele>229.0</ele><time>2026-04-30T12:04:23Z</time></trkpt><trkpt lat="53.80875178424409" lon="87.40317743113381"><ele>229.0</ele><time>2026-04-30T12:04:24Z</time></trkpt><trkpt lat="53.808824653333936" lon="87.40337951287974"><ele>229.0</ele><time>2026-04-30T12:04:25Z</time></trkpt><trkpt lat="53.808899375974114" lon="87.4035799717835"><ele>229.0</ele><time>2026-04-30T12:04:26Z</time></trkpt><trkpt lat="53.80897994450827" lon="87.4037767231205"><ele>229.0</ele><time>2026-04-30T12:04:27Z</time></trkpt><trkpt lat="53.80906346019621" lon="87.40397467470275"><ele>230.0</ele><time>2026-04-30T12:04:28Z</time></trkpt><trkpt lat="53.80915370031806" lon="87.40416242556702"><ele>231.0</ele><time>2026-04-30T12:04:29Z</time></trkpt><trkpt lat="53.80922908321791" lon="87.40437942867493"><ele>232.0</ele><time>2026-04-30T12:04:30Z</time></trkpt><trkpt lat="53.809331541905486" lon="87.40455833912515"><ele>233.0</ele><time>2026-04-30T12:04:31Z</time></trkpt><trkpt lat="53.80943183673866" lon="87.40473450598198"><ele>233.0</ele><time>2026-04-30T12:04:32Z</time></trkpt><trkpt lat="53.80954355532518" lon="87.40488872802337"><ele>233.0</ele><time>2026-04-30T12:04:33Z</time></trkpt><trkpt lat="53.80962769600447" lon="87.40507671035925"><ele>233.0</ele><time>2026-04-30T12:04:34Z</time></trkpt><trkpt lat="53.80972322568905" lon="87.40524345571878"><ele>233.0</ele><time>2026-04-30T12:04:35Z</time></trkpt><trkpt lat="53.80981801792967" lon="87.40540883511618"><ele>228.75</ele><time>2026-04-30T12:04:36Z</time></trkpt><trkpt lat="53.809912736914285" lon="87.40557437345454"><ele>224.5</ele><time>2026-04-30T12:04:37Z</time></trkpt><trkpt lat="53.810007889427055" lon="87.40574244428079"><ele>220.25</ele><time>2026-04-30T12:04:38Z</time></trkpt><trkpt lat="53.810104204165924" lon="87.40591115595328"><ele>216.0</ele><time>2026-04-30T12:04:39Z</time></trkpt><trkpt lat="53.81020261087867" lon="87.406081666172"><ele>220.25</ele><time>2026-04-30T12:04:40Z</time></trkpt><trkpt lat="53.810312479594266" lon="87.40624250034749"><ele>224.5</ele><time>2026-04-30T12:04:41Z</time></trkpt><trkpt lat="53.81042881529074" lon="87.40638545736257"><ele>228.75</ele><time>2026-04-30T12:04:42Z</time></trkpt><trkpt lat="53.810524208052975" lon="87.40656594517243"><ele>233.0</ele><time>2026-04-30T12:04:43Z</time></trkpt><trkpt lat="53.81061780747947" lon="87.40674182398926"><ele>233.0</ele><time>2026-04-30T12:04:44Z</time></trkpt><trkpt lat="53.81070878234554" lon="87.40691290681036"><ele>233.0</ele><time>2026-04-30T12:04:45Z</time></trkpt><trkpt lat="53.81081730101547" lon="87.40704732021912"><ele>233.0</ele><time>2026-04-30T12:04:45.999Z</time></trkpt><trkpt lat="53.8109207094333" lon="87.40721164771446"><ele>233.0</ele><time>2026-04-30T12:04:46.999Z</time></trkpt><trkpt lat="53.81100808453384" lon="87.40738983274119"><ele>231.25</ele><time>2026-04-30T12:04:47.999Z</time></trkpt><trkpt lat="53.811093658949915" lon="87.40756487453773"><ele>229.5</ele><time>2026-04-30T12:04:48.999Z</time></trkpt><trkpt lat="53.81116580534861" lon="87.40775637007754"><ele>227.75</ele><time>2026-04-30T12:04:49.999Z</time></trkpt><trkpt lat="53.81125354599695" lon="87.40792097102943"><ele>226.0</ele><time>2026-04-30T12:04:50.999Z</time></trkpt><trkpt lat="53.81134262292088" lon="87.40808325502421"><ele>226.0</ele><time>2026-04-30T12:04:51.999Z</time></trkpt><trkpt lat="53.811431896614735" lon="87.40824628955761"><ele>226.0</ele><time>2026-04-30T12:04:52.999Z</time></trkpt><trkpt lat="53.811525104843525" lon="87.40840835697159"><ele>226.0</ele><time>2026-04-30T12:04:53.999Z</time></trkpt><trkpt lat="53.81161828298497" lon="87.40857327931768"><ele>226.0</ele><time>2026-04-30T12:04:54.999Z</time></trkpt><trkpt lat="53.81171191512819" lon="87.40874227060553"><ele>228.5</ele><time>2026-04-30T12:04:55.999Z</time></trkpt><trkpt lat="53.81180265303918" lon="87.40890966438347"><ele>231.0</ele><time>2026-04-30T12:04:56.999Z</time></trkpt><trkpt lat="53.81189066398511" lon="87.40907762441796"><ele>233.5</ele><time>2026-04-30T12:04:57.999Z</time></trkpt><trkpt lat="53.811976633450236" lon="87.4092451213772"><ele>236.0</ele><time>2026-04-30T12:04:58.999Z</time></trkpt><trkpt lat="53.812058954153926" lon="87.40941837364917"><ele>236.0</ele><time>2026-04-30T12:04:59.999Z</time></trkpt><trkpt lat="53.81213770067238" lon="87.40959548018105"><ele>236.0</ele><time>2026-04-30T12:05:00.999Z</time></trkpt><trkpt lat="53.812219689387554" lon="87.40977363931188"><ele>236.0</ele><time>2026-04-30T12:05:01.999Z</time></trkpt><trkpt lat="53.812301288066756" lon="87.40995285816479"><ele>236.0</ele><time>2026-04-30T12:05:02.999Z</time></trkpt><trkpt lat="53.81238380013475" lon="87.41012979206796"><ele>234.5</ele><time>2026-04-30T12:05:03.999Z</time></trkpt><trkpt lat="53.812468144905175" lon="87.41030303555435"><ele>233.0</ele><time>2026-04-30T12:05:04.999Z</time></trkpt><trkpt lat="53.812555371905056" lon="87.41047194705192"><ele>231.5</ele><time>2026-04-30T12:05:05.999Z</time></trkpt><trkpt lat="53.81264530445474" lon="87.41064015305744"><ele>230.0</ele><time>2026-04-30T12:05:06.999Z</time></trkpt><trkpt lat="53.81273837119757" lon="87.41080761707474"><ele>230.0</ele><time>2026-04-30T12:05:07.999Z</time></trkpt><trkpt lat="53.81282809985121" lon="87.41097582768273"><ele>230.0</ele><time>2026-04-30T12:05:08.999Z</time></trkpt><trkpt lat="53.81291198568472" lon="87.41114336148976"><ele>230.0</ele><time>2026-04-30T12:05:09.999Z</time></trkpt><trkpt lat="53.812993529938645" lon="87.41130801500479"><ele>230.0</ele><time>2026-04-30T12:05:10.999Z</time></trkpt><trkpt lat="53.81307377750901" lon="87.41147604019801"><ele>227.0</ele><time>2026-04-30T12:05:11.999Z</time></trkpt><trkpt lat="53.81315086786727" lon="87.41164308908823"><ele>224.0</ele><time>2026-04-30T12:05:12.999Z</time></trkpt><trkpt lat="53.81322769904073" lon="87.4118134738621"><ele>221.0</ele><time>2026-04-30T12:05:13.999Z</time></trkpt><trkpt lat="53.81330704756968" lon="87.41198279308517"><ele>218.0</ele><time>2026-04-30T12:05:14.999Z</time></trkpt><trkpt lat="53.81338468817991" lon="87.41214843239747"><ele>219.5</ele><time>2026-04-30T12:05:15.999Z</time></trkpt><trkpt lat="53.81345826588952" lon="87.41230766853856"><ele>221.0</ele><time>2026-04-30T12:05:16.999Z</time></trkpt><trkpt lat="53.813530493310346" lon="87.41246574793402"><ele>222.5</ele><time>2026-04-30T12:05:17.999Z</time></trkpt><trkpt lat="53.813601718430114" lon="87.4126323528277"><ele>224.0</ele><time>2026-04-30T12:05:18.999Z</time></trkpt><trkpt lat="53.81367243860077" lon="87.41279103620872"><ele>224.0</ele><time>2026-04-30T12:05:19.999Z</time></trkpt><trkpt lat="53.813743894005455" lon="87.41295770134022"><ele>224.0</ele><time>2026-04-30T12:05:20.999Z</time></trkpt><trkpt lat="53.81380778823565" lon="87.41313479785761"><ele>224.0</ele><time>2026-04-30T12:05:21.999Z</time></trkpt><trkpt lat="53.81386465009287" lon="87.4133269347515"><ele>224.0</ele><time>2026-04-30T12:05:22.999Z</time></trkpt><trkpt lat="53.81390744852106" lon="87.4135280512446"><ele>223.75</ele><time>2026-04-30T12:05:23.999Z</time></trkpt><trkpt lat="53.81394574476501" lon="87.41373251921324"><ele>223.5</ele><time>2026-04-30T12:05:24.999Z</time></trkpt><trkpt lat="53.81399212919461" lon="87.41394186933734"><ele>223.25</ele><time>2026-04-30T12:05:25.999Z</time></trkpt><trkpt lat="53.81404572339081" lon="87.41416404760493"><ele>223.0</ele><time>2026-04-30T12:05:26.999Z</time></trkpt><trkpt lat="53.81410207610596" lon="87.41438403997856"><ele>222.5</ele><time>2026-04-30T12:05:27.999Z</time></trkpt><trkpt lat="53.81416081807059" lon="87.41460232881907"><ele>222.0</ele><time>2026-04-30T12:05:28.999Z</time></trkpt><trkpt lat="53.8142203947944" lon="87.4148137053943"><ele>221.5</ele><time>2026-04-30T12:05:29.999Z</time></trkpt><trkpt lat="53.814278724965675" lon="87.41501309368226"><ele>221.0</ele><time>2026-04-30T12:05:30.999Z</time></trkpt><trkpt lat="53.81433599717846" lon="87.41520776692404"><ele>226.5</ele><time>2026-04-30T12:05:31.999Z</time></trkpt><trkpt lat="53.814394700944185" lon="87.41540561971338"><ele>232.0</ele><time>2026-04-30T12:05:33Z</time></trkpt><trkpt lat="53.814454947529505" lon="87.41560697794449"><ele>237.5</ele><time>2026-04-30T12:05:34Z</time></trkpt><trkpt lat="53.814515434215835" lon="87.41581099923442"><ele>243.0</ele><time>2026-04-30T12:05:35Z</time></trkpt><trkpt lat="53.81457368008701" lon="87.41601144469583"><ele>243.0</ele><time>2026-04-30T12:05:36Z</time></trkpt><trkpt lat="53.81463206289398" lon="87.4162097445788"><ele>243.0</ele><time>2026-04-30T12:05:37Z</time></trkpt><trkpt lat="53.81468979491266" lon="87.41640322522957"><ele>243.0</ele><time>2026-04-30T12:05:38Z</time></trkpt><trkpt lat="53.8147504746459" lon="87.41660064878894"><ele>243.0</ele><time>2026-04-30T12:05:39Z</time></trkpt><trkpt lat="53.81482121246662" lon="87.41680377436529"><ele>241.25</ele><time>2026-04-30T12:05:40Z</time></trkpt><trkpt lat="53.81487822872934" lon="87.41701081053056"><ele>239.5</ele><time>2026-04-30T12:05:41Z</time></trkpt><trkpt lat="53.814939621543864" lon="87.41721696870822"><ele>237.75</ele><time>2026-04-30T12:05:42Z</time></trkpt><trkpt lat="53.814999050545865" lon="87.4174158658653"><ele>236.0</ele><time>2026-04-30T12:05:43Z</time></trkpt><trkpt lat="53.815057547755465" lon="87.41761028168688"><ele>233.0</ele><time>2026-04-30T12:05:44Z</time></trkpt><trkpt lat="53.81511686766901" lon="87.4178062832448"><ele>230.0</ele><time>2026-04-30T12:05:45Z</time></trkpt><trkpt lat="53.815177458048666" lon="87.41800246405599"><ele>227.0</ele><time>2026-04-30T12:05:46Z</time></trkpt><trkpt lat="53.81523935487067" lon="87.41819693494122"><ele>224.0</ele><time>2026-04-30T12:05:47Z</time></trkpt><trkpt lat="53.815302359504145" lon="87.41839007875379"><ele>227.75</ele><time>2026-04-30T12:05:48Z</time></trkpt><trkpt lat="53.81536775213606" lon="87.41859473816527"><ele>231.5</ele><time>2026-04-30T12:05:49Z</time></trkpt><trkpt lat="53.815438972463646" lon="87.41880775293961"><ele>235.25</ele><time>2026-04-30T12:05:50Z</time></trkpt><trkpt lat="53.81551486439968" lon="87.41902844728018"><ele>239.0</ele><time>2026-04-30T12:05:51Z</time></trkpt><trkpt lat="53.81559296207417" lon="87.4192474476651"><ele>239.0</ele><time>2026-04-30T12:05:52Z</time></trkpt><trkpt lat="53.81567120674523" lon="87.41946498947651"><ele>239.0</ele><time>2026-04-30T12:05:53Z</time></trkpt><trkpt lat="53.81575207143214" lon="87.41967842597441"><ele>239.0</ele><time>2026-04-30T12:05:54Z</time></trkpt><trkpt lat="53.81583064828269" lon="87.41988667235275"><ele>239.0</ele><time>2026-04-30T12:05:55Z</time></trkpt><trkpt lat="53.815909170629624" lon="87.42009312476858"><ele>238.5</ele><time>2026-04-30T12:05:56Z</time></trkpt><trkpt lat="53.815989220907014" lon="87.42030078056128"><ele>238.0</ele><time>2026-04-30T12:05:57Z</time></trkpt><trkpt lat="53.81606757906244" lon="87.42050742900918"><ele>237.5</ele><time>2026-04-30T12:05:58Z</time></trkpt><trkpt lat="53.81614455057514" lon="87.42071647948765"><ele>237.0</ele><time>2026-04-30T12:05:59Z</time></trkpt><trkpt lat="53.81621933005029" lon="87.42092791596183"><ele>237.0</ele><time>2026-04-30T12:06:00Z</time></trkpt><trkpt lat="53.816290507810834" lon="87.42114442631703"><ele>237.0</ele><time>2026-04-30T12:06:01Z</time></trkpt><trkpt lat="53.8163613797938" lon="87.42136459438554"><ele>237.0</ele><time>2026-04-30T12:06:02Z</time></trkpt><trkpt lat="53.816432093640216" lon="87.42158502837508"><ele>237.0</ele><time>2026-04-30T12:06:03Z</time></trkpt><trkpt lat="53.816506588768476" lon="87.42180087162953"><ele>234.5</ele><time>2026-04-30T12:06:04Z</time></trkpt><trkpt lat="53.81657536444059" lon="87.42201436736349"><ele>232.0</ele><time>2026-04-30T12:06:05Z</time></trkpt><trkpt lat="53.81664423826067" lon="87.42222370077916"><ele>229.5</ele><time>2026-04-30T12:06:06Z</time></trkpt><trkpt lat="53.816711007221215" lon="87.42243282487041"><ele>227.0</ele><time>2026-04-30T12:06:07Z</time></trkpt><trkpt lat="53.81677846848842" lon="87.42263972388348"><ele>227.25</ele><time>2026-04-30T12:06:08Z</time></trkpt><trkpt lat="53.81684513816112" lon="87.42283843885255"><ele>227.5</ele><time>2026-04-30T12:06:09Z</time></trkpt><trkpt lat="53.816911783131545" lon="87.42303144969827"><ele>227.75</ele><time>2026-04-30T12:06:10Z</time></trkpt><trkpt lat="53.81698339260504" lon="87.42321725038646"><ele>228.0</ele><time>2026-04-30T12:06:11Z</time></trkpt><trkpt lat="53.81705741664564" lon="87.42339459712343"><ele>225.5</ele><time>2026-04-30T12:06:12Z</time></trkpt><trkpt lat="53.81713511784108" lon="87.42356476922629"><ele>223.0</ele><time>2026-04-30T12:06:13Z</time></trkpt><trkpt lat="53.81721523080366" lon="87.42372873126953"><ele>220.5</ele><time>2026-04-30T12:06:14Z</time></trkpt><trkpt lat="53.81729039207856" lon="87.42389924085407"><ele>218.0</ele><time>2026-04-30T12:06:15Z</time></trkpt><trkpt lat="53.81735847648403" lon="87.42407852107458"><ele>217.0</ele><time>2026-04-30T12:06:16Z</time></trkpt><trkpt lat="53.81741641624781" lon="87.42426731027159"><ele>216.0</ele><time>2026-04-30T12:06:17.001Z</time></trkpt><trkpt lat="53.81746116224573" lon="87.42446745386472"><ele>215.0</ele><time>2026-04-30T12:06:18.001Z</time></trkpt><trkpt lat="53.817507240535804" lon="87.42466960477027"><ele>214.0</ele><time>2026-04-30T12:06:19.001Z</time></trkpt><trkpt lat="53.81755706937201" lon="87.42487022860496"><ele>213.5</ele><time>2026-04-30T12:06:20.001Z</time></trkpt><trkpt lat="53.817625118872265" lon="87.42504023511773"><ele>213.0</ele><time>2026-04-30T12:06:21.001Z</time></trkpt><trkpt lat="53.81768484370234" lon="87.42521760377318"><ele>212.5</ele><time>2026-04-30T12:06:22.001Z</time></trkpt><trkpt lat="53.81772993329912" lon="87.42540794215661"><ele>212.0</ele><time>2026-04-30T12:06:23.001Z</time></trkpt><trkpt lat="53.817797898918315" lon="87.42558576141123"><ele>214.5</ele><time>2026-04-30T12:06:24.001Z</time></trkpt><trkpt lat="53.81787055945958" lon="87.42576279144008"><ele>217.0</ele><time>2026-04-30T12:06:25.001Z</time></trkpt><trkpt lat="53.817945233591054" lon="87.42594870172252"><ele>219.5</ele><time>2026-04-30T12:06:26.001Z</time></trkpt><trkpt lat="53.81802208863437" lon="87.42613494324682"><ele>222.0</ele><time>2026-04-30T12:06:27.001Z</time></trkpt><trkpt lat="53.81810068004004" lon="87.42631962526423"><ele>222.0</ele><time>2026-04-30T12:06:28.001Z</time></trkpt><trkpt lat="53.818183472897886" lon="87.42650183477699"><ele>222.0</ele><time>2026-04-30T12:06:29.001Z</time></trkpt><trkpt lat="53.81826882165634" lon="87.42668012427515"><ele>222.0</ele><time>2026-04-30T12:06:30.001Z</time></trkpt><trkpt lat="53.81835699543491" lon="87.4268601766014"><ele>222.0</ele><time>2026-04-30T12:06:31.001Z</time></trkpt><trkpt lat="53.81844989509541" lon="87.4270362952057"><ele>225.0</ele><time>2026-04-30T12:06:32.001Z</time></trkpt><trkpt lat="53.81854370395967" lon="87.42720935953632"><ele>228.0</ele><time>2026-04-30T12:06:33.001Z</time></trkpt><trkpt lat="53.818640717591016" lon="87.42738067214789"><ele>231.0</ele><time>2026-04-30T12:06:34.001Z</time></trkpt><trkpt lat="53.818739943929124" lon="87.42755266637928"><ele>234.0</ele><time>2026-04-30T12:06:35.001Z</time></trkpt><trkpt lat="53.818841130653816" lon="87.42772072529854"><ele>234.0</ele><time>2026-04-30T12:06:36.001Z</time></trkpt><trkpt lat="53.81893945536683" lon="87.42788288374352"><ele>234.0</ele><time>2026-04-30T12:06:37.001Z</time></trkpt><trkpt lat="53.81903614003831" lon="87.42804636977503"><ele>234.0</ele><time>2026-04-30T12:06:38.001Z</time></trkpt><trkpt lat="53.81913111866884" lon="87.4282094880528"><ele>234.0</ele><time>2026-04-30T12:06:39.001Z</time></trkpt><trkpt lat="53.81922817055697" lon="87.42836670254499"><ele>236.0</ele><time>2026-04-30T12:06:40.001Z</time></trkpt><trkpt lat="53.819322542955305" lon="87.42851364809381"><ele>238.0</ele><time>2026-04-30T12:06:41.001Z</time></trkpt><trkpt lat="53.819414993604425" lon="87.42865462542437"><ele>240.0</ele><time>2026-04-30T12:06:42.001Z</time></trkpt><trkpt lat="53.81951584759943" lon="87.42878494947438"><ele>242.0</ele><time>2026-04-30T12:06:43.001Z</time></trkpt><trkpt lat="53.81962222808001" lon="87.42889850874892"><ele>236.0</ele><time>2026-04-30T12:06:44.001Z</time></trkpt><trkpt lat="53.8197342887921" lon="87.42900057531205"><ele>230.0</ele><time>2026-04-30T12:06:45.001Z</time></trkpt><trkpt lat="53.8198492734896" lon="87.42910185156234"><ele>224.0</ele><time>2026-04-30T12:06:46.001Z</time></trkpt><trkpt lat="53.8199679387409" lon="87.42920335324608"><ele>218.0</ele><time>2026-04-30T12:06:47.001Z</time></trkpt><trkpt lat="53.82009255165135" lon="87.42930418646282"><ele>218.25</ele><time>2026-04-30T12:06:48.001Z</time></trkpt><trkpt lat="53.820221400851786" lon="87.42940501203246"><ele>218.5</ele><time>2026-04-30T12:06:49.001Z</time></trkpt><trkpt lat="53.8203540219007" lon="87.42951081786778"><ele>218.75</ele><time>2026-04-30T12:06:50.001Z</time></trkpt><trkpt lat="53.8204823800831" lon="87.42962288287958"><ele>219.0</ele><time>2026-04-30T12:06:51.001Z</time></trkpt><trkpt lat="53.82060711554446" lon="87.4297410776459"><ele>219.0</ele><time>2026-04-30T12:06:52Z</time></trkpt><trkpt lat="53.82072659841111" lon="87.42986090354344"><ele>219.0</ele><time>2026-04-30T12:06:53Z</time></trkpt><trkpt lat="53.82084090553686" lon="87.4299869145252"><ele>219.0</ele><time>2026-04-30T12:06:54Z</time></trkpt><trkpt lat="53.82095003859904" lon="87.43011684091371"><ele>219.0</ele><time>2026-04-30T12:06:55Z</time></trkpt><trkpt lat="53.82105700907609" lon="87.4302383525"><ele>220.39999999999998</ele><time>2026-04-30T12:06:56Z</time></trkpt><trkpt lat="53.82115841215573" lon="87.4303489156792"><ele>221.79999999999998</ele><time>2026-04-30T12:06:57Z</time></trkpt><trkpt lat="53.82125335779912" lon="87.43045019487153"><ele>223.20000000000002</ele><time>2026-04-30T12:06:58Z</time></trkpt><trkpt lat="53.82133705774144" lon="87.4305400900988"><ele>224.60000000000002</ele><time>2026-04-30T12:06:59Z</time></trkpt><trkpt lat="53.82140800208508" lon="87.43061556173159"><ele>226.0</ele><time>2026-04-30T12:07:00Z</time></trkpt><trkpt lat="53.82146849438758" lon="87.4306964222757"><ele>225.99999999999997</ele><time>2026-04-30T12:07:01Z</time></trkpt><trkpt lat="53.82152104325345" lon="87.43076930940741"><ele>226.0</ele><time>2026-04-30T12:07:02Z</time></trkpt><trkpt lat="53.821575123456434" lon="87.43083167900414"><ele>226.0</ele><time>2026-04-30T12:07:03Z</time></trkpt><trkpt lat="53.82162577811897" lon="87.43091222653251"><ele>226.0</ele><time>2026-04-30T12:07:04Z</time></trkpt><trkpt lat="53.82167677784848" lon="87.43101331493656"><ele>225.99999999999997</ele><time>2026-04-30T12:07:05Z</time></trkpt><trkpt lat="53.821730651456015" lon="87.43113012520186"><ele>226.0</ele><time>2026-04-30T12:07:06Z</time></trkpt><trkpt lat="53.8217908781197" lon="87.43126372351384"><ele>226.5</ele><time>2026-04-30T12:07:07Z</time></trkpt><trkpt lat="53.82185657115409" lon="87.43140757625348"><ele>227.0</ele><time>2026-04-30T12:07:08Z</time></trkpt><trkpt lat="53.82192664346302" lon="87.43156249456804"><ele>227.5</ele><time>2026-04-30T12:07:09Z</time></trkpt><trkpt lat="53.82200307038929" lon="87.43172970419877"><ele>228.0</ele><time>2026-04-30T12:07:10Z</time></trkpt><trkpt lat="53.822084104799416" lon="87.43190763794831"><ele>228.0</ele><time>2026-04-30T12:07:11Z</time></trkpt><trkpt lat="53.822168022206746" lon="87.43209577354477"><ele>228.0</ele><time>2026-04-30T12:07:12Z</time></trkpt><trkpt lat="53.82225380159526" lon="87.43229302259672"><ele>228.0</ele><time>2026-04-30T12:07:13Z</time></trkpt><trkpt lat="53.82234779894373" lon="87.43248821306194"><ele>228.0</ele><time>2026-04-30T12:07:14Z</time></trkpt><trkpt lat="53.82243861922385" lon="87.43268658816169"><ele>226.0</ele><time>2026-04-30T12:07:15Z</time></trkpt><trkpt lat="53.82252121349549" lon="87.43289141826541"><ele>224.0</ele><time>2026-04-30T12:07:16Z</time></trkpt><trkpt lat="53.82260334900145" lon="87.43309708530298"><ele>222.0</ele><time>2026-04-30T12:07:17Z</time></trkpt><trkpt lat="53.822677234556544" lon="87.43331061786604"><ele>220.0</ele><time>2026-04-30T12:07:18Z</time></trkpt><trkpt lat="53.82273709184671" lon="87.43352991505698"><ele>220.0</ele><time>2026-04-30T12:07:19Z</time></trkpt><trkpt lat="53.822794079604336" lon="87.43375316250791"><ele>220.0</ele><time>2026-04-30T12:07:20Z</time></trkpt><trkpt lat="53.822867572430454" lon="87.43396669564974"><ele>220.0</ele><time>2026-04-30T12:07:21Z</time></trkpt><trkpt lat="53.82292139102889" lon="87.4341969644739"><ele>220.0</ele><time>2026-04-30T12:07:22Z</time></trkpt><trkpt lat="53.82297060346909" lon="87.43442499961625"><ele>219.0</ele><time>2026-04-30T12:07:23Z</time></trkpt><trkpt lat="53.823000720306005" lon="87.43466367675325"><ele>218.0</ele><time>2026-04-30T12:07:24Z</time></trkpt><trkpt lat="53.82303930922065" lon="87.43489923473805"><ele>217.0</ele><time>2026-04-30T12:07:25Z</time></trkpt><trkpt lat="53.82309403001164" lon="87.4351178539225"><ele>216.0</ele><time>2026-04-30T12:07:26Z</time></trkpt><trkpt lat="53.82313207251062" lon="87.43533989763465"><ele>217.0</ele><time>2026-04-30T12:07:27Z</time></trkpt><trkpt lat="53.823168710148515" lon="87.43555351741979"><ele>218.0</ele><time>2026-04-30T12:07:28Z</time></trkpt><trkpt lat="53.82320567622767" lon="87.43576998578284"><ele>219.0</ele><time>2026-04-30T12:07:29Z</time></trkpt><trkpt lat="53.823242116590336" lon="87.4359880006525"><ele>220.0</ele><time>2026-04-30T12:07:30Z</time></trkpt><trkpt lat="53.823279292332685" lon="87.4362082824316"><ele>219.75</ele><time>2026-04-30T12:07:31Z</time></trkpt><trkpt lat="53.823316853642254" lon="87.43643583105873"><ele>219.5</ele><time>2026-04-30T12:07:32Z</time></trkpt><trkpt lat="53.82335512281914" lon="87.43666483535655"><ele>219.25</ele><time>2026-04-30T12:07:33Z</time></trkpt><trkpt lat="53.823393623777065" lon="87.4368916207269"><ele>219.0</ele><time>2026-04-30T12:07:34Z</time></trkpt><trkpt lat="53.82343278800876" lon="87.43712700495215"><ele>219.25</ele><time>2026-04-30T12:07:35Z</time></trkpt><trkpt lat="53.8234716877152" lon="87.43735841084204"><ele>219.5</ele><time>2026-04-30T12:07:36Z</time></trkpt><trkpt lat="53.82350695340489" lon="87.43759355829512"><ele>219.75</ele><time>2026-04-30T12:07:37Z</time></trkpt><trkpt lat="53.823525542818075" lon="87.43783195586323"><ele>220.0</ele><time>2026-04-30T12:07:38Z</time></trkpt><trkpt lat="53.82355849494362" lon="87.4380619656684"><ele>220.0</ele><time>2026-04-30T12:07:39Z</time></trkpt><trkpt lat="53.82360643229429" lon="87.43828668745059"><ele>220.0</ele><time>2026-04-30T12:07:40Z</time></trkpt><trkpt lat="53.8236167798036" lon="87.4385178955736"><ele>220.0</ele><time>2026-04-30T12:07:41Z</time></trkpt><trkpt lat="53.82364444899306" lon="87.43873806457965"><ele>220.0</ele><time>2026-04-30T12:07:42Z</time></trkpt><trkpt lat="53.82366010466461" lon="87.43894867645083"><ele>218.25</ele><time>2026-04-30T12:07:43Z</time></trkpt><trkpt lat="53.82366772427562" lon="87.4391472269034"><ele>216.5</ele><time>2026-04-30T12:07:44Z</time></trkpt><trkpt lat="53.823685052892934" lon="87.43934128272483"><ele>214.75</ele><time>2026-04-30T12:07:45Z</time></trkpt><trkpt lat="53.82368993672645" lon="87.43953345576247"><ele>213.0</ele><time>2026-04-30T12:07:46Z</time></trkpt><trkpt lat="53.82368451874174" lon="87.43973238570454"><ele>213.0</ele><time>2026-04-30T12:07:47Z</time></trkpt><trkpt lat="53.82366213335946" lon="87.43992753515577"><ele>213.0</ele><time>2026-04-30T12:07:48Z</time></trkpt><trkpt lat="53.82366842590108" lon="87.44013280814912"><ele>213.0</ele><time>2026-04-30T12:07:49Z</time></trkpt><trkpt lat="53.82365608913925" lon="87.44033447149143"><ele>213.0</ele><time>2026-04-30T12:07:50Z</time></trkpt><trkpt lat="53.82363968267416" lon="87.44052883425871"><ele>214.25</ele><time>2026-04-30T12:07:51Z</time></trkpt><trkpt lat="53.82362322699514" lon="87.44072377997438"><ele>215.5</ele><time>2026-04-30T12:07:52Z</time></trkpt><trkpt lat="53.82360673795835" lon="87.44091989587945"><ele>216.75</ele><time>2026-04-30T12:07:53Z</time></trkpt><trkpt lat="53.8235754141169" lon="87.44111160022163"><ele>218.0</ele><time>2026-04-30T12:07:54Z</time></trkpt><trkpt lat="53.82356346386058" lon="87.44131094590301"><ele>218.0</ele><time>2026-04-30T12:07:55Z</time></trkpt><trkpt lat="53.823551144461064" lon="87.44151102434151"><ele>218.0</ele><time>2026-04-30T12:07:56Z</time></trkpt><trkpt lat="53.82353638410101" lon="87.4417141227805"><ele>218.0</ele><time>2026-04-30T12:07:57Z</time></trkpt><trkpt lat="53.823518572905115" lon="87.44191828630517"><ele>218.0</ele><time>2026-04-30T12:07:58Z</time></trkpt><trkpt lat="53.82350201634585" lon="87.44212135047954"><ele>218.5</ele><time>2026-04-30T12:07:59Z</time></trkpt><trkpt lat="53.82348874942987" lon="87.44232406111003"><ele>219.0</ele><time>2026-04-30T12:08:00Z</time></trkpt><trkpt lat="53.82347477895264" lon="87.44251865853694"><ele>219.5</ele><time>2026-04-30T12:08:01Z</time></trkpt><trkpt lat="53.82345790876472" lon="87.4427038354093"><ele>220.0</ele><time>2026-04-30T12:08:02Z</time></trkpt><trkpt lat="53.823439767675296" lon="87.44288837917611"><ele>217.25</ele><time>2026-04-30T12:08:03Z</time></trkpt><trkpt lat="53.82341383311898" lon="87.44308283668988"><ele>214.5</ele><time>2026-04-30T12:08:04Z</time></trkpt><trkpt lat="53.82338826283783" lon="87.44327804086264"><ele>211.75</ele><time>2026-04-30T12:08:05Z</time></trkpt><trkpt lat="53.823352784080704" lon="87.4434618778507"><ele>209.0</ele><time>2026-04-30T12:08:06Z</time></trkpt><trkpt lat="53.82332307758313" lon="87.44365385848712"><ele>209.0</ele><time>2026-04-30T12:08:07Z</time></trkpt><trkpt lat="53.823295864509326" lon="87.44384023079162"><ele>209.0</ele><time>2026-04-30T12:08:08Z</time></trkpt><trkpt lat="53.823266307865396" lon="87.44402242856346"><ele>209.0</ele><time>2026-04-30T12:08:09Z</time></trkpt><trkpt lat="53.82323801609977" lon="87.44420734585917"><ele>209.0</ele><time>2026-04-30T12:08:10Z</time></trkpt><trkpt lat="53.823209268222826" lon="87.44439476236762"><ele>209.0</ele><time>2026-04-30T12:08:11Z</time></trkpt><trkpt lat="53.82317665224758" lon="87.44459789709722"><ele>209.0</ele><time>2026-04-30T12:08:12Z</time></trkpt><trkpt lat="53.82314409718969" lon="87.44481060676382"><ele>209.0</ele><time>2026-04-30T12:08:13Z</time></trkpt><trkpt lat="53.82311190382042" lon="87.4450275419038"><ele>209.0</ele><time>2026-04-30T12:08:14Z</time></trkpt><trkpt lat="53.82307846835011" lon="87.44524858522608"><ele>212.0</ele><time>2026-04-30T12:08:15Z</time></trkpt><trkpt lat="53.82304686879816" lon="87.44547293816514"><ele>215.0</ele><time>2026-04-30T12:08:16Z</time></trkpt><trkpt lat="53.82301796237969" lon="87.44569689106484"><ele>218.0</ele><time>2026-04-30T12:08:17Z</time></trkpt><trkpt lat="53.82298372963403" lon="87.4459155085671"><ele>221.0</ele><time>2026-04-30T12:08:18Z</time></trkpt><trkpt lat="53.82295652932594" lon="87.44613694492541"><ele>222.75</ele><time>2026-04-30T12:08:19Z</time></trkpt><trkpt lat="53.822925609232435" lon="87.44635655424895"><ele>224.5</ele><time>2026-04-30T12:08:20Z</time></trkpt><trkpt lat="53.82289702731554" lon="87.44655821716462"><ele>226.25</ele><time>2026-04-30T12:08:21Z</time></trkpt><trkpt lat="53.822862366648394" lon="87.44676299829794"><ele>228.0</ele><time>2026-04-30T12:08:22Z</time></trkpt><trkpt lat="53.8228354592552" lon="87.44697018103041"><ele>230.0</ele><time>2026-04-30T12:08:23Z</time></trkpt><trkpt lat="53.822806504391615" lon="87.44719603461752"><ele>232.0</ele><time>2026-04-30T12:08:24Z</time></trkpt><trkpt lat="53.82277813870527" lon="87.44742122062499"><ele>234.0</ele><time>2026-04-30T12:08:25Z</time></trkpt><trkpt lat="53.82275342714712" lon="87.44765053347419"><ele>236.0</ele><time>2026-04-30T12:08:26Z</time></trkpt><trkpt lat="53.82273336261018" lon="87.4478871339042"><ele>237.5</ele><time>2026-04-30T12:08:27Z</time></trkpt><trkpt lat="53.822713532184544" lon="87.44812968571543"><ele>239.0</ele><time>2026-04-30T12:08:28Z</time></trkpt><trkpt lat="53.82269374189684" lon="87.44837452263963"><ele>240.5</ele><time>2026-04-30T12:08:29Z</time></trkpt><trkpt lat="53.82267740476285" lon="87.44861547533678"><ele>242.0</ele><time>2026-04-30T12:08:30Z</time></trkpt><trkpt lat="53.82266303826737" lon="87.4488576870975"><ele>234.75</ele><time>2026-04-30T12:08:31Z</time></trkpt><trkpt lat="53.822647087747775" lon="87.44909748636027"><ele>227.5</ele><time>2026-04-30T12:08:32Z</time></trkpt><trkpt lat="53.8226314958474" lon="87.44933959318614"><ele>220.25</ele><time>2026-04-30T12:08:33Z</time></trkpt><trkpt lat="53.8226160750335" lon="87.44957503048306"><ele>213.0</ele><time>2026-04-30T12:08:34Z</time></trkpt><trkpt lat="53.822600852058486" lon="87.44980733183415"><ele>213.0</ele><time>2026-04-30T12:08:35Z</time></trkpt><trkpt lat="53.82258302480004" lon="87.45004301058346"><ele>213.0</ele><time>2026-04-30T12:08:36Z</time></trkpt><trkpt lat="53.8225816494313" lon="87.45028143269482"><ele>213.0</ele><time>2026-04-30T12:08:37Z</time></trkpt><trkpt lat="53.822566164671294" lon="87.45051836097254"><ele>213.0</ele><time>2026-04-30T12:08:38Z</time></trkpt><trkpt lat="53.82255058048097" lon="87.45075140734997"><ele>213.5</ele><time>2026-04-30T12:08:39Z</time></trkpt><trkpt lat="53.82251932260606" lon="87.45098053320405"><ele>214.0</ele><time>2026-04-30T12:08:40Z</time></trkpt><trkpt lat="53.82250969165852" lon="87.4512135541813"><ele>214.5</ele><time>2026-04-30T12:08:41Z</time></trkpt><trkpt lat="53.82249718733847" lon="87.4514418600328"><ele>215.0</ele><time>2026-04-30T12:08:42Z</time></trkpt><trkpt lat="53.822482797302605" lon="87.45166366033864"><ele>215.25</ele><time>2026-04-30T12:08:43Z</time></trkpt><trkpt lat="53.8224696263948" lon="87.45188819566971"><ele>215.5</ele><time>2026-04-30T12:08:44Z</time></trkpt><trkpt lat="53.82245672434263" lon="87.45211445862958"><ele>215.75</ele><time>2026-04-30T12:08:45Z</time></trkpt><trkpt lat="53.8224392111328" lon="87.45233583416544"><ele>216.0</ele><time>2026-04-30T12:08:46Z</time></trkpt><trkpt lat="53.8224260321766" lon="87.45255461467944"><ele>216.25</ele><time>2026-04-30T12:08:47Z</time></trkpt><trkpt lat="53.82240756016049" lon="87.4527676615568"><ele>216.5</ele><time>2026-04-30T12:08:48Z</time></trkpt><trkpt lat="53.82239335977205" lon="87.45297410788531"><ele>216.75</ele><time>2026-04-30T12:08:49Z</time></trkpt><trkpt lat="53.82238194712987" lon="87.45318522949951"><ele>217.0</ele><time>2026-04-30T12:08:50Z</time></trkpt><trkpt lat="53.82237138239799" lon="87.45338747372676"><ele>217.0</ele><time>2026-04-30T12:08:51Z</time></trkpt><trkpt lat="53.82235507682091" lon="87.45358447728303"><ele>217.0</ele><time>2026-04-30T12:08:52Z</time></trkpt><trkpt lat="53.82233095985041" lon="87.45378260440867"><ele>217.0</ele><time>2026-04-30T12:08:53Z</time></trkpt><trkpt lat="53.82229741355573" lon="87.45396730488528"><ele>217.0</ele><time>2026-04-30T12:08:54Z</time></trkpt><trkpt lat="53.822263089609685" lon="87.4541375182953"><ele>217.6</ele><time>2026-04-30T12:08:55Z</time></trkpt><trkpt lat="53.82223543618137" lon="87.45430009471798"><ele>218.2</ele><time>2026-04-30T12:08:56Z</time></trkpt><trkpt lat="53.82221358740891" lon="87.45446177536571"><ele>218.8</ele><time>2026-04-30T12:08:57Z</time></trkpt><trkpt lat="53.822194686785835" lon="87.45462944319014"><ele>219.4</ele><time>2026-04-30T12:08:58Z</time></trkpt><trkpt lat="53.8221753581862" lon="87.45480734432343"><ele>220.0</ele><time>2026-04-30T12:08:59Z</time></trkpt><trkpt lat="53.822157128416286" lon="87.45498209756536"><ele>221.25</ele><time>2026-04-30T12:09:00Z</time></trkpt><trkpt lat="53.822137540488555" lon="87.4551619687793"><ele>222.5</ele><time>2026-04-30T12:09:01Z</time></trkpt><trkpt lat="53.822114048325005" lon="87.45534980915608"><ele>223.75</ele><time>2026-04-30T12:09:02Z</time></trkpt><trkpt lat="53.82208954530671" lon="87.45553745075902"><ele>225.0</ele><time>2026-04-30T12:09:03Z</time></trkpt><trkpt lat="53.82206726403923" lon="87.45572915877439"><ele>226.0</ele><time>2026-04-30T12:09:04Z</time></trkpt><trkpt lat="53.82205022641221" lon="87.45592209868062"><ele>227.0</ele><time>2026-04-30T12:09:05Z</time></trkpt><trkpt lat="53.82203685720364" lon="87.45611383028398"><ele>228.0</ele><time>2026-04-30T12:09:06Z</time></trkpt><trkpt lat="53.822030152822364" lon="87.45630768135882"><ele>229.0</ele><time>2026-04-30T12:09:07Z</time></trkpt><trkpt lat="53.822026781561966" lon="87.45649350083316"><ele>229.5</ele><time>2026-04-30T12:09:08Z</time></trkpt><trkpt lat="53.82202145287451" lon="87.45667438732958"><ele>230.0</ele><time>2026-04-30T12:09:09Z</time></trkpt><trkpt lat="53.82202378822728" lon="87.45686820996478"><ele>230.5</ele><time>2026-04-30T12:09:10Z</time></trkpt><trkpt lat="53.82202434435923" lon="87.45706604029145"><ele>231.0</ele><time>2026-04-30T12:09:11Z</time></trkpt><trkpt lat="53.822028111242275" lon="87.45727029973334"><ele>231.25</ele><time>2026-04-30T12:09:12Z</time></trkpt><trkpt lat="53.82203465889365" lon="87.45747788881674"><ele>231.5</ele><time>2026-04-30T12:09:13Z</time></trkpt><trkpt lat="53.822046172028" lon="87.45768074783508"><ele>231.75</ele><time>2026-04-30T12:09:14Z</time></trkpt><trkpt lat="53.82205444153142" lon="87.45788735415708"><ele>232.0</ele><time>2026-04-30T12:09:15Z</time></trkpt><trkpt lat="53.822064729914906" lon="87.45809102880185"><ele>230.5</ele><time>2026-04-30T12:09:16Z</time></trkpt><trkpt lat="53.82207610903245" lon="87.45830146538904"><ele>229.0</ele><time>2026-04-30T12:09:17Z</time></trkpt><trkpt lat="53.82208442453899" lon="87.45851202696355"><ele>227.5</ele><time>2026-04-30T12:09:18Z</time></trkpt><trkpt lat="53.82208883959038" lon="87.45871823525685"><ele>226.0</ele><time>2026-04-30T12:09:19Z</time></trkpt><trkpt lat="53.82209782442705" lon="87.45892428513851"><ele>225.0</ele><time>2026-04-30T12:09:20Z</time></trkpt><trkpt lat="53.822103832043034" lon="87.45913514554832"><ele>224.0</ele><time>2026-04-30T12:09:21Z</time></trkpt><trkpt lat="53.82210084127138" lon="87.45934579961049"><ele>223.0</ele><time>2026-04-30T12:09:22Z</time></trkpt><trkpt lat="53.82208474030142" lon="87.45954948558892"><ele>222.0</ele><time>2026-04-30T12:09:23Z</time></trkpt><trkpt lat="53.82204916816744" lon="87.45973924575844"><ele>221.5</ele><time>2026-04-30T12:09:24Z</time></trkpt><trkpt lat="53.82199924181478" lon="87.4599181549552"><ele>221.0</ele><time>2026-04-30T12:09:25Z</time></trkpt><trkpt lat="53.82193703734953" lon="87.4600881841124"><ele>220.5</ele><time>2026-04-30T12:09:26Z</time></trkpt><trkpt lat="53.82187440490207" lon="87.46025217661463"><ele>220.0</ele><time>2026-04-30T12:09:27Z</time></trkpt><trkpt lat="53.82180702566729" lon="87.46040769797978"><ele>217.4</ele><time>2026-04-30T12:09:28Z</time></trkpt><trkpt lat="53.82174448615054" lon="87.46055710818287"><ele>214.8</ele><time>2026-04-30T12:09:29Z</time></trkpt><trkpt lat="53.82168416411242" lon="87.46071409464417"><ele>212.2</ele><time>2026-04-30T12:09:30Z</time></trkpt><trkpt lat="53.8216245920607" lon="87.46087042688805"><ele>209.6</ele><time>2026-04-30T12:09:31Z</time></trkpt><trkpt lat="53.82156365012564" lon="87.46102527507158"><ele>207.0</ele><time>2026-04-30T12:09:32Z</time></trkpt><trkpt lat="53.82150295951267" lon="87.46118469542272"><ele>207.0</ele><time>2026-04-30T12:09:33Z</time></trkpt><trkpt lat="53.82144164553807" lon="87.46135193084963"><ele>207.0</ele><time>2026-04-30T12:09:34Z</time></trkpt><trkpt lat="53.82137897518037" lon="87.46151708966383"><ele>207.0</ele><time>2026-04-30T12:09:35Z</time></trkpt><trkpt lat="53.8213171007936" lon="87.46168192690656"><ele>207.0</ele><time>2026-04-30T12:09:36Z</time></trkpt><trkpt lat="53.821253524796454" lon="87.46185049047254"><ele>207.0</ele><time>2026-04-30T12:09:37Z</time></trkpt><trkpt lat="53.82118976216267" lon="87.46201725051375"><ele>207.0</ele><time>2026-04-30T12:09:38Z</time></trkpt><trkpt lat="53.82112721920973" lon="87.46218173183608"><ele>207.0</ele><time>2026-04-30T12:09:39Z</time></trkpt><trkpt lat="53.821068107608326" lon="87.46234547583062"><ele>207.0</ele><time>2026-04-30T12:09:40Z</time></trkpt><trkpt lat="53.821017813510636" lon="87.4625173078337"><ele>207.0</ele><time>2026-04-30T12:09:41Z</time></trkpt><trkpt lat="53.820972394795625" lon="87.46269410620705"><ele>207.0</ele><time>2026-04-30T12:09:42Z</time></trkpt><trkpt lat="53.82095453767235" lon="87.46288036970341"><ele>207.0</ele><time>2026-04-30T12:09:43Z</time></trkpt><trkpt lat="53.82091173034163" lon="87.46305592524304"><ele>207.0</ele><time>2026-04-30T12:09:44Z</time></trkpt><trkpt lat="53.820899642167134" lon="87.46324384058445"><ele>207.0</ele><time>2026-04-30T12:09:45Z</time></trkpt><trkpt lat="53.820905811036354" lon="87.46343320943686"><ele>207.0</ele><time>2026-04-30T12:09:46Z</time></trkpt><trkpt lat="53.8209276232773" lon="87.46362709745105"><ele>207.0</ele><time>2026-04-30T12:09:47Z</time></trkpt><trkpt lat="53.820968636697394" lon="87.46382376259709"><ele>207.0</ele><time>2026-04-30T12:09:48Z</time></trkpt><trkpt lat="53.82098987697653" lon="87.46402654650242"><ele>207.0</ele><time>2026-04-30T12:09:49Z</time></trkpt><trkpt lat="53.821027993821595" lon="87.46421377534243"><ele>207.5</ele><time>2026-04-30T12:09:50Z</time></trkpt><trkpt lat="53.82106608188043" lon="87.4644056448879"><ele>208.0</ele><time>2026-04-30T12:09:51Z</time></trkpt><trkpt lat="53.82110396577729" lon="87.46459675275251"><ele>208.5</ele><time>2026-04-30T12:09:52Z</time></trkpt><trkpt lat="53.82114159807257" lon="87.46478659905982"><ele>209.0</ele><time>2026-04-30T12:09:53Z</time></trkpt><trkpt lat="53.82117978755061" lon="87.46497767550788"><ele>209.0</ele><time>2026-04-30T12:09:54Z</time></trkpt><trkpt lat="53.8212188409953" lon="87.46517239487989"><ele>209.0</ele><time>2026-04-30T12:09:55Z</time></trkpt><trkpt lat="53.82125719202331" lon="87.46536390350975"><ele>209.0</ele><time>2026-04-30T12:09:56Z</time></trkpt><trkpt lat="53.82129669405279" lon="87.46555381036231"><ele>209.0</ele><time>2026-04-30T12:09:57Z</time></trkpt><trkpt lat="53.82131663833171" lon="87.46575698744788"><ele>209.0</ele><time>2026-04-30T12:09:58Z</time></trkpt><trkpt lat="53.82134896554331" lon="87.46595232174441"><ele>209.0</ele><time>2026-04-30T12:09:59Z</time></trkpt><trkpt lat="53.82139397042784" lon="87.46613980700015"><ele>209.0</ele><time>2026-04-30T12:10:00Z</time></trkpt><trkpt lat="53.821449901577324" lon="87.4663254389658"><ele>209.0</ele><time>2026-04-30T12:10:01Z</time></trkpt><trkpt lat="53.8214873748114" lon="87.46651814357269"><ele>208.75</ele><time>2026-04-30T12:10:02Z</time></trkpt><trkpt lat="53.82156889720125" lon="87.46670619414805"><ele>208.5</ele><time>2026-04-30T12:10:03Z</time></trkpt><trkpt lat="53.82165962770351" lon="87.46684744394987"><ele>208.25</ele><time>2026-04-30T12:10:04Z</time></trkpt><trkpt lat="53.82174562425229" lon="87.46698132389578"><ele>208.0</ele><time>2026-04-30T12:10:05Z</time></trkpt><trkpt lat="53.82185695376768" lon="87.46709585482681"><ele>207.5</ele><time>2026-04-30T12:10:06Z</time></trkpt><trkpt lat="53.821967349334955" lon="87.46716303224815"><ele>207.0</ele><time>2026-04-30T12:10:07Z</time></trkpt><trkpt lat="53.82207373355871" lon="87.4672279526877"><ele>206.5</ele><time>2026-04-30T12:10:08Z</time></trkpt><trkpt lat="53.82217741982463" lon="87.46729122671087"><ele>206.0</ele><time>2026-04-30T12:10:09Z</time></trkpt><trkpt lat="53.82228328843311" lon="87.46735579034464"><ele>206.0</ele><time>2026-04-30T12:10:10Z</time></trkpt><trkpt lat="53.822392058928045" lon="87.46742204043755"><ele>206.0</ele><time>2026-04-30T12:10:11Z</time></trkpt><trkpt lat="53.822501327298234" lon="87.46748857192254"><ele>206.0</ele><time>2026-04-30T12:10:12Z</time></trkpt><trkpt lat="53.82260681469955" lon="87.46755278557306"><ele>206.0</ele><time>2026-04-30T12:10:13Z</time></trkpt><trkpt lat="53.82271550083359" lon="87.46761923204811"><ele>206.75</ele><time>2026-04-30T12:10:14Z</time></trkpt><trkpt lat="53.822826389399296" lon="87.46768746581769"><ele>207.5</ele><time>2026-04-30T12:10:15Z</time></trkpt><trkpt lat="53.82294017151681" lon="87.46775660233381"><ele>208.25</ele><time>2026-04-30T12:10:16Z</time></trkpt><trkpt lat="53.82304914323729" lon="87.46778184900805"><ele>209.0</ele><time>2026-04-30T12:10:17Z</time></trkpt><trkpt lat="53.82315493711198" lon="87.4678829023094"><ele>209.0</ele><time>2026-04-30T12:10:18Z</time></trkpt><trkpt lat="53.82324218262543" lon="87.46802607626674"><ele>209.0</ele><time>2026-04-30T12:10:19Z</time></trkpt><trkpt lat="53.82333536753394" lon="87.4681550843372"><ele>209.0</ele><time>2026-04-30T12:10:20Z</time></trkpt><trkpt lat="53.82343213635382" lon="87.46827096453282"><ele>209.0</ele><time>2026-04-30T12:10:21Z</time></trkpt><trkpt lat="53.823535558456676" lon="87.46836164140355"><ele>209.0</ele><time>2026-04-30T12:10:22Z</time></trkpt><trkpt lat="53.82363954972125" lon="87.46845703202911"><ele>209.0</ele><time>2026-04-30T12:10:23Z</time></trkpt><trkpt lat="53.823744707886135" lon="87.46853205372874"><ele>209.0</ele><time>2026-04-30T12:10:24Z</time></trkpt><trkpt lat="53.82385039056017" lon="87.46860857697361"><ele>209.0</ele><time>2026-04-30T12:10:25Z</time></trkpt><trkpt lat="53.82395694193416" lon="87.46868491308616"><ele>209.0</ele><time>2026-04-30T12:10:26Z</time></trkpt><trkpt lat="53.82406563728191" lon="87.46876296231473"><ele>209.0</ele><time>2026-04-30T12:10:27Z</time></trkpt><trkpt lat="53.824174585352694" lon="87.4688418016389"><ele>209.0</ele><time>2026-04-30T12:10:28Z</time></trkpt><trkpt lat="53.8242805588037" lon="87.46891694054526"><ele>209.0</ele><time>2026-04-30T12:10:29Z</time></trkpt><trkpt lat="53.824385090509985" lon="87.46899263820232"><ele>208.75</ele><time>2026-04-30T12:10:30Z</time></trkpt><trkpt lat="53.824494518369974" lon="87.46907126708237"><ele>208.5</ele><time>2026-04-30T12:10:31Z</time></trkpt><trkpt lat="53.82460035114428" lon="87.46914731275047"><ele>208.25</ele><time>2026-04-30T12:10:32Z</time></trkpt><trkpt lat="53.824709057755484" lon="87.46922542338906"><ele>208.0</ele><time>2026-04-30T12:10:33Z</time></trkpt><trkpt lat="53.824814363710594" lon="87.46930087109048"><ele>208.0</ele><time>2026-04-30T12:10:34Z</time></trkpt><trkpt lat="53.824922032397176" lon="87.4693784515137"><ele>208.0</ele><time>2026-04-30T12:10:35Z</time></trkpt><trkpt lat="53.825010336816554" lon="87.46948632682471"><ele>208.0</ele><time>2026-04-30T12:10:36Z</time></trkpt><trkpt lat="53.825096970585626" lon="87.46962031513019"><ele>208.0</ele><time>2026-04-30T12:10:37Z</time></trkpt><trkpt lat="53.82517944217739" lon="87.46974814608711"><ele>208.2</ele><time>2026-04-30T12:10:38Z</time></trkpt><trkpt lat="53.82526514809432" lon="87.46985568649181"><ele>208.4</ele><time>2026-04-30T12:10:39Z</time></trkpt><trkpt lat="53.8253127972921" lon="87.47002338512966"><ele>208.6</ele><time>2026-04-30T12:10:40Z</time></trkpt><trkpt lat="53.82535918220462" lon="87.47019428659452"><ele>208.79999999999998</ele><time>2026-04-30T12:10:41Z</time></trkpt><trkpt lat="53.82540733381055" lon="87.47037158067101"><ele>209.0</ele><time>2026-04-30T12:10:42Z</time></trkpt><trkpt lat="53.82545734433482" lon="87.47055166938294"><ele>209.0</ele><time>2026-04-30T12:10:43Z</time></trkpt><trkpt lat="53.82551123197452" lon="87.47073899245956"><ele>209.0</ele><time>2026-04-30T12:10:44Z</time></trkpt><trkpt lat="53.82556264679794" lon="87.47093232320921"><ele>209.0</ele><time>2026-04-30T12:10:45Z</time></trkpt><trkpt lat="53.82561448587709" lon="87.47112226663137"><ele>209.0</ele><time>2026-04-30T12:10:46Z</time></trkpt><trkpt lat="53.8256619958873" lon="87.47131668692924"><ele>209.0</ele><time>2026-04-30T12:10:47Z</time></trkpt><trkpt lat="53.82572719943641" lon="87.47149545170987"><ele>209.0</ele><time>2026-04-30T12:10:48Z</time></trkpt><trkpt lat="53.825778877768634" lon="87.47167745174248"><ele>209.0</ele><time>2026-04-30T12:10:49Z</time></trkpt><trkpt lat="53.825831075307256" lon="87.4718599251788"><ele>209.0</ele><time>2026-04-30T12:10:50Z</time></trkpt><trkpt lat="53.82588401721652" lon="87.4720442109115"><ele>209.0</ele><time>2026-04-30T12:10:51Z</time></trkpt><trkpt lat="53.82593779131522" lon="87.4722313933873"><ele>209.0</ele><time>2026-04-30T12:10:52Z</time></trkpt><trkpt lat="53.82599057074353" lon="87.47241470809635"><ele>209.0</ele><time>2026-04-30T12:10:53Z</time></trkpt><trkpt lat="53.8260286995062" lon="87.47260614116759"><ele>209.0</ele><time>2026-04-30T12:10:54Z</time></trkpt><trkpt lat="53.82610739060752" lon="87.47274918134369"><ele>209.0</ele><time>2026-04-30T12:10:55Z</time></trkpt><trkpt lat="53.826165360588305" lon="87.47291092018179"><ele>209.0</ele><time>2026-04-30T12:10:56Z</time></trkpt><trkpt lat="53.826245016631155" lon="87.47303229082254"><ele>209.0</ele><time>2026-04-30T12:10:57Z</time></trkpt><trkpt lat="53.82633021219794" lon="87.47315962262238"><ele>209.0</ele><time>2026-04-30T12:10:58Z</time></trkpt><trkpt lat="53.82640414026747" lon="87.47329978570572"><ele>209.0</ele><time>2026-04-30T12:10:59Z</time></trkpt><trkpt lat="53.82646976849121" lon="87.47345667110454"><ele>208.75</ele><time>2026-04-30T12:11:00Z</time></trkpt><trkpt lat="53.82651655314315" lon="87.47363302525703"><ele>208.5</ele><time>2026-04-30T12:11:01Z</time></trkpt><trkpt lat="53.8265524793912" lon="87.47382353038896"><ele>208.25</ele><time>2026-04-30T12:11:02Z</time></trkpt><trkpt lat="53.82657819229992" lon="87.47402007997864"><ele>208.0</ele><time>2026-04-30T12:11:03Z</time></trkpt><trkpt lat="53.82659526998508" lon="87.47422123996593"><ele>208.0</ele><time>2026-04-30T12:11:04Z</time></trkpt><trkpt lat="53.826605577729936" lon="87.47443146293327"><ele>208.0</ele><time>2026-04-30T12:11:05Z</time></trkpt><trkpt lat="53.826605461947146" lon="87.47464352715134"><ele>208.0</ele><time>2026-04-30T12:11:06Z</time></trkpt><trkpt lat="53.8266190798982" lon="87.47486263910758"><ele>208.0</ele><time>2026-04-30T12:11:07Z</time></trkpt><trkpt lat="53.82661658497525" lon="87.47507945152428"><ele>208.25</ele><time>2026-04-30T12:11:08Z</time></trkpt><trkpt lat="53.82661411042332" lon="87.47529449336305"><ele>208.5</ele><time>2026-04-30T12:11:09Z</time></trkpt><trkpt lat="53.826599400074805" lon="87.47549329094669"><ele>208.75</ele><time>2026-04-30T12:11:10Z</time></trkpt><trkpt lat="53.826603971312544" lon="87.47569320270627"><ele>209.0</ele><time>2026-04-30T12:11:11Z</time></trkpt><trkpt lat="53.82659910079785" lon="87.47589525673804"><ele>209.5</ele><time>2026-04-30T12:11:12Z</time></trkpt><trkpt lat="53.82660520989218" lon="87.47609239038673"><ele>210.0</ele><time>2026-04-30T12:11:13Z</time></trkpt><trkpt lat="53.82660311667806" lon="87.4762875523834"><ele>210.5</ele><time>2026-04-30T12:11:14Z</time></trkpt><trkpt lat="53.82660087835284" lon="87.47648764722521"><ele>211.0</ele><time>2026-04-30T12:11:15Z</time></trkpt><trkpt lat="53.82659851477409" lon="87.4766850064161"><ele>211.0</ele><time>2026-04-30T12:11:16Z</time></trkpt><trkpt lat="53.826619027011105" lon="87.4768514333486"><ele>211.0</ele><time>2026-04-30T12:11:17Z</time></trkpt><trkpt lat="53.82665732395588" lon="87.47703077943251"><ele>211.0</ele><time>2026-04-30T12:11:18Z</time></trkpt><trkpt lat="53.826686352998244" lon="87.47722404310386"><ele>211.0</ele><time>2026-04-30T12:11:19Z</time></trkpt><trkpt lat="53.826742457593234" lon="87.47740398254763"><ele>211.0</ele><time>2026-04-30T12:11:20Z</time></trkpt><trkpt lat="53.826797063677446" lon="87.47759023952669"><ele>211.0</ele><time>2026-04-30T12:11:21Z</time></trkpt><trkpt lat="53.82684718616397" lon="87.47778199291905"><ele>211.0</ele><time>2026-04-30T12:11:22Z</time></trkpt><trkpt lat="53.82688786110167" lon="87.47797983940166"><ele>211.0</ele><time>2026-04-30T12:11:23Z</time></trkpt><trkpt lat="53.826914463171136" lon="87.47817799963079"><ele>211.0</ele><time>2026-04-30T12:11:24Z</time></trkpt><trkpt lat="53.8269300990627" lon="87.47837347366384"><ele>211.0</ele><time>2026-04-30T12:11:25Z</time></trkpt><trkpt lat="53.826947567570144" lon="87.47857461199388"><ele>211.0</ele><time>2026-04-30T12:11:26Z</time></trkpt><trkpt lat="53.82696777255287" lon="87.47876127556935"><ele>211.0</ele><time>2026-04-30T12:11:27Z</time></trkpt><trkpt lat="53.82700077746508" lon="87.47893386995153"><ele>211.0</ele><time>2026-04-30T12:11:28Z</time></trkpt><trkpt lat="53.82705175557919" lon="87.47910163738243"><ele>211.0</ele><time>2026-04-30T12:11:29Z</time></trkpt><trkpt lat="53.82711549931627" lon="87.47925086679147"><ele>211.0</ele><time>2026-04-30T12:11:30Z</time></trkpt><trkpt lat="53.827199363674126" lon="87.47937880276547"><ele>211.0</ele><time>2026-04-30T12:11:31Z</time></trkpt><trkpt lat="53.827293434259175" lon="87.4794974094713"><ele>211.0</ele><time>2026-04-30T12:11:32Z</time></trkpt><trkpt lat="53.827396854137135" lon="87.47961046630134"><ele>211.0</ele><time>2026-04-30T12:11:33Z</time></trkpt><trkpt lat="53.82750408240397" lon="87.47972793630078"><ele>211.0</ele><time>2026-04-30T12:11:34Z</time></trkpt><trkpt lat="53.827612270928405" lon="87.47984701057342"><ele>211.0</ele><time>2026-04-30T12:11:35Z</time></trkpt><trkpt lat="53.82771671085562" lon="87.47996254564465"><ele>211.0</ele><time>2026-04-30T12:11:36Z</time></trkpt><trkpt lat="53.82781292270831" lon="87.48008883327783"><ele>211.0</ele><time>2026-04-30T12:11:37Z</time></trkpt><trkpt lat="53.827899527168206" lon="87.48022516860698"><ele>211.0</ele><time>2026-04-30T12:11:38Z</time></trkpt><trkpt lat="53.82797456737161" lon="87.48037520992041"><ele>211.0</ele><time>2026-04-30T12:11:39Z</time></trkpt><trkpt lat="53.82804236565687" lon="87.48053399042797"><ele>211.0</ele><time>2026-04-30T12:11:40Z</time></trkpt><trkpt lat="53.82810318624543" lon="87.4807040291772"><ele>211.0</ele><time>2026-04-30T12:11:41Z</time></trkpt><trkpt lat="53.82815035795325" lon="87.48088509593248"><ele>211.0</ele><time>2026-04-30T12:11:42Z</time></trkpt><trkpt lat="53.82818028403244" lon="87.48107557288309"><ele>211.0</ele><time>2026-04-30T12:11:43Z</time></trkpt><trkpt lat="53.82820195913083" lon="87.48126937590358"><ele>211.0</ele><time>2026-04-30T12:11:44Z</time></trkpt><trkpt lat="53.828232960120346" lon="87.481456229418"><ele>211.0</ele><time>2026-04-30T12:11:45Z</time></trkpt><trkpt lat="53.82827466749968" lon="87.48164164732214"><ele>211.0</ele><time>2026-04-30T12:11:46Z</time></trkpt><trkpt lat="53.82832280644787" lon="87.48182463904188"><ele>211.0</ele><time>2026-04-30T12:11:47Z</time></trkpt><trkpt lat="53.82837722939771" lon="87.48200323240135"><ele>211.25</ele><time>2026-04-30T12:11:48Z</time></trkpt><trkpt lat="53.82843390859077" lon="87.48217819602286"><ele>211.5</ele><time>2026-04-30T12:11:49Z</time></trkpt><trkpt lat="53.82849046157862" lon="87.48235388772551"><ele>211.75</ele><time>2026-04-30T12:11:50Z</time></trkpt><trkpt lat="53.82854229013523" lon="87.48253679828815"><ele>212.0</ele><time>2026-04-30T12:11:51Z</time></trkpt><trkpt lat="53.828588038907384" lon="87.48272509212386"><ele>212.0</ele><time>2026-04-30T12:11:52Z</time></trkpt><trkpt lat="53.82862286102165" lon="87.4829175272931"><ele>212.0</ele><time>2026-04-30T12:11:53Z</time></trkpt><trkpt lat="53.82864582111248" lon="87.48311238237665"><ele>212.0</ele><time>2026-04-30T12:11:54Z</time></trkpt><trkpt lat="53.82865370046033" lon="87.48330452149006"><ele>212.0</ele><time>2026-04-30T12:11:55Z</time></trkpt><trkpt lat="53.82864637864984" lon="87.48349918876242"><ele>211.75</ele><time>2026-04-30T12:11:56Z</time></trkpt><trkpt lat="53.82862562918633" lon="87.48369630703485"><ele>211.5</ele><time>2026-04-30T12:11:57Z</time></trkpt><trkpt lat="53.82859685360057" lon="87.48388585784565"><ele>211.25</ele><time>2026-04-30T12:11:58Z</time></trkpt><trkpt lat="53.82856007031639" lon="87.48407126091614"><ele>211.0</ele><time>2026-04-30T12:11:59Z</time></trkpt><trkpt lat="53.82851773717862" lon="87.48424712033245"><ele>211.25</ele><time>2026-04-30T12:12:00Z</time></trkpt><trkpt lat="53.828474726132114" lon="87.48442902793595"><ele>211.5</ele><time>2026-04-30T12:12:01Z</time></trkpt><trkpt lat="53.82842959181347" lon="87.48461131788282"><ele>211.75</ele><time>2026-04-30T12:12:02Z</time></trkpt><trkpt lat="53.82838426707148" lon="87.48479031731"><ele>212.0</ele><time>2026-04-30T12:12:03Z</time></trkpt><trkpt lat="53.82833937056196" lon="87.48496654391276"><ele>212.0</ele><time>2026-04-30T12:12:04Z</time></trkpt><trkpt lat="53.828298385463526" lon="87.48514028810695"><ele>212.0</ele><time>2026-04-30T12:12:05Z</time></trkpt><trkpt lat="53.828268054388765" lon="87.48531584185551"><ele>212.0</ele><time>2026-04-30T12:12:06Z</time></trkpt><trkpt lat="53.828247286113" lon="87.485493823654"><ele>212.0</ele><time>2026-04-30T12:12:07Z</time></trkpt><trkpt lat="53.82823460916438" lon="87.48567288383312"><ele>212.0</ele><time>2026-04-30T12:12:08Z</time></trkpt><trkpt lat="53.82823154712987" lon="87.48585577065572"><ele>212.0</ele><time>2026-04-30T12:12:09Z</time></trkpt><trkpt lat="53.828236226529896" lon="87.48604039434585"><ele>212.0</ele><time>2026-04-30T12:12:10Z</time></trkpt><trkpt lat="53.828253181143324" lon="87.48621885342742"><ele>212.0</ele><time>2026-04-30T12:12:11Z</time></trkpt><trkpt lat="53.82828870160315" lon="87.48639050004503"><ele>212.0</ele><time>2026-04-30T12:12:12Z</time></trkpt><trkpt lat="53.828334520961235" lon="87.48655541866127"><ele>212.0</ele><time>2026-04-30T12:12:13Z</time></trkpt><trkpt lat="53.82838953166082" lon="87.48671928278873"><ele>212.0</ele><time>2026-04-30T12:12:14Z</time></trkpt><trkpt lat="53.828448054085875" lon="87.48688099486196"><ele>212.0</ele><time>2026-04-30T12:12:15Z</time></trkpt><trkpt lat="53.82850540441714" lon="87.48705508372232"><ele>212.0</ele><time>2026-04-30T12:12:16Z</time></trkpt><trkpt lat="53.82856547398069" lon="87.48722944498977"><ele>212.0</ele><time>2026-04-30T12:12:17Z</time></trkpt><trkpt lat="53.82862538544394" lon="87.48740586982868"><ele>212.0</ele><time>2026-04-30T12:12:18Z</time></trkpt><trkpt lat="53.828688746393574" lon="87.48757835988104"><ele>212.0</ele><time>2026-04-30T12:12:19Z</time></trkpt><trkpt lat="53.828756959114706" lon="87.48774343956525"><ele>212.0</ele><time>2026-04-30T12:12:20Z</time></trkpt><trkpt lat="53.82882245895657" lon="87.4879066318315"><ele>212.0</ele><time>2026-04-30T12:12:21Z</time></trkpt><trkpt lat="53.82888242659856" lon="87.48807723855097"><ele>212.0</ele><time>2026-04-30T12:12:22Z</time></trkpt><trkpt lat="53.82893164566265" lon="87.48825457352186"><ele>212.0</ele><time>2026-04-30T12:12:23Z</time></trkpt><trkpt lat="53.828965570209014" lon="87.48843534851999"><ele>212.0</ele><time>2026-04-30T12:12:24Z</time></trkpt><trkpt lat="53.82899314708105" lon="87.48862230595783"><ele>212.0</ele><time>2026-04-30T12:12:25Z</time></trkpt><trkpt lat="53.82900894574308" lon="87.4888055014823"><ele>212.0</ele><time>2026-04-30T12:12:26Z</time></trkpt><trkpt lat="53.829013172302865" lon="87.48898045542819"><ele>212.0</ele><time>2026-04-30T12:12:27Z</time></trkpt><trkpt lat="53.82900487324649" lon="87.48914130704621"><ele>212.0</ele><time>2026-04-30T12:12:28Z</time></trkpt><trkpt lat="53.82898159693492" lon="87.48929306596989"><ele>212.0</ele><time>2026-04-30T12:12:29Z</time></trkpt><trkpt lat="53.82897349289038" lon="87.48945979916219"><ele>212.0</ele><time>2026-04-30T12:12:30Z</time></trkpt><trkpt lat="53.82896222885708" lon="87.48962481380036"><ele>212.0</ele><time>2026-04-30T12:12:31Z</time></trkpt><trkpt lat="53.82894173320127" lon="87.489785510908"><ele>212.0</ele><time>2026-04-30T12:12:32Z</time></trkpt><trkpt lat="53.82896013957688" lon="87.48995140126085"><ele>212.0</ele><time>2026-04-30T12:12:33Z</time></trkpt><trkpt lat="53.82899139236389" lon="87.49010848469453"><ele>212.0</ele><time>2026-04-30T12:12:34Z</time></trkpt><trkpt lat="53.82902468937486" lon="87.49025367105598"><ele>212.0</ele><time>2026-04-30T12:12:35Z</time></trkpt><trkpt lat="53.82905055474473" lon="87.49040804919275"><ele>212.0</ele><time>2026-04-30T12:12:36Z</time></trkpt><trkpt lat="53.82906494864351" lon="87.49055989397581"><ele>212.0</ele><time>2026-04-30T12:12:37Z</time></trkpt><trkpt lat="53.82907544803769" lon="87.49069969526488"><ele>212.0</ele><time>2026-04-30T12:12:38Z</time></trkpt><trkpt lat="53.82908567331881" lon="87.49083021892568"><ele>212.0</ele><time>2026-04-30T12:12:39Z</time></trkpt><trkpt lat="53.8290965819262" lon="87.49104069943881"><ele>212.0</ele><time>2026-04-30T12:12:41Z</time></trkpt><trkpt lat="53.829113252126625" lon="87.49119071793436"><ele>212.00000000000003</ele><time>2026-04-30T12:12:43Z</time></trkpt><trkpt lat="53.82909732697413" lon="87.49129669825027"><ele>212.0</ele><time>2026-04-30T12:15:57Z</time></trkpt><trkpt lat="53.829182226047266" lon="87.49135884148914"><ele>212.0</ele><time>2026-04-30T12:23:20.001Z</time></trkpt><trkpt lat="53.829248387104464" lon="87.49145538720252"><ele>212.0</ele><time>2026-04-30T12:23:22.001Z</time></trkpt><trkpt lat="53.829335555370314" lon="87.49156940850087"><ele>212.00000000000003</ele><time>2026-04-30T12:23:24.001Z</time></trkpt><trkpt lat="53.82939436083913" lon="87.49162791327737"><ele>212.0</ele><time>2026-04-30T12:23:25.001Z</time></trkpt><trkpt lat="53.829468170620586" lon="87.49167434833453"><ele>212.0</ele><time>2026-04-30T12:23:26.001Z</time></trkpt><trkpt lat="53.82953698360477" lon="87.49179434511242"><ele>212.0</ele><time>2026-04-30T12:23:27.001Z</time></trkpt><trkpt lat="53.829616874665014" lon="87.4918297328161"><ele>212.0</ele><time>2026-04-30T12:23:28.001Z</time></trkpt><trkpt lat="53.8297110405304" lon="87.49187144360488"><ele>212.0</ele><time>2026-04-30T12:23:29.001Z</time></trkpt><trkpt lat="53.829812147882805" lon="87.49191626143373"><ele>212.0</ele><time>2026-04-30T12:23:30.001Z</time></trkpt><trkpt lat="53.82990394369865" lon="87.49195693158129"><ele>212.0</ele><time>2026-04-30T12:23:31.001Z</time></trkpt><trkpt lat="53.83000318897159" lon="87.4920006064169"><ele>212.0</ele><time>2026-04-30T12:23:32.001Z</time></trkpt><trkpt lat="53.83010435606955" lon="87.49204518206672"><ele>212.0</ele><time>2026-04-30T12:23:33.001Z</time></trkpt><trkpt lat="53.8302072140493" lon="87.49209050274182"><ele>212.0</ele><time>2026-04-30T12:23:34.001Z</time></trkpt><trkpt lat="53.83031097560645" lon="87.4921412681344"><ele>212.0</ele><time>2026-04-30T12:23:35.001Z</time></trkpt><trkpt lat="53.830415496240605" lon="87.49221615806057"><ele>212.0</ele><time>2026-04-30T12:23:36.001Z</time></trkpt><trkpt lat="53.83052108173571" lon="87.49229159691569"><ele>212.0</ele><time>2026-04-30T12:23:37.001Z</time></trkpt><trkpt lat="53.83062725776956" lon="87.49235665449031"><ele>212.0</ele><time>2026-04-30T12:23:38.001Z</time></trkpt><trkpt lat="53.830721315690845" lon="87.49247692401946"><ele>212.0</ele><time>2026-04-30T12:23:39.001Z</time></trkpt><trkpt lat="53.83081584693576" lon="87.49260910710291"><ele>212.0</ele><time>2026-04-30T12:23:40Z</time></trkpt><trkpt lat="53.830914989104194" lon="87.49274487125288"><ele>212.0</ele><time>2026-04-30T12:23:41Z</time></trkpt><trkpt lat="53.83101398573253" lon="87.49287609620065"><ele>212.0</ele><time>2026-04-30T12:23:42Z</time></trkpt><trkpt lat="53.83111786065532" lon="87.49300474572436"><ele>212.0</ele><time>2026-04-30T12:23:43Z</time></trkpt><trkpt lat="53.83122380738496" lon="87.49312518632348"><ele>212.0</ele><time>2026-04-30T12:23:44Z</time></trkpt><trkpt lat="53.83133754275212" lon="87.49323614030759"><ele>212.0</ele><time>2026-04-30T12:23:45Z</time></trkpt><trkpt lat="53.83145643973908" lon="87.49333079136422"><ele>212.0</ele><time>2026-04-30T12:23:46Z</time></trkpt><trkpt lat="53.83157869337278" lon="87.49341809956873"><ele>212.0</ele><time>2026-04-30T12:23:47Z</time></trkpt><trkpt lat="53.831701110999994" lon="87.49351012004166"><ele>212.0</ele><time>2026-04-30T12:23:48Z</time></trkpt><trkpt lat="53.83182568107046" lon="87.49359702348963"><ele>212.0</ele><time>2026-04-30T12:23:49Z</time></trkpt><trkpt lat="53.83195067964663" lon="87.49369190588763"><ele>212.0</ele><time>2026-04-30T12:23:50Z</time></trkpt><trkpt lat="53.83207647025073" lon="87.49378389298178"><ele>212.0</ele><time>2026-04-30T12:23:51Z</time></trkpt><trkpt lat="53.83219646773022" lon="87.49387174898047"><ele>212.0</ele><time>2026-04-30T12:23:52Z</time></trkpt><trkpt lat="53.8323150411895" lon="87.49396632593859"><ele>212.0</ele><time>2026-04-30T12:23:53Z</time></trkpt><trkpt lat="53.83243474667312" lon="87.4940594953488"><ele>212.0</ele><time>2026-04-30T12:23:54Z</time></trkpt><trkpt lat="53.83255902358019" lon="87.49414400477215"><ele>212.0</ele><time>2026-04-30T12:23:55Z</time></trkpt><trkpt lat="53.832683975902654" lon="87.49422929334577"><ele>212.0</ele><time>2026-04-30T12:23:56Z</time></trkpt><trkpt lat="53.83281207396125" lon="87.49431876384963"><ele>212.0</ele><time>2026-04-30T12:23:57Z</time></trkpt><trkpt lat="53.83294348532739" lon="87.4944112540738"><ele>212.0</ele><time>2026-04-30T12:23:58Z</time></trkpt><trkpt lat="53.83307813963306" lon="87.4945003643497"><ele>212.0</ele><time>2026-04-30T12:23:59Z</time></trkpt><trkpt lat="53.83321346399006" lon="87.49459186181717"><ele>212.0</ele><time>2026-04-30T12:24:00Z</time></trkpt><trkpt lat="53.83335004921982" lon="87.49467937671898"><ele>212.0</ele><time>2026-04-30T12:24:01Z</time></trkpt><trkpt lat="53.833489937817966" lon="87.49476331525831"><ele>212.0</ele><time>2026-04-30T12:24:02Z</time></trkpt><trkpt lat="53.83363200155307" lon="87.49484148962966"><ele>212.0</ele><time>2026-04-30T12:24:03Z</time></trkpt><trkpt lat="53.833769877443906" lon="87.4949183267738"><ele>212.0</ele><time>2026-04-30T12:24:04Z</time></trkpt><trkpt lat="53.83390929724682" lon="87.4949935295555"><ele>212.0</ele><time>2026-04-30T12:24:05Z</time></trkpt><trkpt lat="53.834050829981884" lon="87.49506483925886"><ele>212.0</ele><time>2026-04-30T12:24:06Z</time></trkpt><trkpt lat="53.834191904642886" lon="87.49513601259838"><ele>212.0</ele><time>2026-04-30T12:24:07Z</time></trkpt><trkpt lat="53.83433149094364" lon="87.49520256539479"><ele>212.0</ele><time>2026-04-30T12:24:08Z</time></trkpt><trkpt lat="53.83447124649935" lon="87.4952705013828"><ele>212.0</ele><time>2026-04-30T12:24:09Z</time></trkpt><trkpt lat="53.83461131229026" lon="87.4953409027714"><ele>212.0</ele><time>2026-04-30T12:24:10Z</time></trkpt><trkpt lat="53.83475376401555" lon="87.49541481120264"><ele>212.0</ele><time>2026-04-30T12:24:11Z</time></trkpt><trkpt lat="53.83489502393183" lon="87.49548238559125"><ele>212.0</ele><time>2026-04-30T12:24:12Z</time></trkpt><trkpt lat="53.83503841612241" lon="87.49555148025938"><ele>212.0</ele><time>2026-04-30T12:24:13Z</time></trkpt><trkpt lat="53.83518099085958" lon="87.49562120302977"><ele>212.0</ele><time>2026-04-30T12:24:14Z</time></trkpt><trkpt lat="53.83532491922727" lon="87.49569501533429"><ele>212.0</ele><time>2026-04-30T12:24:15Z</time></trkpt><trkpt lat="53.83546818275527" lon="87.49576698847513"><ele>212.0</ele><time>2026-04-30T12:24:16Z</time></trkpt><trkpt lat="53.835610391005055" lon="87.49584264434014"><ele>212.0</ele><time>2026-04-30T12:24:17Z</time></trkpt><trkpt lat="53.835751590470466" lon="87.49591576021123"><ele>212.0</ele><time>2026-04-30T12:24:18Z</time></trkpt><trkpt lat="53.83589041583518" lon="87.49598935363278"><ele>212.0</ele><time>2026-04-30T12:24:19Z</time></trkpt><trkpt lat="53.836029671924095" lon="87.49606163788746"><ele>212.25</ele><time>2026-04-30T12:24:20Z</time></trkpt><trkpt lat="53.83617120513248" lon="87.4961313834445"><ele>212.5</ele><time>2026-04-30T12:24:21Z</time></trkpt><trkpt lat="53.83631118181968" lon="87.49620593818307"><ele>212.75</ele><time>2026-04-30T12:24:22Z</time></trkpt><trkpt lat="53.8364498076543" lon="87.4962789406777"><ele>213.0</ele><time>2026-04-30T12:24:23Z</time></trkpt><trkpt lat="53.83658692122604" lon="87.49635432133105"><ele>213.25</ele><time>2026-04-30T12:24:24Z</time></trkpt><trkpt lat="53.83672565501516" lon="87.49643121385562"><ele>213.5</ele><time>2026-04-30T12:24:25Z</time></trkpt><trkpt lat="53.83686232311697" lon="87.49651173359467"><ele>213.75</ele><time>2026-04-30T12:24:26Z</time></trkpt><trkpt lat="53.836998571363694" lon="87.49660224352301"><ele>214.0</ele><time>2026-04-30T12:24:27Z</time></trkpt><trkpt lat="53.83713339009371" lon="87.49669309312512"><ele>214.75</ele><time>2026-04-30T12:24:28Z</time></trkpt><trkpt lat="53.837267706187866" lon="87.49679185264833"><ele>215.5</ele><time>2026-04-30T12:24:29Z</time></trkpt><trkpt lat="53.837397370951656" lon="87.49689978086285"><ele>216.25</ele><time>2026-04-30T12:24:30Z</time></trkpt><trkpt lat="53.837526534315245" lon="87.49700399619846"><ele>217.0</ele><time>2026-04-30T12:24:31Z</time></trkpt><trkpt lat="53.83765492657941" lon="87.49710557790247"><ele>217.0</ele><time>2026-04-30T12:24:32Z</time></trkpt><trkpt lat="53.83778509651538" lon="87.49720930975612"><ele>217.0</ele><time>2026-04-30T12:24:33Z</time></trkpt><trkpt lat="53.8379143558053" lon="87.4973155203858"><ele>217.0</ele><time>2026-04-30T12:24:34Z</time></trkpt><trkpt lat="53.83804488847527" lon="87.49741883940915"><ele>217.0</ele><time>2026-04-30T12:24:35Z</time></trkpt><trkpt lat="53.83817237002991" lon="87.49751960257986"><ele>217.0</ele><time>2026-04-30T12:24:36Z</time></trkpt><trkpt lat="53.838301804567706" lon="87.49762143914168"><ele>217.0</ele><time>2026-04-30T12:24:37Z</time></trkpt><trkpt lat="53.83843027915556" lon="87.49772390722833"><ele>217.0</ele><time>2026-04-30T12:24:38Z</time></trkpt><trkpt lat="53.83855990801259" lon="87.49782647940559"><ele>217.0</ele><time>2026-04-30T12:24:39Z</time></trkpt><trkpt lat="53.83868620179653" lon="87.49793931760895"><ele>218.25</ele><time>2026-04-30T12:24:40Z</time></trkpt><trkpt lat="53.83880960644486" lon="87.49806615289282"><ele>219.5</ele><time>2026-04-30T12:24:41Z</time></trkpt><trkpt lat="53.83892709333217" lon="87.4982017142354"><ele>220.75</ele><time>2026-04-30T12:24:42Z</time></trkpt><trkpt lat="53.83903914434329" lon="87.49835030820151"><ele>222.0</ele><time>2026-04-30T12:24:43Z</time></trkpt><trkpt lat="53.83914859323606" lon="87.49848994335127"><ele>222.0</ele><time>2026-04-30T12:24:44Z</time></trkpt><trkpt lat="53.83924716715751" lon="87.49862374452432"><ele>222.0</ele><time>2026-04-30T12:24:45Z</time></trkpt><trkpt lat="53.83933625178891" lon="87.49876412900049"><ele>222.0</ele><time>2026-04-30T12:24:46Z</time></trkpt><trkpt lat="53.83941358372152" lon="87.49891612989897"><ele>222.0</ele><time>2026-04-30T12:24:47Z</time></trkpt><trkpt lat="53.839473199107196" lon="87.49908217288906"><ele>223.8</ele><time>2026-04-30T12:24:48Z</time></trkpt><trkpt lat="53.83951672502857" lon="87.49925984985657"><ele>225.6</ele><time>2026-04-30T12:24:49Z</time></trkpt><trkpt lat="53.83954695248398" lon="87.4994396918709"><ele>227.40000000000003</ele><time>2026-04-30T12:24:50Z</time></trkpt><trkpt lat="53.83956508548745" lon="87.49961406036972"><ele>229.20000000000002</ele><time>2026-04-30T12:24:51Z</time></trkpt><trkpt lat="53.83955568695152" lon="87.49978937906828"><ele>231.0</ele><time>2026-04-30T12:24:52Z</time></trkpt><trkpt lat="53.83952406103568" lon="87.4999563262519"><ele>231.0</ele><time>2026-04-30T12:24:53Z</time></trkpt><trkpt lat="53.83948116069459" lon="87.50011499187"><ele>231.00000000000003</ele><time>2026-04-30T12:24:54Z</time></trkpt><trkpt lat="53.839429820412306" lon="87.50025975107748"><ele>231.00000000000003</ele><time>2026-04-30T12:24:55Z</time></trkpt><trkpt lat="53.83937539274091" lon="87.5004006333802"><ele>231.0</ele><time>2026-04-30T12:24:56Z</time></trkpt><trkpt lat="53.839320534731286" lon="87.5005245895945"><ele>231.0</ele><time>2026-04-30T12:24:57Z</time></trkpt><trkpt lat="53.83929188867164" lon="87.50066194900093"><ele>228.33333333333334</ele><time>2026-04-30T12:24:58Z</time></trkpt><trkpt lat="53.83925605426639" lon="87.50077823812039"><ele>225.66666666666669</ele><time>2026-04-30T12:24:59Z</time></trkpt><trkpt lat="53.83922392464217" lon="87.50088470468671"><ele>223.0</ele><time>2026-04-30T12:25:00Z</time></trkpt><trkpt lat="53.839180420294696" lon="87.50101584073681"><ele>220.33333333333334</ele><time>2026-04-30T12:25:02Z</time></trkpt><trkpt lat="53.83914008905047" lon="87.50112363358969"><ele>217.66666666666669</ele><time>2026-04-30T12:25:05Z</time></trkpt><trkpt lat="53.8390845809343" lon="87.50127125675921"><ele>215.0</ele><time>2026-04-30T12:25:07Z</time></trkpt><trkpt lat="53.839049208864104" lon="87.50136517570057"><ele>215.00000000000003</ele><time>2026-04-30T12:25:08Z</time></trkpt><trkpt lat="53.83900966904432" lon="87.50146421078529"><ele>215.0</ele><time>2026-04-30T12:25:09Z</time></trkpt><trkpt lat="53.838966320450126" lon="87.50155636127046"><ele>215.0</ele><time>2026-04-30T12:25:10Z</time></trkpt><trkpt lat="53.838921578806364" lon="87.50165186386566"><ele>215.0</ele><time>2026-04-30T12:25:11Z</time></trkpt><trkpt lat="53.83887739372938" lon="87.50174617842953"><ele>215.00000000000003</ele><time>2026-04-30T12:25:12Z</time></trkpt><trkpt lat="53.83881954736514" lon="87.50191334261984"><ele>215.0</ele><time>2026-04-30T12:25:14Z</time></trkpt><trkpt lat="53.83880487752453" lon="87.502027261728"><ele>214.83333333333334</ele><time>2026-04-30T12:25:16Z</time></trkpt><trkpt lat="53.83879278535826" lon="87.50214109828134"><ele>214.66666666666669</ele><time>2026-04-30T12:25:18.001Z</time></trkpt><trkpt lat="53.838760262586916" lon="87.50226709162204"><ele>214.5</ele><time>2026-04-30T12:25:20.001Z</time></trkpt><trkpt lat="53.83871802923994" lon="87.5024636561417"><ele>214.33333333333331</ele><time>2026-04-30T12:25:22.001Z</time></trkpt><trkpt lat="53.83869824319952" lon="87.50259279281023"><ele>214.16666666666666</ele><time>2026-04-30T12:25:23.001Z</time></trkpt><trkpt lat="53.83867821635899" lon="87.50272309809077"><ele>214.0</ele><time>2026-04-30T12:25:24.001Z</time></trkpt><trkpt lat="53.83865865977772" lon="87.50286365673387"><ele>214.0</ele><time>2026-04-30T12:25:25.001Z</time></trkpt><trkpt lat="53.83863316410971" lon="87.50300944492646"><ele>213.99999999999997</ele><time>2026-04-30T12:25:26.001Z</time></trkpt><trkpt lat="53.838603374193326" lon="87.50316253363378"><ele>213.99999999999997</ele><time>2026-04-30T12:25:27.001Z</time></trkpt><trkpt lat="53.83857984169024" lon="87.50331450389541"><ele>214.0</ele><time>2026-04-30T12:25:28.001Z</time></trkpt><trkpt lat="53.83855347581716" lon="87.50346980447881"><ele>214.0</ele><time>2026-04-30T12:25:29.001Z</time></trkpt><trkpt lat="53.8385277011886" lon="87.50362872348163"><ele>214.0</ele><time>2026-04-30T12:25:30.001Z</time></trkpt><trkpt lat="53.838502976359166" lon="87.50378889740277"><ele>213.99999999999997</ele><time>2026-04-30T12:25:31.001Z</time></trkpt><trkpt lat="53.83847507349486" lon="87.5039492280731"><ele>213.99999999999997</ele><time>2026-04-30T12:25:32.001Z</time></trkpt><trkpt lat="53.8384477514238" lon="87.50411232925504"><ele>214.0</ele><time>2026-04-30T12:25:33.001Z</time></trkpt><trkpt lat="53.83841709361343" lon="87.5042707008087"><ele>214.0</ele><time>2026-04-30T12:25:34.001Z</time></trkpt><trkpt lat="53.83839403939848" lon="87.50442716665673"><ele>214.0</ele><time>2026-04-30T12:25:35.001Z</time></trkpt><trkpt lat="53.83837217196631" lon="87.50457322602581"><ele>213.99999999999997</ele><time>2026-04-30T12:25:36.001Z</time></trkpt><trkpt lat="53.838343034997486" lon="87.50471737992991"><ele>213.99999999999997</ele><time>2026-04-30T12:25:37.001Z</time></trkpt><trkpt lat="53.83830749492191" lon="87.50486599624799"><ele>214.0</ele><time>2026-04-30T12:25:38.001Z</time></trkpt><trkpt lat="53.83827948358857" lon="87.5050240056911"><ele>214.0</ele><time>2026-04-30T12:25:39.001Z</time></trkpt><trkpt lat="53.83827699033534" lon="87.50516007222517"><ele>214.16666666666666</ele><time>2026-04-30T12:25:40.001Z</time></trkpt><trkpt lat="53.838256000935054" lon="87.50529679624077"><ele>214.33333333333331</ele><time>2026-04-30T12:25:41.001Z</time></trkpt><trkpt lat="53.838232940174514" lon="87.50544476555862"><ele>214.5</ele><time>2026-04-30T12:25:42.001Z</time></trkpt><trkpt lat="53.83820630151734" lon="87.50558715474523"><ele>214.66666666666669</ele><time>2026-04-30T12:25:43.001Z</time></trkpt><trkpt lat="53.838181846714114" lon="87.50573139064198"><ele>214.83333333333334</ele><time>2026-04-30T12:25:44.001Z</time></trkpt><trkpt lat="53.838161657479915" lon="87.50586771980679"><ele>215.0</ele><time>2026-04-30T12:25:45.001Z</time></trkpt><trkpt lat="53.83814969847399" lon="87.50599049162672"><ele>215.00000000000003</ele><time>2026-04-30T12:25:46Z</time></trkpt><trkpt lat="53.838121188243974" lon="87.50612261780552"><ele>215.0</ele><time>2026-04-30T12:25:47Z</time></trkpt><trkpt lat="53.83809463068594" lon="87.50624928114229"><ele>215.0</ele><time>2026-04-30T12:25:48Z</time></trkpt><trkpt lat="53.83806148855983" lon="87.50639341577067"><ele>215.0</ele><time>2026-04-30T12:25:49Z</time></trkpt><trkpt lat="53.83802997106832" lon="87.50653049735209"><ele>215.00000000000003</ele><time>2026-04-30T12:25:50Z</time></trkpt><trkpt lat="53.837992713538874" lon="87.50666802939195"><ele>215.0</ele><time>2026-04-30T12:25:51Z</time></trkpt><trkpt lat="53.83795503642697" lon="87.5068029120149"><ele>215.00000000000003</ele><time>2026-04-30T12:25:52Z</time></trkpt><trkpt lat="53.8379240590957" lon="87.50693953875412"><ele>215.0</ele><time>2026-04-30T12:25:53Z</time></trkpt><trkpt lat="53.83789656994164" lon="87.5070698406114"><ele>215.0</ele><time>2026-04-30T12:25:54Z</time></trkpt><trkpt lat="53.83786796103277" lon="87.50719633570772"><ele>215.0</ele><time>2026-04-30T12:25:55Z</time></trkpt><trkpt lat="53.83783490840532" lon="87.50732874827862"><ele>215.00000000000003</ele><time>2026-04-30T12:25:56Z</time></trkpt><trkpt lat="53.837809140694965" lon="87.50745599556528"><ele>215.0</ele><time>2026-04-30T12:25:57Z</time></trkpt><trkpt lat="53.83778341015017" lon="87.50757353114231"><ele>215.0</ele><time>2026-04-30T12:25:58Z</time></trkpt><trkpt lat="53.8377568618023" lon="87.50768054476289"><ele>215.0</ele><time>2026-04-30T12:25:59Z</time></trkpt><trkpt lat="53.837730454208405" lon="87.50779428810537"><ele>215.0</ele><time>2026-04-30T12:26:00Z</time></trkpt><trkpt lat="53.83766801734125" lon="87.50794617755811"><ele>215.0</ele><time>2026-04-30T12:26:02Z</time></trkpt><trkpt lat="53.83750343076649" lon="87.50781348840054"><ele>215.0</ele><time>2026-04-30T12:26:05Z</time></trkpt><trkpt lat="53.83742647523058" lon="87.50773828990428"><ele>214.6</ele><time>2026-04-30T12:26:06Z</time></trkpt><trkpt lat="53.83735026223577" lon="87.50766381637845"><ele>214.2</ele><time>2026-04-30T12:26:07Z</time></trkpt><trkpt lat="53.83726878931828" lon="87.50760182526929"><ele>213.8</ele><time>2026-04-30T12:26:08Z</time></trkpt><trkpt lat="53.83719885192007" lon="87.50750253423722"><ele>213.4</ele><time>2026-04-30T12:26:09Z</time></trkpt><trkpt lat="53.83711995474393" lon="87.50741450580824"><ele>213.0</ele><time>2026-04-30T12:26:10Z</time></trkpt><trkpt lat="53.83704468299728" lon="87.50733065066977"><ele>213.0</ele><time>2026-04-30T12:26:11Z</time></trkpt><trkpt lat="53.8369711490016" lon="87.50724873151269"><ele>213.0</ele><time>2026-04-30T12:26:12Z</time></trkpt><trkpt lat="53.83690351267202" lon="87.50717338156872"><ele>213.0</ele><time>2026-04-30T12:26:13Z</time></trkpt><trkpt lat="53.83685541942977" lon="87.50707994097219"><ele>213.0</ele><time>2026-04-30T12:26:14Z</time></trkpt><trkpt lat="53.836795903393416" lon="87.50697965981276"><ele>213.0</ele><time>2026-04-30T12:26:15Z</time></trkpt><trkpt lat="53.83673396484657" lon="87.50687529670718"><ele>213.0</ele><time>2026-04-30T12:26:16Z</time></trkpt><trkpt lat="53.836672256965585" lon="87.50677132215765"><ele>213.16666666666666</ele><time>2026-04-30T12:26:17Z</time></trkpt><trkpt lat="53.836614522618355" lon="87.50667404312001"><ele>213.33333333333331</ele><time>2026-04-30T12:26:18Z</time></trkpt><trkpt lat="53.836554102670675" lon="87.5065722386787"><ele>213.5</ele><time>2026-04-30T12:26:19Z</time></trkpt><trkpt lat="53.83649655930577" lon="87.5064742384742"><ele>213.66666666666666</ele><time>2026-04-30T12:26:20Z</time></trkpt><trkpt lat="53.83643367014143" lon="87.5063661329348"><ele>213.83333333333331</ele><time>2026-04-30T12:26:21Z</time></trkpt><trkpt lat="53.83638107495006" lon="87.50627576427864"><ele>214.0</ele><time>2026-04-30T12:26:22Z</time></trkpt><trkpt lat="53.83633528162423" lon="87.5061768789291"><ele>214.16666666666666</ele><time>2026-04-30T12:26:23Z</time></trkpt><trkpt lat="53.836288981911366" lon="87.50606484236162"><ele>214.33333333333331</ele><time>2026-04-30T12:26:24Z</time></trkpt><trkpt lat="53.836241819309656" lon="87.50595095002888"><ele>214.5</ele><time>2026-04-30T12:26:25Z</time></trkpt><trkpt lat="53.836192260577626" lon="87.50583127132751"><ele>214.66666666666669</ele><time>2026-04-30T12:26:26Z</time></trkpt><trkpt lat="53.83614029487088" lon="87.50570577998734"><ele>214.83333333333334</ele><time>2026-04-30T12:26:27Z</time></trkpt><trkpt lat="53.83608548678973" lon="87.50558448337496"><ele>215.0</ele><time>2026-04-30T12:26:28Z</time></trkpt><trkpt lat="53.836042152085085" lon="87.50549204581581"><ele>215.00000000000003</ele><time>2026-04-30T12:26:29Z</time></trkpt><trkpt lat="53.835999578596805" lon="87.50540123179401"><ele>215.0</ele><time>2026-04-30T12:26:30Z</time></trkpt><trkpt lat="53.835957257377935" lon="87.50531095596853"><ele>215.0</ele><time>2026-04-30T12:26:31Z</time></trkpt><trkpt lat="53.835917351058995" lon="87.50522583151577"><ele>215.0</ele><time>2026-04-30T12:26:32Z</time></trkpt><trkpt lat="53.835847003025386" lon="87.5050757716042"><ele>215.00000000000003</ele><time>2026-04-30T12:26:34Z</time></trkpt><trkpt lat="53.83578216161591" lon="87.50493745790115"><ele>215.0</ele><time>2026-04-30T12:26:36Z</time></trkpt><trkpt lat="53.835730266178835" lon="87.50485111956691"><ele>215.00000000000003</ele><time>2026-04-30T12:26:37Z</time></trkpt><trkpt lat="53.835676566489376" lon="87.5047704099621"><ele>215.0</ele><time>2026-04-30T12:26:38Z</time></trkpt><trkpt lat="53.835613200450375" lon="87.50467517211848"><ele>215.0</ele><time>2026-04-30T12:26:39Z</time></trkpt><trkpt lat="53.835551215361946" lon="87.50458201812971"><ele>215.0</ele><time>2026-04-30T12:26:40Z</time></trkpt><trkpt lat="53.83548539604073" lon="87.50449172766716"><ele>215.00000000000003</ele><time>2026-04-30T12:26:41Z</time></trkpt><trkpt lat="53.83542036120554" lon="87.50441380319059"><ele>215.0</ele><time>2026-04-30T12:26:42Z</time></trkpt><trkpt lat="53.83535549964319" lon="87.50433569370064"><ele>215.0</ele><time>2026-04-30T12:26:43Z</time></trkpt><trkpt lat="53.83529590975584" lon="87.504263932582"><ele>215.0</ele><time>2026-04-30T12:26:44Z</time></trkpt><trkpt lat="53.83523843753376" lon="87.50419472187892"><ele>215.0</ele><time>2026-04-30T12:26:45Z</time></trkpt><trkpt lat="53.83518418785661" lon="87.50412939404552"><ele>215.0</ele><time>2026-04-30T12:26:46Z</time></trkpt><trkpt lat="53.83512591526825" lon="87.50405921947468"><ele>215.0</ele><time>2026-04-30T12:26:47Z</time></trkpt><trkpt lat="53.83506058577562" lon="87.50398054652285"><ele>215.0</ele><time>2026-04-30T12:26:48Z</time></trkpt><trkpt lat="53.83499629880676" lon="87.50390176393218"><ele>215.0</ele><time>2026-04-30T12:26:49Z</time></trkpt><trkpt lat="53.83493006243197" lon="87.50381855906203"><ele>214.83333333333334</ele><time>2026-04-30T12:26:50Z</time></trkpt><trkpt lat="53.83486236866619" lon="87.50373352351838"><ele>214.66666666666669</ele><time>2026-04-30T12:26:51Z</time></trkpt><trkpt lat="53.834796064392165" lon="87.50365023292365"><ele>214.5</ele><time>2026-04-30T12:26:52Z</time></trkpt><trkpt lat="53.83472976871771" lon="87.50356725132458"><ele>214.33333333333331</ele><time>2026-04-30T12:26:53Z</time></trkpt><trkpt lat="53.83466819744946" lon="87.50349018226039"><ele>214.16666666666666</ele><time>2026-04-30T12:26:54Z</time></trkpt><trkpt lat="53.83460590555846" lon="87.50341220401329"><ele>214.0</ele><time>2026-04-30T12:26:55Z</time></trkpt><trkpt lat="53.83455048281383" lon="87.50334334159824"><ele>213.99999999999997</ele><time>2026-04-30T12:26:56Z</time></trkpt><trkpt lat="53.83449585451554" lon="87.50327454349808"><ele>214.0</ele><time>2026-04-30T12:26:57Z</time></trkpt><trkpt lat="53.834420380551144" lon="87.50317952668023"><ele>214.0</ele><time>2026-04-30T12:26:59Z</time></trkpt><trkpt lat="53.83432760890637" lon="87.50306302745072"><ele>214.0</ele><time>2026-04-30T12:27:01Z</time></trkpt><trkpt lat="53.83427371865163" lon="87.50299060104089"><ele>213.99999999999997</ele><time>2026-04-30T12:27:02Z</time></trkpt><trkpt lat="53.8342125185184" lon="87.50290377367573"><ele>214.0</ele><time>2026-04-30T12:27:03Z</time></trkpt><trkpt lat="53.83415153373835" lon="87.50281725591189"><ele>214.16666666666666</ele><time>2026-04-30T12:27:04Z</time></trkpt><trkpt lat="53.83409173757412" lon="87.50273102035243"><ele>214.33333333333331</ele><time>2026-04-30T12:27:05Z</time></trkpt><trkpt lat="53.83403223817076" lon="87.50264637225881"><ele>214.5</ele><time>2026-04-30T12:27:06Z</time></trkpt><trkpt lat="53.83397133103689" lon="87.50256481528481"><ele>214.66666666666669</ele><time>2026-04-30T12:27:07Z</time></trkpt><trkpt lat="53.83390609349913" lon="87.50248532225989"><ele>214.83333333333334</ele><time>2026-04-30T12:27:08Z</time></trkpt><trkpt lat="53.83383689843788" lon="87.50240116305665"><ele>215.0</ele><time>2026-04-30T12:27:09Z</time></trkpt><trkpt lat="53.833776740393645" lon="87.50232831789562"><ele>215.0</ele><time>2026-04-30T12:27:10Z</time></trkpt><trkpt lat="53.83371918872877" lon="87.50225862886916"><ele>215.0</ele><time>2026-04-30T12:27:11Z</time></trkpt><trkpt lat="53.833661637367655" lon="87.50218894050919"><ele>215.0</ele><time>2026-04-30T12:27:12Z</time></trkpt><trkpt lat="53.833599919760196" lon="87.50211420718922"><ele>215.0</ele><time>2026-04-30T12:27:13Z</time></trkpt><trkpt lat="53.8335371804064" lon="87.50203823649676"><ele>215.0</ele><time>2026-04-30T12:27:14Z</time></trkpt><trkpt lat="53.83347596223844" lon="87.50196410785077"><ele>215.0</ele><time>2026-04-30T12:27:15Z</time></trkpt><trkpt lat="53.833420579432925" lon="87.50189672322928"><ele>215.0</ele><time>2026-04-30T12:27:16Z</time></trkpt><trkpt lat="53.83336795810474" lon="87.50183248076561"><ele>214.83333333333334</ele><time>2026-04-30T12:27:17Z</time></trkpt><trkpt lat="53.8332776698285" lon="87.50170900245412"><ele>214.66666666666669</ele><time>2026-04-30T12:27:19Z</time></trkpt><trkpt lat="53.833206429401805" lon="87.501607377703"><ele>214.5</ele><time>2026-04-30T12:27:21Z</time></trkpt><trkpt lat="53.833157469673885" lon="87.50153753659474"><ele>214.33333333333331</ele><time>2026-04-30T12:27:23Z</time></trkpt><trkpt lat="53.83320959137599" lon="87.50143056776761"><ele>214.16666666666666</ele><time>2026-04-30T12:27:27Z</time></trkpt><trkpt lat="53.83327292237389" lon="87.50135182084394"><ele>214.0</ele><time>2026-04-30T12:27:51Z</time></trkpt><trkpt lat="53.83328819924516" lon="87.50123275577062"><ele>214.00000000000003</ele><time>2026-04-30T12:27:55Z</time></trkpt><trkpt lat="53.83321658557805" lon="87.50122522782085"><ele>214.0</ele><time>2026-04-30T12:33:43Z</time></trkpt><trkpt lat="53.83328923486122" lon="87.50125046333791"><ele>214.0</ele><time>2026-04-30T12:36:23Z</time></trkpt><trkpt lat="53.83325435041071" lon="87.50134483870843"><ele>214.0</ele><time>2026-04-30T12:36:32Z</time></trkpt><trkpt lat="53.833183754392316" lon="87.50133021601944"><ele>214.0</ele><time>2026-04-30T12:36:42Z</time></trkpt><trkpt lat="53.83320972975527" lon="87.50121117446055"><ele>214.00000000000003</ele><time>2026-04-30T12:36:50Z</time></trkpt><trkpt lat="53.83323868502778" lon="87.50108999141294"><ele>214.0</ele><time>2026-04-30T12:36:55Z</time></trkpt><trkpt lat="53.833278610190554" lon="87.50098154483774"><ele>214.00000000000003</ele><time>2026-04-30T12:37:00Z</time></trkpt><trkpt lat="53.833311027148746" lon="87.50087181023659"><ele>214.0</ele><time>2026-04-30T12:37:05Z</time></trkpt><trkpt lat="53.833313559076046" lon="87.5007472871568"><ele>214.0</ele><time>2026-04-30T12:37:13Z</time></trkpt><trkpt lat="53.83333934960251" lon="87.50062665036035"><ele>214.0</ele><time>2026-04-30T12:37:17Z</time></trkpt><trkpt lat="53.833365790519466" lon="87.50051051066276"><ele>214.0</ele><time>2026-04-30T12:37:20Z</time></trkpt><trkpt lat="53.833358088442964" lon="87.50039732065095"><ele>214.00000000000003</ele><time>2026-04-30T12:37:25Z</time></trkpt><trkpt lat="53.83331062762799" lon="87.50028671991188"><ele>214.0</ele><time>2026-04-30T12:37:29Z</time></trkpt><trkpt lat="53.83324508601572" lon="87.50026460790286"><ele>214.16666666666666</ele><time>2026-04-30T12:37:32Z</time></trkpt><trkpt lat="53.833175958881604" lon="87.5001979499672"><ele>214.33333333333331</ele><time>2026-04-30T12:37:36Z</time></trkpt><trkpt lat="53.83311784367814" lon="87.50014756229952"><ele>214.5</ele><time>2026-04-30T12:37:38Z</time></trkpt><trkpt lat="53.83305567414201" lon="87.50008041226614"><ele>214.66666666666669</ele><time>2026-04-30T12:37:41Z</time></trkpt><trkpt lat="53.832991826391094" lon="87.50002310336518"><ele>214.83333333333334</ele><time>2026-04-30T12:37:43Z</time></trkpt><trkpt lat="53.832910685537854" lon="87.49995906774103"><ele>215.0</ele><time>2026-04-30T12:37:46Z</time></trkpt><trkpt lat="53.83283581155801" lon="87.49989823890553"><ele>215.0</ele><time>2026-04-30T12:37:48Z</time></trkpt><trkpt lat="53.83276354868379" lon="87.49985618026498"><ele>215.0</ele><time>2026-04-30T12:37:51Z</time></trkpt><trkpt lat="53.83269693874345" lon="87.49982777235124"><ele>215.0</ele><time>2026-04-30T12:37:53Z</time></trkpt><trkpt lat="53.832643021263344" lon="87.49988780174152"><ele>215.0</ele><time>2026-04-30T12:37:58Z</time></trkpt><trkpt lat="53.83260660800583" lon="87.49997585051241"><ele>215.0</ele><time>2026-04-30T12:38:05Z</time></trkpt><trkpt lat="53.83255740110132" lon="87.49990750826376"><ele>215.0</ele><time>2026-04-30T12:38:54Z</time></trkpt><trkpt lat="53.83262403351561" lon="87.50002999430028"><ele>215.0</ele><time>2026-04-30T12:39:22Z</time></trkpt><trkpt lat="53.83256141396625" lon="87.49991873390915"><ele>215.0</ele><time>2026-04-30T12:39:35Z</time></trkpt></trkseg></trk></gpx>